ftp/pub/palmer/observations_modified/2019/July/AR190711_BASE.txt

Download

Sample DateTime	Unit Id	WS Avg 2min	WD Avg 2min	WGS 10min	WGD 10min	Air Temp	Rel Humidity	Dew Point	Pyranometer	Quantum	Air Pressure	Snow Level	Rainfall	PW Current	Visibility	CBase 1	CBase 2	CBase 3	Vert Vis
2019/07/11  00:00:04  BASE  0        71   0        M    -6.9  100   -6.9  0     0     1017.8   NA       0.0000   BR       7000  0     0    
2019/07/11  00:01:04  BASE  0        59   0        M    -6.9  100   -6.9  0     0     1017.8   NA       0.0000   BR       3500  0     0    
2019/07/11  00:02:05  BASE  0        71   0        M    -6.8  100   -6.8  0     0     1017.8   NA       0.0000   BR       2200  0     0    
2019/07/11  00:03:05  BASE  0        110  0        M    -6.8  100   -6.8  0     0     1017.8   NA       0.0000   BR       1600  0     0    
2019/07/11  00:04:05  BASE  0        134  0        M    -6.8  100   -6.8  0     0     1017.8   NA       0.0000   BR       1100  0     0    
2019/07/11  00:05:04  BASE  0        147  0        M    -6.8  100   -6.8  0     0     1017.8   NA       0.0000   BR       0800  0     0    
2019/07/11  00:06:04  BASE  0        163  0        M    -6.8  100   -6.8  0     0     1017.8   NA       0.0000   BR       0750  0     0    
2019/07/11  00:07:04  BASE  0        171  0        M    -6.8  100   -6.8  0     0     1017.8   NA       0.0000   BR       0700  0     0    
2019/07/11  00:08:04  BASE  0        174  0        M    -6.9  100   -6.9  0     0     1017.8   NA       0.0000   BR       0700  0     0    
2019/07/11  00:09:04  BASE  0        175  0        M    -6.9  100   -6.9  0     0     1017.8   NA       0.0000   BR       0700  0     0    
2019/07/11  00:10:05  BASE  0        173  0        M    -7.0  100   -7.0  0     0     1017.8   NA       0.0000   BR       0650  0     0    
2019/07/11  00:11:05  BASE  0        154  0        M    -7.1  100   -7.1  0     0     1017.8   NA       0.0000   FZFG     0600  0     0    
2019/07/11  00:12:04  BASE  0        139  0        M    -7.1  100   -7.1  0     0     1017.8   NA       0.0000   FZFG     0600  0     0    
2019/07/11  00:13:04  BASE  0        150  0        M    -7.1  100   -7.1  0     0     1017.8   NA       0.0000   FZFG     0550  0     0    
2019/07/11  00:14:04  BASE  0        167  0        M    -7.1  100   -7.1  0     0     1017.8   NA       0.0000   FZFG     0550  0     0    
2019/07/11  00:15:04  BASE  0        174  0        M    -7.1  100   -7.1  0     0     1017.8   NA       0.0000   FZFG     0550  0     0    
2019/07/11  00:16:04  BASE  0        155  0        M    -7.0  100   -7.0  0     0     1017.8   NA       0.0000   FZFG     0550  0     0    
2019/07/11  00:17:04  BASE  0        131  0        M    -7.0  100   -7.0  0     0     1017.8   NA       0.0000   FZFG     0600  0     0    
2019/07/11  00:18:04  BASE  0        134  0        M    -7.0  100   -7.0  0     0     1017.8   NA       0.0000   FZFG     0650  0     0    
2019/07/11  00:19:05  BASE  0        146  0        M    -7.0  100   -7.0  0     0     1017.8   NA       0.0000   FZFG     0650  0     0    
2019/07/11  00:20:04  BASE  0        156  0        M    -7.0  100   -7.0  0     0     1017.8   NA       0.0000   FZFG     0650  0     0    
2019/07/11  00:21:04  BASE  0        160  0        M    -7.0  100   -7.0  0     0     1017.8   NA       0.0000   FZFG     0650  0     0    
2019/07/11  00:22:04  BASE  0        172  0        M    -7.1  100   -7.1  0     0     1017.8   NA       0.0000   FZFG     0650  0     0    
2019/07/11  00:23:05  BASE  0        188  0        M    -7.1  100   -7.1  0     0     1017.8   NA       0.0000   FZFG     0650  0     0    
2019/07/11  00:24:04  BASE  0        195  0        M    -7.1  100   -7.1  0     0     1017.8   NA       0.0000   FZFG     0650  0     0    
2019/07/11  00:25:04  BASE  0        203  0        M    -7.1  100   -7.1  0     0     1017.8   NA       0.0000   FZFG     0700  0     0    
2019/07/11  00:26:04  BASE  0        212  0        M    -7.2  100   -7.2  0     0     1017.8   NA       0.0000   FZFG     0750  0     0    
2019/07/11  00:27:04  BASE  0        212  0        M    -7.2  100   -7.2  0     0     1017.8   NA       0.0000   FZFG     0750  0     0    
2019/07/11  00:28:04  BASE  0        198  0        M    -7.1  100   -7.1  0     0     1017.8   NA       0.0000   FZFG     0800  0     0    
2019/07/11  00:29:04  BASE  0        191  0        M    -7.1  100   -7.1  0     0     1017.8   NA       0.0000   FZFG     0800  0     0    
2019/07/11  00:30:05  BASE  0        193  0        M    -7.1  100   -7.1  0     0     1017.8   NA       0.0000   FZFG     0900  0     0    
2019/07/11  00:31:05  BASE  0        191  0        M    -7.0  100   -7.0  0     0     1017.8   NA       0.0000   FZFG     0900  0     0    
2019/07/11  00:32:05  BASE  0        188  0        M    -7.1  100   -7.1  0     0     1017.8   NA       0.0000   FZFG     0900  0     0    
2019/07/11  00:33:05  BASE  0        181  0        M    -7.1  100   -7.1  0     0     1017.8   NA       0.0000   FZFG     0900  0     0    
2019/07/11  00:34:05  BASE  0        168  0        M    -7.2  100   -7.2  0     0     1017.8   NA       0.0000   FZFG     1000  0     0    
2019/07/11  00:35:05  BASE  0        156  0        M    -7.2  100   -7.2  0     0     1017.8   NA       0.0000   FZFG     0900  0     0    
2019/07/11  00:36:04  BASE  0        152  0        M    -7.2  100   -7.2  0     0     1017.8   NA       0.0000   FZFG     0700  0     0    
2019/07/11  00:37:04  BASE  0        152  0        M    -7.2  100   -7.2  0     0     1017.8   NA       0.0000   FZFG     0700  0     0    
2019/07/11  00:38:04  BASE  0        149  0        M    -7.2  100   -7.2  0     0     1017.8   NA       0.0000   FZFG     0700  0     0    
2019/07/11  00:39:05  BASE  0        150  0        M    -7.1  100   -7.1  0     0     1017.8   NA       0.0000   FZFG     0700  0     0    
2019/07/11  00:40:04  BASE  0        152  0        M    -7.1  100   -7.1  0     0     1017.8   NA       0.0000   FZFG     0750  0     0    
2019/07/11  00:41:04  BASE  0        150  0        M    -7.1  100   -7.1  0     0     1017.8   NA       0.0000   FZFG     0700  0     0    
2019/07/11  00:42:04  BASE  0        145  0        M    -7.1  100   -7.1  0     0     1017.8   NA       0.0000   FZFG     0700  0     0    
2019/07/11  00:43:04  BASE  0        133  0        M    -7.1  100   -7.1  0     0     1017.8   NA       0.0000   FZFG     0650  0     0    
2019/07/11  00:44:04  BASE  0        129  0        M    -7.1  100   -7.1  0     0     1017.8   NA       0.0000   FZFG     0700  0     0    
2019/07/11  00:45:04  BASE  0        136  0        M    -7.0  100   -7.0  0     0     1017.8   NA       0.0000   FZFG     0800  0     0    
2019/07/11  00:46:04  BASE  0        140  0        M    -7.0  100   -7.0  0     0     1017.8   NA       0.0000   FZFG     1000  0     0    
2019/07/11  00:47:04  BASE  0        142  0        M    -7.0  100   -7.0  0     0     1017.8   NA       0.0000   FZFG     1000  0     0    
2019/07/11  00:48:01  BASE  0        142  0        M    -6.9  100   -6.9  0     0     1017.8   NA       0.0000   FZFG     1100  0     0    
2019/07/11  00:49:05  BASE  0        142  0        M    -6.9  100   -6.9  0     0     1017.8   NA       0.0000   FZFG     1000  0     0    
2019/07/11  00:50:04  BASE  0        126  0        M    -6.8  100   -6.8  0     0     1017.8   NA       0.0000   FZFG     1100  0     0    
2019/07/11  00:51:01  BASE  0        94   0        M    -6.8  100   -6.8  0     0     1017.8   NA       0.0000   BR       1200  0     0    
2019/07/11  00:52:05  BASE  0        76   0        M    -6.9  100   -6.9  0     0     1017.8   NA       0.0000   BR       1100  0     0    
2019/07/11  00:53:05  BASE  0        65   0        M    -6.9  100   -6.9  0     0     1017.8   NA       0.0000   BR       1000  0     0    
2019/07/11  00:54:04  BASE  0        56   0        M    -7.0  100   -7.0  0     0     1017.8   NA       0.0000   BR       1000  0     0    
2019/07/11  00:55:04  BASE  0        55   0        M    -7.1  100   -7.1  0     0     1017.8   NA       0.0000   BR       1300  0     0    
2019/07/11  00:56:04  BASE  0        53   0        M    -7.1  100   -7.1  0     0     1017.8   NA       0.0000   BR       1700  0     0    
2019/07/11  00:57:01  BASE  0        54   0        M    -7.1  100   -7.1  0     0     1017.8   NA       0.0000   BR       2400  0     0    
2019/07/11  00:58:04  BASE  0        55   0        M    -7.1  100   -7.1  0     0     1017.8   NA       0.0000   BR       3000  0     0    
2019/07/11  00:59:04  BASE  0        52   0        M    -7.1  100   -7.1  0     0     1017.8   NA       0.0000   BR       5000  0     0    
2019/07/11  01:00:04  BASE  0        49   0        M    -7.1  100   -7.1  0     0     1017.8   NA       0.0000   BR       9999  0     0    
2019/07/11  01:01:04  BASE  0        45   0        M    -7.1  100   -7.1  0     0     1017.8   NA       0.0000   BR       9999  0     0    
2019/07/11  01:02:04  BASE  0        46   0        M    -7.1  100   -7.1  0     0     1017.8   NA       0.0000   BR       9999  0     0    
2019/07/11  01:03:04  BASE  0        50   0        M    -7.1  100   -7.1  0     0     1017.8   NA       0.0000   BR       9999  0     0    
2019/07/11  01:04:04  BASE  0        51   0        M    -7.1  100   -7.1  0     0     1017.8   NA       0.0000   BR       9999  0     0    
2019/07/11  01:05:05  BASE  0        49   0        M    -7.1  100   -7.1  0     0     1017.8   NA       0.0000   BR       9999  0     0    
2019/07/11  01:06:04  BASE  0        49   0        M    -7.1  100   -7.1  0     0     1017.8   NA       0.0000   BR       9999  0     0    
2019/07/11  01:07:04  BASE  0        53   0        M    -7.1  100   -7.1  0     0     1017.8   NA       0.0000   BR       9999  0     0    
2019/07/11  01:08:04  BASE  0        56   0        M    -7.1  100   -7.1  0     0     1017.8   NA       0.0000   9999     0     0     0    
2019/07/11  01:09:05  BASE  0        59   0        M    -7.1  100   -7.1  0     0     1017.8   NA       0.0000   9999     0     0     0    
2019/07/11  01:10:04  BASE  0        60   0        M    -7.1  100   -7.1  0     0     1017.8   NA       0.0000   9999     0     0     0    
2019/07/11  01:11:04  BASE  0        55   0        M    -7.2  100   -7.2  0     0     1017.8   NA       0.0000   9999     0     0     0    
2019/07/11  01:12:04  BASE  0        49   0        M    -7.2  100   -7.2  0     0     1017.8   NA       0.0000   9999     0     0     0    
2019/07/11  01:13:04  BASE  0        48   0        M    -7.2  100   -7.2  0     0     1017.8   NA       0.0000   9999     0     0     0    
2019/07/11  01:14:04  BASE  0        50   0        M    -7.3  100   -7.3  0     0     1017.8   NA       0.0000   9999     0     0     0    
2019/07/11  01:15:04  BASE  0        52   0        M    -7.3  100   -7.3  0     0     1017.8   NA       0.0000   9999     0     0     0    
2019/07/11  01:16:01  BASE  0        50   0        M    -7.3  100   -7.3  0     0     1017.8   NA       0.0000   9999     0     0     0    
2019/07/11  01:17:04  BASE  0        46   0        M    -7.2  100   -7.2  0     0     1017.8   NA       0.0000   9999     0     0     0    
2019/07/11  01:18:05  BASE  0        43   0        M    -7.2  100   -7.2  0     0     1017.8   NA       0.0000   9999     0     0     0    
2019/07/11  01:19:05  BASE  0        41   0        M    -7.1  100   -7.1  0     0     1017.8   NA       0.0000   9999     0     0     0    
2019/07/11  01:20:04  BASE  0        40   0        M    -7.1  100   -7.1  0     0     1017.8   NA       0.0000   9999     0     0     0    
2019/07/11  01:21:04  BASE  0        40   0        M    -7.1  100   -7.1  0     0     1017.8   NA       0.0000   9999     0     0     0    
2019/07/11  01:22:04  BASE  0        40   0        M    -7.1  100   -7.1  0     0     1017.8   NA       0.0000   9999     0     0     0    
2019/07/11  01:23:04  BASE  0        40   0        M    -7.1  100   -7.1  0     0     1017.8   NA       0.0000   9999     0     0     0    
2019/07/11  01:24:04  BASE  0        40   0        M    -7.0  100   -7.0  0     0     1017.8   NA       0.0000   9999     0     0     0    
2019/07/11  01:25:05  BASE  0        40   0        M    -7.0  100   -7.0  0     0     1017.8   NA       0.0000   9999     0     0     0    
2019/07/11  01:26:05  BASE  0        53   0        M    -7.0  100   -7.0  0     0     1017.8   NA       0.0000   9999     0     0     0    
2019/07/11  01:27:04  BASE  0        73   0        M    -7.1  100   -7.1  0     0     1017.8   NA       0.0000   9999     0     0     0    
2019/07/11  01:28:04  BASE  0        81   0        M    -7.1  100   -7.1  0     0     1017.8   NA       0.0000   9999     0     0     0    
2019/07/11  01:29:04  BASE  0        82   0        M    -7.1  100   -7.1  0     0     1017.8   NA       0.0000   9999     0     0     0    
2019/07/11  01:30:04  BASE  0        82   0        M    -7.1  100   -7.1  0     0     1017.8   NA       0.0000   9999     0     0     0    
2019/07/11  01:31:04  BASE  0        82   0        M    -7.0  100   -7.0  0     0     1017.9   NA       0.0000   9999     0     0     0    
2019/07/11  01:32:05  BASE  0        82   0        M    -6.9  100   -6.9  0     0     1017.9   NA       0.0000   9999     0     0     0    
2019/07/11  01:33:05  BASE  0        82   0        M    -6.9  100   -6.9  0     0     1017.8   NA       0.0000   9999     0     0     0    
2019/07/11  01:34:05  BASE  0        82   0        M    -6.9  100   -6.9  0     0     1017.8   NA       0.0000   9999     0     0     0    
2019/07/11  01:35:04  BASE  0        73   0        M    -6.9  100   -6.9  0     0     1017.8   NA       0.0000   9999     0     0     0    
2019/07/11  01:36:04  BASE  0        59   0        M    -6.9  100   -6.9  0     0     1017.8   NA       0.0000   9999     0     0     0    
2019/07/11  01:37:04  BASE  0        52   0        M    -7.0  100   -7.0  0     0     1017.8   NA       0.0000   9999     0     0     0    
2019/07/11  01:38:04  BASE  0        38   0        M    -7.0  100   -7.0  0     0     1017.8   NA       0.0000   9999     0     0     0    
2019/07/11  01:39:01  BASE  0        27   0        M    -7.0  100   -7.0  0     0     1017.8   NA       0.0000   9999     0     0     0    
2019/07/11  01:40:04  BASE  0        26   0        M    -7.0  100   -7.0  0     0     1017.8   NA       0.0000   9999     0     0     0    
2019/07/11  01:41:04  BASE  0        30   0        M    -7.0  100   -7.0  0     0     1017.8   NA       0.0000   9999     0     0     0    
2019/07/11  01:42:04  BASE  0        41   0        M    -6.9  100   -6.9  0     0     1017.8   NA       0.0000   9999     0     0     0    
2019/07/11  01:43:04  BASE  0        57   0        M    -6.9  100   -6.9  0     0     1017.8   NA       0.0000   9999     0     0     0    
2019/07/11  01:44:04  BASE  0        74   0        M    -6.8  100   -6.8  0     0     1017.8   NA       0.0000   9999     0     0     0    
2019/07/11  01:45:04  BASE  0        79   0        M    -6.8  100   -6.8  0     0     1017.8   NA       0.0000   9999     0     0     0    
2019/07/11  01:46:04  BASE  0        67   0        M    -6.8  100   -6.8  0     0     1017.8   NA       0.0000   9999     0     0     0    
2019/07/11  01:47:04  BASE  0        51   0        M    -6.9  100   -6.9  0     0     1017.8   NA       0.0000   9999     0     0     0    
2019/07/11  01:48:04  BASE  0        40   0        M    -7.0  100   -7.0  0     0     1017.9   NA       0.0000   9999     0     0     0    
2019/07/11  01:49:04  BASE  0        28   0        M    -7.1  100   -7.1  0     0     1017.8   NA       0.0000   9999     0     0     0    
2019/07/11  01:50:04  BASE  0        14   0        M    -7.1  100   -7.1  0     0     1017.8   NA       0.0000   9999     0     0     0    
2019/07/11  01:51:05  BASE  0        10   0        M    -7.2  100   -7.2  0     0     1017.8   NA       0.0000   9999     0     0     0    
2019/07/11  01:52:04  BASE  0        19   0        M    -7.2  100   -7.2  0     0     1017.8   NA       0.0000   9999     0     0     0    
2019/07/11  01:53:01  BASE  0        24   0        M    -7.3  100   -7.3  0     0     1017.9   NA       0.0000   9999     0     0     0    
2019/07/11  01:54:04  BASE  0        24   0        M    -7.3  100   -7.3  0     0     1017.9   NA       0.0000   9999     0     0     0    
2019/07/11  01:55:04  BASE  0        25   0        M    -7.3  100   -7.3  0     0     1017.9   NA       0.0000   9999     0     0     0    
2019/07/11  01:56:04  BASE  0        27   0        M    -7.3  100   -7.3  0     0     1017.9   NA       0.0000   9999     0     0     0    
2019/07/11  01:57:04  BASE  0        32   0        M    -7.3  100   -7.3  0     0     1017.9   NA       0.0000   9999     0     0     0    
2019/07/11  01:58:04  BASE  0        33   0        M    -7.3  100   -7.3  0     0     1017.9   NA       0.0000   9999     0     0     0    
2019/07/11  01:59:05  BASE  0        33   0        M    -7.3  100   -7.3  0     0     1017.9   NA       0.0000   9999     0     0     0    
2019/07/11  02:00:04  BASE  0        31   0        M    -7.3  100   -7.3  0     0     1017.8   NA       0.0000   9999     0     0     0    
2019/07/11  02:01:04  BASE  0        31   0        M    -7.4  100   -7.4  0     0     1017.8   NA       0.0000   9999     0     0     0    
2019/07/11  02:02:04  BASE  0        34   0        M    -7.4  100   -7.4  0     0     1017.8   NA       0.0000   9999     0     0     0    
2019/07/11  02:03:04  BASE  0        35   0        M    -7.4  100   -7.4  0     0     1017.8   NA       0.0000   9999     0     0     0    
2019/07/11  02:04:04  BASE  0        33   0        M    -7.4  100   -7.4  0     0     1017.8   NA       0.0000   9999     0     0     0    
2019/07/11  02:05:04  BASE  0        33   0        M    -7.4  100   -7.4  0     0     1017.8   NA       0.0000   9999     0     0     0    
2019/07/11  02:06:04  BASE  0        38   0        M    -7.5  100   -7.5  0     0     1017.8   NA       0.0000   9999     0     0     0    
2019/07/11  02:07:04  BASE  0        43   0        M    -7.5  100   -7.5  0     0     1017.8   NA       0.0000   9999     0     0     0    
2019/07/11  02:08:04  BASE  0        43   0        M    -7.5  100   -7.5  0     0     1017.8   NA       0.0000   9999     0     0     0    
2019/07/11  02:09:04  BASE  0        41   0        M    -7.5  100   -7.5  0     0     1017.8   NA       0.0000   9999     0     0     0    
2019/07/11  02:10:04  BASE  0        42   0        M    -7.4  100   -7.4  0     0     1017.8   NA       0.0000   9999     0     0     0    
2019/07/11  02:11:04  BASE  0        46   0        M    -7.4  100   -7.4  0     0     1017.8   NA       0.0000   9999     0     0     0    
2019/07/11  02:12:04  BASE  0        43   0        M    -7.4  100   -7.4  0     0     1017.8   NA       0.0000   9999     0     0     0    
2019/07/11  02:13:04  BASE  0        35   0        M    -7.4  100   -7.4  0     0     1017.8   NA       0.0000   9999     0     0     0    
2019/07/11  02:14:02  BASE  0        23   0        M    -7.4  100   -7.4  0     0     1017.8   NA       0.0000   9999     0     0     0    
2019/07/11  02:15:04  BASE  0        15   0        M    -7.4  100   -7.4  0     0     1017.8   NA       0.0000   9999     0     0     0    
2019/07/11  02:16:04  BASE  0        16   0        M    -7.3  100   -7.3  0     0     1017.8   NA       0.0000   9999     0     0     0    
2019/07/11  02:17:01  BASE  0        20   0        M    -7.4  100   -7.4  0     0     1017.8   NA       0.0000   9999     0     0     0    
2019/07/11  02:18:04  BASE  0        22   0        M    -7.4  100   -7.4  0     0     1017.8   NA       0.0000   9999     0     0     0    
2019/07/11  02:19:04  BASE  0        22   0        M    -7.4  100   -7.4  0     0     1017.8   NA       0.0000   9999     0     0     0    
2019/07/11  02:20:04  BASE  0        22   0        M    -7.4  100   -7.4  0     0     1017.8   NA       0.0000   9999     0     0     0    
2019/07/11  02:21:01  BASE  0        30   0        M    -7.4  100   -7.4  0     0     1017.8   NA       0.0000   9999     0     0     0    
2019/07/11  02:22:04  BASE  0.02352  37   0.60564  41   -7.4  100   -7.4  0     0     1017.8   NA       0.0000   9999     0     0     0    
2019/07/11  02:23:04  BASE  0.02352  39   0.60564  41   -7.4  100   -7.4  0     0     1017.8   NA       0.0000   9999     0     0     0    
2019/07/11  02:24:04  BASE  0        39   0.60564  41   -7.4  100   -7.4  0     0     1017.8   NA       0.0000   9999     0     0     0    
2019/07/11  02:25:05  BASE  0        38   0.60564  41   -7.4  100   -7.4  0     0     1017.8   NA       0.0000   9999     0     0     0    
2019/07/11  02:26:01  BASE  0        40   0.60564  41   -7.4  100   -7.4  0     0     1017.9   NA       0.0000   9999     0     0     0    
2019/07/11  02:27:04  BASE  0        41   0.60564  41   -7.4  100   -7.4  0     0     1017.9   NA       0.0000   9999     0     0     0    
2019/07/11  02:28:04  BASE  0        43   0.60564  41   -7.3  100   -7.3  0     0     1017.9   NA       0.0000   9999     0     0     0    
2019/07/11  02:29:05  BASE  0        45   0.60564  41   -7.3  100   -7.3  0     0     1017.9   NA       0.0000   9999     0     0     0    
2019/07/11  02:30:04  BASE  0        49   0.60564  41   -7.2  100   -7.2  0     0     1017.9   NA       0.0000   9999     0     0     0    
2019/07/11  02:31:01  BASE  0        48   0.60564  41   -7.2  100   -7.2  0     0     1017.9   NA       0.0000   9999     0     0     0    
2019/07/11  02:32:05  BASE  0        43   0        M    -7.1  100   -7.1  0     0     1017.9   NA       0.0000   9999     0     0     0    
2019/07/11  02:33:01  BASE  0        35   0        M    -7.1  100   -7.1  0     0     1017.9   NA       0.0000   9999     0     0     0    
2019/07/11  02:34:04  BASE  0        20   0        M    -7.1  100   -7.1  0     0     1017.9   NA       0.0000   9999     0     0     0    
2019/07/11  02:35:04  BASE  0        17   0        M    -7.1  100   -7.1  0     0     1017.9   NA       0.0000   9999     0     0     0    
2019/07/11  02:36:01  BASE  0        23   0        M    -7.1  100   -7.1  0     0     1017.8   NA       0.0000   9999     0     0     0    
2019/07/11  02:37:04  BASE  0        28   0        M    -7.1  100   -7.1  0     0     1017.8   NA       0.0000   9999     0     0     0    
2019/07/11  02:38:01  BASE  0        32   0        M    -7.1  100   -7.1  0     0     1017.8   NA       0.0000   9999     0     0     0    
2019/07/11  02:39:04  BASE  0        33   0        M    -7.1  100   -7.1  0     0     1017.8   NA       0.0000   9999     0     0     0    
2019/07/11  02:40:04  BASE  0        31   0        M    -7.0  100   -7.0  0     0     1017.8   NA       0.0000   9999     0     0     0    
2019/07/11  02:41:04  BASE  0        30   0        M    -7.0  100   -7.0  0     0     1017.8   NA       0.0000   9999     0     0     0    
2019/07/11  02:42:01  BASE  0        30   0        M    -7.0  100   -7.0  0     0     1017.8   NA       0.0000   9999     0     0     0    
2019/07/11  02:43:04  BASE  0        29   0        M    -7.0  100   -7.0  0     0     1017.8   NA       0.0000   9999     0     0     0    
2019/07/11  02:44:04  BASE  0        29   0        M    -7.0  100   -7.0  0     0     1017.8   NA       0.0000   9999     0     0     0    
2019/07/11  02:45:05  BASE  0        29   0        M    -7.1  100   -7.1  0     0     1017.8   NA       0.0000   9999     0     0     0    
2019/07/11  02:46:01  BASE  0        27   0        M    -7.1  100   -7.1  0     0     1017.8   NA       0.0000   9999     0     0     0    
2019/07/11  02:47:04  BASE  0        28   0        M    -7.1  100   -7.1  0     0     1017.8   NA       0.0000   9999     0     0     0    
2019/07/11  02:48:01  BASE  0        26   0        M    -7.1  100   -7.1  0     0     1017.8   NA       0.0000   9999     0     0     0    
2019/07/11  02:49:05  BASE  0        20   0        M    -7.1  100   -7.1  0     0     1017.8   NA       0.0000   9999     0     0     0    
2019/07/11  02:50:04  BASE  0        22   0        M    -7.1  100   -7.1  0     0     1017.8   NA       0.0000   9999     0     0     0    
2019/07/11  02:51:01  BASE  0        28   0        M    -7.1  100   -7.1  0     0     1017.8   NA       0.0000   9999     0     0     0    
2019/07/11  02:52:04  BASE  0        33   0        M    -7.1  100   -7.1  0     0     1017.8   NA       0.0000   9999     0     0     0    
2019/07/11  02:53:05  BASE  0        39   0        M    -7.1  100   -7.1  0     0     1017.8   NA       0.0000   9999     0     0     0    
2019/07/11  02:54:02  BASE  0        42   0        M    -7.1  100   -7.1  0     0     1017.8   NA       0.0000   9999     0     0     0    
2019/07/11  02:55:04  BASE  0        46   0        M    -7.2  100   -7.2  0     0     1017.8   NA       0.0000   9999     0     0     0    
2019/07/11  02:56:01  BASE  0        46   0        M    -7.1  100   -7.1  0     0     1017.8   NA       0.0000   9999     0     0     0    
2019/07/11  02:57:04  BASE  0        41   0        M    -7.1  100   -7.1  0     0     1017.8   NA       0.0000   9999     0     0     0    
2019/07/11  02:58:04  BASE  0        43   0        M    -7.1  100   -7.1  0     0     1017.8   NA       0.0000   9999     0     0     0    
2019/07/11  02:59:04  BASE  0        47   0        M    -7.1  100   -7.1  0     0     1017.8   NA       0.0000   9999     0     0     0    
2019/07/11  03:00:04  BASE  0        47   0        M    -7.1  100   -7.1  0     0     1017.8   NA       0.0000   9999     0     0     0    
2019/07/11  03:01:01  BASE  0        47   0        M    -7.1  100   -7.1  0     0     1017.8   NA       0.0000   9999     0     0     0    
2019/07/11  03:02:04  BASE  0        48   0        M    -7.1  100   -7.1  0     0     1017.8   NA       0.0000   9999     0     0     0    
2019/07/11  03:03:04  BASE  0        46   0        M    -7.1  100   -7.1  0     0     1017.8   NA       0.0000   9999     0     0     0    
2019/07/11  03:04:04  BASE  0        44   0        M    -7.0  100   -7.0  0     0     1017.8   NA       0.0000   9999     0     0     0    
2019/07/11  03:05:05  BASE  0        39   0        M    -7.0  100   -7.0  0     0     1017.8   NA       0.0000   9999     0     0     0    
2019/07/11  03:06:01  BASE  0        31   0        M    -6.9  100   -6.9  0     0     1017.8   NA       0.0000   9999     0     0     0    
2019/07/11  03:07:04  BASE  0        26   0        M    -6.9  100   -6.9  0     0     1017.8   NA       0.0000   9999     0     0     0    
2019/07/11  03:08:05  BASE  0        23   0        M    -6.8  100   -6.8  0     0     1017.8   NA       0.0000   9999     0     0     0    
2019/07/11  03:09:04  BASE  0        21   0        M    -6.8  100   -6.8  0     0     1017.8   NA       0.0000   9999     0     0     0    
2019/07/11  03:10:04  BASE  0        20   0        M    -6.8  100   -6.8  0     0     1017.8   NA       0.0000   9999     0     0     0    
2019/07/11  03:11:01  BASE  0        23   0        M    -6.8  100   -6.8  0     0     1017.7   NA       0.0000   9999     0     0     0    
2019/07/11  03:12:04  BASE  0        27   0        M    -6.8  100   -6.8  0     0     1017.7   NA       0.0000   9999     0     0     0    
2019/07/11  03:13:05  BASE  0        25   0        M    -6.8  100   -6.8  0     0     1017.7   NA       0.0000   9999     0     0     0    
2019/07/11  03:14:04  BASE  0        24   0        M    -6.9  100   -6.9  0     0     1017.7   NA       0.0000   9999     0     0     0    
2019/07/11  03:15:04  BASE  0        23   0        M    -6.9  100   -6.9  0     0     1017.8   NA       0.0000   9999     0     0     0    
2019/07/11  03:16:01  BASE  0        26   0        M    -6.9  100   -6.9  0     0     1017.8   NA       0.0000   9999     0     0     0    
2019/07/11  03:17:04  BASE  0        36   0        M    -6.9  100   -6.9  0     0     1017.8   NA       0.0000   9999     0     0     0    
2019/07/11  03:18:04  BASE  0        38   0        M    -6.8  100   -6.8  0     0     1017.8   NA       0.0000   9999     0     0     0    
2019/07/11  03:19:04  BASE  0        36   0        M    -6.8  100   -6.8  0     0     1017.8   NA       0.0000   9999     0     0     0    
2019/07/11  03:20:04  BASE  0        35   0        M    -6.7  100   -6.7  0     0     1017.8   NA       0.0000   9999     0     0     0    
2019/07/11  03:21:01  BASE  0        31   0        M    -6.7  100   -6.7  0     0     1017.8   NA       0.0000   9999     0     0     0    
2019/07/11  03:22:11  BASE  0        33   0        M    -6.7  100   -6.7  0     0     1017.8   NA       0.0000   9999     0     0     0    
2019/07/11  03:23:05  BASE  0        34   0        M    -6.6  100   -6.6  0     0     1017.8   NA       0.0000   9999     0     0     0    
2019/07/11  03:24:04  BASE  0        29   0        M    -6.6  100   -6.6  0     0     1017.8   NA       0.0000   9999     0     0     0    
2019/07/11  03:25:04  BASE  0        22   0        M    -6.6  100   -6.6  0     0     1017.8   NA       0.0000   9999     0     0     0    
2019/07/11  03:26:01  BASE  0        17   0        M    -6.6  100   -6.6  0     0     1017.8   NA       0.0000   9999     0     0     0    
2019/07/11  03:27:04  BASE  0        17   0        M    -6.6  100   -6.6  0     0     1017.8   NA       0.0000   9999     0     0     0    
2019/07/11  03:28:04  BASE  0        11   0        M    -6.6  100   -6.6  0     0     1017.8   NA       0.0000   9999     0     0     0    
2019/07/11  03:29:05  BASE  0        9    0        M    -6.7  100   -6.7  0     0     1017.8   NA       0.0000   9999     0     0     0    
2019/07/11  03:30:04  BASE  0        15   0        M    -6.7  100   -6.7  0     0     1017.8   NA       0.0000   9999     0     0     0    
2019/07/11  03:31:01  BASE  0        21   0        M    -6.8  100   -6.8  0     0     1017.8   NA       0.0000   9999     0     0     0    
2019/07/11  03:32:05  BASE  0        31   0        M    -6.9  100   -6.9  0     0     1017.8   NA       0.0000   9999     0     0     0    
2019/07/11  03:33:02  BASE  0        34   0        M    -6.9  100   -6.9  0     0     1017.8   NA       0.0000   9999     0     0     0    
2019/07/11  03:34:04  BASE  0        28   0        M    -7.0  100   -7.0  0     0     1017.8   NA       0.0000   9999     0     0     0    
2019/07/11  03:35:04  BASE  0        22   0        M    -7.0  100   -7.0  0     0     1017.8   NA       0.0000   9999     0     0     0    
2019/07/11  03:36:01  BASE  0        19   0        M    -7.1  100   -7.1  0     0     1017.8   NA       0.0000   9999     0     0     0    
2019/07/11  03:37:04  BASE  0        22   0        M    -7.1  100   -7.1  0     0     1017.8   NA       0.0000   9999     0     0     0    
2019/07/11  03:38:04  BASE  0        29   0        M    -7.1  100   -7.1  0     0     1017.8   NA       0.0000   9999     0     0     0    
2019/07/11  03:39:04  BASE  0        33   0        M    -7.1  100   -7.1  0     0     1017.8   NA       0.0000   9999     0     0     0    
2019/07/11  03:40:04  BASE  0        35   0        M    -7.2  100   -7.2  0     0     1017.8   NA       0.0000   9999     0     0     0    
2019/07/11  03:41:01  BASE  0        33   0        M    -7.2  100   -7.2  0     0     1017.8   NA       0.0000   9999     0     0     0    
2019/07/11  03:42:04  BASE  0        33   0        M    -7.2  100   -7.2  0     0     1017.8   NA       0.0000   9999     0     0     0    
2019/07/11  03:43:05  BASE  0        36   0        M    -7.2  100   -7.2  0     0     1017.8   NA       0.0000   9999     0     0     0    
2019/07/11  03:44:04  BASE  0.05292  35   0.60564  26   -7.2  100   -7.2  0     0     1017.8   NA       0.0000   9999     0     0     0    
2019/07/11  03:45:04  BASE  0.07644  33   0.60564  35   -7.3  100   -7.3  0     0     1017.8   NA       0.0000   9999     0     0     0    
2019/07/11  03:46:02  BASE  0.07644  33   0.60564  36   -7.3  100   -7.3  0     0     1017.8   NA       0.0000   9999     0     0     0    
2019/07/11  03:47:04  BASE  0.34692  35   0.69384  36   -7.3  100   -7.3  0     0     1017.8   NA       0.0000   9999     0     0     0    
2019/07/11  03:48:04  BASE  0.4998   36   0.69384  36   -7.3  100   -7.3  0     0     1017.8   NA       0.0000   9999     0     0     0    
2019/07/11  03:49:05  BASE  0.48216  34   0.69384  27   -7.3  100   -7.3  0     0     1017.8   NA       0.0000   9999     0     0     0    
2019/07/11  03:50:04  BASE  0.63504  29   0.81732  23   -7.4  100   -7.4  0     0     1017.8   NA       0.0000   9999     0     0     0    
2019/07/11  03:51:01  BASE  0.74088  24   0.81732  23   -7.4  100   -7.4  0     0     1017.8   NA       0.0000   9999     0     0     0    
2019/07/11  03:52:04  BASE  0.75264  22   0.81732  23   -7.4  100   -7.4  0     0     1017.8   NA       0.0000   9999     0     0     0    
2019/07/11  03:53:01  BASE  0.735    22   0.81732  23   -7.3  100   -7.4  0     0     1017.8   NA       0.0000   9999     0     0     0    
2019/07/11  03:54:04  BASE  0.72912  18   0.81732  23   -7.3  100   -7.3  0     0     1017.8   NA       0.0000   9999     0     0     0    
2019/07/11  03:55:04  BASE  0.69384  17   0.81732  20   -7.3  100   -7.3  0     0     1017.8   NA       0.0000   9999     0     0     0    
2019/07/11  03:56:02  BASE  0.67032  18   0.81732  13   -7.3  100   -7.3  0     0     1017.8   NA       0.0000   9999     0     0     0    
2019/07/11  03:57:05  BASE  0.71736  15   0.81732  7    -7.3  100   -7.3  0     0     1017.8   NA       0.0000   9999     0     0     0    
2019/07/11  03:58:05  BASE  0.69972  14   0.81732  7    -7.4  100   -7.4  0     0     1017.8   NA       0.0000   9999     0     0     0    
2019/07/11  03:59:04  BASE  0.48804  17   0.81732  7    -7.4  100   -7.4  0     0     1017.8   NA       0.0000   9999     0     0     0    
2019/07/11  04:00:04  BASE  0.15288  14   0.81732  7    -7.4  100   -7.4  0     0     1017.8   NA       0.0000   9999     0     0     0    
2019/07/11  04:01:01  BASE  0        15   0.81732  7    -7.4  100   -7.4  0     0     1017.8   NA       0.0000   9999     0     0     0    
2019/07/11  04:02:00  BASE  0        17   0.81732  7    -7.4  100   -7.4  0     0     M        NA       0.0000   9999     0     0     0    
2019/07/11  04:03:00  BASE  0        24   0.81732  7    -7.4  100   -7.4  0     0     1017.8   NA       0.0000   9999     0     0     0    
2019/07/11  04:04:00  BASE  0        24   0.81732  7    -7.4  100   -7.4  0     0     1017.8   NA       0.0000   9999     0     0     0    
2019/07/11  04:05:00  BASE  0        28   0.81732  7    -7.4  100   -7.4  0     0     1017.8   NA       0.0000   9999     0     0     0    
2019/07/11  04:06:00  BASE  0.02352  25   0.81732  7    -7.3  100   -7.4  0     0     1017.8   NA       0.0000   9999     0     0     0    
2019/07/11  04:07:00  BASE  0.02352  29   0.81732  7    -7.3  100   -7.3  0     0     1017.8   NA       0.0000   9999     0     0     0    
2019/07/11  04:08:00  BASE  0        32   0.66444  22   -7.2  100   -7.2  0     0     1017.8   NA       0.0000   9999     0     0     0    
2019/07/11  04:09:00  BASE  0        33   0.63504  17   -7.1  100   -7.1  0     0     1017.8   NA       0.0000   9999     0     0     0    
2019/07/11  04:10:00  BASE  0        34   0.60564  34   -7.1  100   -7.1  0     0     1017.8   NA       0.0000   9999     0     0     0    
2019/07/11  04:11:00  BASE  0        23   0.60564  34   -7.0  100   -7.0  0     0     1017.8   NA       0.0000   9999     0     0     0    
2019/07/11  04:12:00  BASE  0        14   0.60564  34   -6.9  100   -6.9  0     0     1017.8   NA       0.0000   9999     0     0     0    
2019/07/11  04:13:00  BASE  0        7    0.60564  34   -6.8  100   -6.8  0     0     1017.8   NA       0.0000   9999     0     0     0    
2019/07/11  04:14:00  BASE  0        353  0.60564  34   -6.8  100   -6.8  0     0     1017.8   NA       0.0000   9999     0     0     0    
2019/07/11  04:15:00  BASE  0        337  0.60564  34   -6.7  100   -6.7  0     0     1017.8   NA       0.0000   9999     0     0     0    
2019/07/11  04:16:00  BASE  0        329  0        M    -6.6  100   -6.6  0     0     1017.8   NA       0.0000   9999     0     0     0    
2019/07/11  04:17:00  BASE  0        333  0        M    -6.6  100   -6.6  0     0     1017.8   NA       0.0000   9999     0     0     0    
2019/07/11  04:18:00  BASE  0        336  0        M    -6.6  100   -6.6  0     0     1017.8   NA       0.0000   9999     0     0     0    
2019/07/11  04:19:00  BASE  0        322  0        M    -6.6  100   -6.6  0     0     1017.8   NA       0.0000   9999     0     0     0    
2019/07/11  04:20:00  BASE  0        309  0        M    -6.6  100   -6.6  0     0     1017.9   NA       0.0000   9999     0     0     0    
2019/07/11  04:21:00  BASE  0        314  0        M    -6.6  100   -6.6  0     0     1017.9   NA       0.0000   9999     0     0     0    
2019/07/11  04:22:00  BASE  0        323  0        M    -6.6  100   -6.6  0     0     1017.9   NA       0.0000   9999     0     0     0    
2019/07/11  04:23:00  BASE  0        322  0        M    -6.6  100   -6.6  0     0     1017.8   NA       0.0000   9999     0     0     0    
2019/07/11  04:24:00  BASE  0        323  0        M    -6.6  100   -6.6  0     0     1017.8   NA       0.0000   9999     0     0     0    
2019/07/11  04:25:00  BASE  0        325  0        M    -6.6  100   -6.6  0     0     1017.9   NA       0.0000   9999     0     0     0    
2019/07/11  04:26:00  BASE  0        324  0        M    -6.6  100   -6.6  0     0     1017.9   NA       0.0000   9999     0     0     0    
2019/07/11  04:27:00  BASE  0        326  0        M    -6.6  100   -6.6  0     0     1017.9   NA       0.0000   9999     0     0     0    
2019/07/11  04:28:00  BASE  0        329  0        M    -6.6  100   -6.6  0     0     1017.9   NA       0.0000   9999     0     0     0    
2019/07/11  04:29:00  BASE  0        345  0        M    -6.6  100   -6.6  0     0     1017.9   NA       0.0000   9999     0     0     0    
2019/07/11  04:30:00  BASE  0        10   0        M    -6.6  100   -6.6  0     0     1017.9   NA       0.0000   9999     0     0     0    
2019/07/11  04:31:00  BASE  0        23   0        M    -6.6  100   -6.6  0     0     1017.9   NA       0.0000   9999     0     0     0    
2019/07/11  04:32:00  BASE  0        31   0        M    -6.6  100   -6.6  0     0     1017.9   NA       0.0000   9999     0     0     0    
2019/07/11  04:33:00  BASE  0        42   0        M    -6.6  100   -6.6  0     0     1017.9   NA       0.0000   9999     0     0     0    
2019/07/11  04:34:00  BASE  0        52   0        M    -6.6  100   -6.6  0     0     1017.9   NA       0.0000   9999     0     0     0    
2019/07/11  04:35:00  BASE  0        56   0        M    -6.6  100   -6.6  0     0     1017.9   NA       0.0000   9999     0     0     0    
2019/07/11  04:36:00  BASE  0        56   0        M    -6.6  100   -6.6  0     0     1017.9   NA       0.0000   9999     0     0     0    
2019/07/11  04:37:00  BASE  0        56   0        M    -6.5  100   -6.5  0     0     1017.9   NA       0.0000   9999     0     0     0    
2019/07/11  04:38:00  BASE  0        50   0        M    -6.5  100   -6.5  0     0     1017.9   NA       0.0000   9999     0     0     0    
2019/07/11  04:39:00  BASE  0        43   0        M    -6.5  100   -6.5  0     0     1017.9   NA       0.0000   9999     0     0     0    
2019/07/11  04:40:00  BASE  0        56   0        M    -6.5  100   -6.5  0     0     1017.9   NA       0.0000   9999     0     0     0    
2019/07/11  04:41:00  BASE  0        84   0        M    -6.5  100   -6.5  0     0     1018.0   NA       0.0000   9999     0     0     0    
2019/07/11  04:42:00  BASE  0        102  0        M    -6.5  100   -6.5  0     0     1018.1   NA       0.0000   9999     0     0     0    
2019/07/11  04:43:00  BASE  0        108  0        M    -6.6  100   -6.6  0     0     1018.1   NA       0.0000   9999     0     0     0    
2019/07/11  04:44:00  BASE  0        108  0        M    -6.6  100   -6.6  0     0     1018.1   NA       0.0000   9999     0     0     0    
2019/07/11  04:45:00  BASE  0        109  0        M    -6.6  100   -6.6  0     0     1018.1   NA       0.0000   9999     0     0     0    
2019/07/11  04:46:00  BASE  0        112  0        M    -6.6  100   -6.6  0     0     1018.1   NA       0.0000   9999     0     0     0    
2019/07/11  04:47:00  BASE  0        115  0        M    -6.5  100   -6.5  0     0     1018.1   NA       0.0000   9999     0     0     0    
2019/07/11  04:48:01  BASE  0        116  0        M    -6.5  100   -6.5  0     0     1018.1   NA       0.0000   9999     0     0     0    
2019/07/11  04:49:00  BASE  0        116  0        M    -6.5  100   -6.5  0     0     1018.1   NA       0.0000   9999     0     0     0    
2019/07/11  04:50:00  BASE  0        113  0        M    -6.5  100   -6.5  0     0     1018.1   NA       0.0000   9999     0     0     0    
2019/07/11  04:51:00  BASE  0        106  0        M    -6.5  100   -6.5  0     0     1018.1   NA       0.0000   9999     0     0     0    
2019/07/11  04:52:00  BASE  0        102  0        M    -6.4  100   -6.4  0     0     1018.1   NA       0.0000   9999     0     0     0    
2019/07/11  04:53:00  BASE  0        90   0        M    -6.4  100   -6.4  0     0     1018.1   NA       0.0000   9999     0     0     0    
2019/07/11  04:54:00  BASE  0        51   0        M    -6.4  100   -6.4  0     0     1018.1   NA       0.0000   9999     0     0     0    
2019/07/11  04:55:00  BASE  0        29   0        M    -6.3  100   -6.3  0     0     1018.1   NA       0.0000   9999     0     0     0    
2019/07/11  04:56:00  BASE  0        30   0        M    -6.3  100   -6.3  0     0     1018.1   NA       0.0000   9999     0     0     0    
2019/07/11  04:57:00  BASE  0        31   0        M    -6.3  100   -6.3  0     0     1018.1   NA       0.0000   9999     0     0     0    
2019/07/11  04:58:00  BASE  0        31   0        M    -6.3  100   -6.3  0     0     1018.1   NA       0.0000   9999     0     0     0    
2019/07/11  04:59:00  BASE  0        30   0        M    -6.4  100   -6.4  0     0     1018.1   NA       0.0000   9999     0     0     0    
2019/07/11  05:00:00  BASE  0        29   0        M    -6.4  100   -6.4  0     0     1018.1   NA       0.0000   9999     0     0     0    
2019/07/11  05:01:00  BASE  0        27   0        M    -6.5  100   -6.5  0     0     1018.1   NA       0.0000   9999     0     0     0    
2019/07/11  05:02:00  BASE  0        20   0        M    -6.6  100   -6.6  0     0     1018.1   NA       0.0000   9999     0     0     0    
2019/07/11  05:03:00  BASE  0        18   0        M    -6.6  100   -6.6  0     0     1018.1   NA       0.0000   9999     0     0     0    
2019/07/11  05:04:00  BASE  0        21   0        M    -6.6  100   -6.6  0     0     1018.1   NA       0.0000   9999     0     0     0    
2019/07/11  05:05:00  BASE  0.02352  25   0.60564  25   -6.6  100   -6.6  0     0     1018.1   NA       0.0000   9999     0     0     0    
2019/07/11  05:06:00  BASE  0.09996  29   0.60564  30   -6.7  100   -6.7  0     0     1018.1   NA       0.0000   9999     0     0     0    
2019/07/11  05:07:00  BASE  0.15288  30   0.63504  27   -6.7  100   -6.7  0     0     1018.1   NA       0.0000   9999     0     0     0    
2019/07/11  05:08:00  BASE  0.07644  32   0.63504  27   -6.8  100   -6.8  0     0     1018.1   NA       0.0000   9999     0     0     0    
2019/07/11  05:09:00  BASE  0        37   0.63504  27   -6.8  100   -6.8  0     0     1018.1   NA       0.0000   9999     0     0     0    
2019/07/11  05:10:00  BASE  0.18228  39   0.63504  38   -6.9  100   -6.9  0     0     1018.1   NA       0.0000   9999     0     0     0    
2019/07/11  05:11:00  BASE  0.28224  36   0.63504  37   -6.9  100   -6.9  0     0     1018.1   NA       0.0000   9999     0     0     0    
2019/07/11  05:12:00  BASE  0.28812  36   0.66444  37   -7.0  100   -7.0  0     0     1018.0   NA       0.0000   9999     0     0     0    
2019/07/11  05:13:00  BASE  0.36456  36   0.66444  37   -7.0  100   -7.0  0     0     1017.9   NA       0.0000   9999     0     0     0    
2019/07/11  05:14:00  BASE  0.29988  35   0.66444  37   -7.1  100   -7.1  0     0     1017.9   NA       0.0000   9999     0     0     0    
2019/07/11  05:15:00  BASE  0.15288  29   0.66444  37   -7.1  100   -7.1  0     0     1018.0   NA       0.0000   9999     0     0     0    
2019/07/11  05:16:00  BASE  0.02352  20   0.66444  37   -7.1  100   -7.1  0     0     1018.1   NA       0.0000   9999     0     0     0    
2019/07/11  05:17:00  BASE  0.31164  9    0.66444  37   -7.1  100   -7.1  0     0     1018.1   NA       0.0000   9999     0     0     0    
2019/07/11  05:18:01  BASE  0.62328  4    0.66444  37   -7.1  100   -7.1  0     0     1018.1   NA       0.0000   9999     430   0     0    
2019/07/11  05:19:00  BASE  0.62916  3    0.66444  1    -7.1  100   -7.1  0     0     1018.1   NA       0.0000   9999     360   0     0    
2019/07/11  05:20:01  BASE  0.60564  0    0.69384  360  -7.1  100   -7.1  0     0     1018.1   NA       0.0000   9999     0     0     0    
2019/07/11  05:21:00  BASE  0.41748  359  0.69384  360  -7.1  100   -7.1  0     0     1018.1   NA       0.0000   9999     390   0     0    
2019/07/11  05:22:00  BASE  0.18228  356  0.69384  360  -7.0  100   -7.0  0     0     1018.1   NA       0.0000   9999     430   0     0    
2019/07/11  05:23:00  BASE  0.07644  4    0.69384  360  -7.0  100   -7.0  0     0     1018.1   NA       0.0000   9999     430   0     0    
2019/07/11  05:24:00  BASE  0.02352  17   0.69384  360  -7.0  100   -7.0  0     0     1018.0   NA       0.0000   9999     390   0     0    
2019/07/11  05:25:00  BASE  0.05292  22   0.69384  360  -7.0  100   -7.0  0     0     1018.0   NA       0.0000   9999     360   0     0    
2019/07/11  05:26:00  BASE  0.1764   18   0.69384  360  -7.0  100   -7.0  0     0     1018.0   NA       0.0000   9999     360   0     0    
2019/07/11  05:27:00  BASE  0.1764   17   0.69384  360  -7.0  100   -7.0  0     0     1018.1   NA       0.0000   9999     330   0     0    
2019/07/11  05:28:00  BASE  0.05292  17   0.69384  360  -7.0  100   -7.0  0     0     1018.1   NA       0.0000   9999     390   0     0    
2019/07/11  05:29:00  BASE  0        14   0.69384  360  -7.0  100   -7.0  0     0     1018.1   NA       0.0000   9999     360   0     0    
2019/07/11  05:30:00  BASE  0.05292  18   0.63504  12   -7.0  100   -7.0  0     0     1018.1   NA       0.0000   9999     430   0     0    
2019/07/11  05:31:00  BASE  0.07644  28   0.63504  12   -7.0  100   -7.0  0     0     1018.1   NA       0.0000   9999     430   0     0    
2019/07/11  05:32:00  BASE  0.15288  33   0.66444  25   -7.1  100   -7.1  0     0     1018.1   NA       0.0000   9999     460   0     0    
2019/07/11  05:33:00  BASE  0.2352   29   0.66444  25   -7.1  100   -7.1  0     0     1018.1   NA       0.0000   9999     360   0     0    
2019/07/11  05:34:00  BASE  0.24108  27   0.69384  24   -7.1  100   -7.1  0     0     1018.1   NA       0.0000   9999     330   0     0    
2019/07/11  05:35:00  BASE  0.27048  28   0.69384  24   -7.1  100   -7.1  0     0     1018.1   NA       0.0000   9999     330   0     0    
2019/07/11  05:36:00  BASE  0.13524  28   0.69384  24   -7.1  100   -7.1  0     0     1018.1   NA       0.0000   9999     300   0     0    
2019/07/11  05:37:00  BASE  0.05292  28   0.69384  24   -7.1  100   -7.1  0     0     1018.1   NA       0.0000   9999     330   0     0    
2019/07/11  05:38:00  BASE  0.05292  34   0.69384  24   -7.0  100   -7.0  0     0     1018.0   NA       0.0000   9999     430   0     0    
2019/07/11  05:39:00  BASE  0        37   0.69384  24   -7.0  100   -7.0  0     0     1018.0   NA       0.0000   9999     360   0     0    
2019/07/11  05:40:00  BASE  0.05292  32   0.69384  31   -7.0  100   -7.0  0     0     1018.1   NA       0.0000   9999     330   0     0    
2019/07/11  05:41:00  BASE  0.08232  32   0.69384  31   -6.9  100   -6.9  0     0     1018.1   NA       0.0000   9999     360   0     0    
2019/07/11  05:42:01  BASE  0.09996  17   0.69384  31   -6.9  100   -6.9  0     0     1018.1   NA       0.0000   9999     330   0     0    
2019/07/11  05:43:01  BASE  0.07644  11   0.69384  31   -6.9  100   -6.9  0     0     1018.1   NA       0.0000   9999     260   0     0    
2019/07/11  05:44:01  BASE  0        20   0.69384  31   -6.8  100   -6.8  0     0     1018.1   NA       0.0000   9999     330   0     0    
2019/07/11  05:45:01  BASE  0        22   0.69384  31   -6.8  100   -6.8  0     0     1018.2   NA       0.0000   9999     300   0     0    
2019/07/11  05:46:01  BASE  0        17   0.69384  31   -6.8  100   -6.8  0     0     1018.2   NA       0.0000   9999     360   0     0    
2019/07/11  05:47:01  BASE  0        352  0.69384  31   -6.7  100   -6.7  0     0     1018.2   NA       0.0000   9999     430   0     0    
2019/07/11  05:48:01  BASE  0.08232  338  0.69384  348  -6.6  100   -6.6  0     0     1018.2   NA       0.0000   9999     330   0     0    
2019/07/11  05:49:01  BASE  0.11172  329  0.69384  348  -6.5  100   -6.5  0     0     1018.2   NA       0.0000   9999     200   0     0    
2019/07/11  05:50:01  BASE  0.02352  340  0.69384  348  -6.4  100   -6.4  0     0     1018.2   NA       0.0000   9999     300   0     0    
2019/07/11  05:51:01  BASE  0.0294   352  0.69384  348  -6.4  100   -6.4  0     0     1018.2   NA       0.0000   9999     330   0     0    
2019/07/11  05:52:01  BASE  0.05292  350  0.69384  348  -6.4  100   -6.4  0     0     1018.2   NA       0.0000   9999     300   0     0    
2019/07/11  05:53:01  BASE  0.02352  1    0.69384  348  -6.4  100   -6.4  0     0     1018.3   NA       0.0000   9999     200   0     0    
2019/07/11  05:54:01  BASE  0        22   0.69384  348  -6.5  100   -6.5  0     0     1018.3   NA       0.0000   9999     260   0     0    
2019/07/11  05:55:01  BASE  0        43   0.69384  348  -6.5  100   -6.5  0     0     1018.2   NA       0.0000   9999     430   0     0    
2019/07/11  05:56:01  BASE  0        50   0.69384  348  -6.5  100   -6.5  0     0     1018.2   NA       0.0000   9999     490   0     0    
2019/07/11  05:57:01  BASE  0.07644  56   0.69384  348  -6.5  100   -6.5  0     0     1018.1   NA       0.0000   9999     430   0     0    
2019/07/11  05:58:01  BASE  0.43512  60   0.81732  59   -6.5  100   -6.5  0     0     1018.1   NA       0.0000   9999     0     0     0    
2019/07/11  05:59:01  BASE  0.59388  56   0.81732  59   -6.5  100   -6.5  0     0     1018.1   NA       0.0000   9999     0     0     0    
2019/07/11  06:00:01  BASE  0.62328  50   0.84672  46   -6.5  100   -6.5  0     0     1018.1   NA       0.0000   9999     0     0     0    
2019/07/11  06:01:00  BASE  0.78204  46   0.84672  46   -6.5  100   -6.5  0     0     1018.0   NA       0.0000   9999     0     0     0    
2019/07/11  06:02:00  BASE  0.77616  46   0.84672  46   -6.5  100   -6.5  0     0     1017.9   NA       0.0000   9999     0     0     0    
2019/07/11  06:03:00  BASE  0.72912  48   0.84672  46   -6.6  100   -6.6  0     0     1017.9   NA       0.0000   9999     460   0     0    
2019/07/11  06:04:01  BASE  0.51156  48   0.84672  46   -6.6  100   -6.6  0     0     1017.9   NA       0.0000   9999     0     0     0    
2019/07/11  06:05:00  BASE  0.16464  49   0.84672  46   -6.6  100   -6.6  0     0     1017.9   NA       0.0000   9999     0     0     0    
2019/07/11  06:06:01  BASE  0.0294   56   0.84672  46   -6.6  100   -6.6  0     0     1017.9   NA       0.0000   9999     0     0     0    
2019/07/11  06:07:00  BASE  0.0294   61   0.84672  46   -6.6  100   -6.6  0     0     1017.9   NA       0.0000   9999     0     0     0    
2019/07/11  06:08:01  BASE  0        62   0.84672  46   -6.6  100   -6.6  0     0     1017.9   NA       0.0000   9999     0     0     0    
2019/07/11  06:09:00  BASE  0        61   0.84672  46   -6.6  100   -6.6  0     0     1017.9   NA       0.0000   9999     490   0     0    
2019/07/11  06:10:01  BASE  0        54   0.81732  46   -6.6  100   -6.6  0     0     1017.9   NA       0.0000   9999     460   0     0    
2019/07/11  06:11:00  BASE  0        49   0.81732  46   -6.6  100   -6.6  0     0     1017.9   NA       0.0000   9999     430   0     0    
2019/07/11  06:12:00  BASE  0        51   0.72324  48   -6.6  100   -6.6  0     0     1017.9   NA       0.0000   9999     390   0     0    
2019/07/11  06:13:00  BASE  0        51   0.66444  52   -6.6  100   -6.6  0     0     1017.9   NA       0.0000   9999     360   0     0    
2019/07/11  06:14:01  BASE  0        42   0.63504  62   -6.6  100   -6.6  0     0     1017.9   NA       0.0000   9999     260   0     0    
2019/07/11  06:15:00  BASE  0        37   0.63504  62   -6.7  100   -6.7  0     0     1017.9   NA       0.0000   9999     300   0     0    
2019/07/11  06:16:00  BASE  0        34   0        M    -6.7  100   -6.7  0     0     1017.9   NA       0.0000   9999     330   0     0    
2019/07/11  06:17:00  BASE  0        28   0        M    -6.7  100   -6.7  0     0     1017.8   NA       0.0000   9999     300   0     0    
2019/07/11  06:18:00  BASE  0        28   0        M    -6.8  100   -6.8  0     0     1017.8   NA       0.0000   9999     0     0     0    
2019/07/11  06:19:00  BASE  0        32   0        M    -6.8  100   -6.8  0     0     1017.8   NA       0.0000   9999     0     0     0    
2019/07/11  06:20:00  BASE  0.12936  41   0.63504  44   -6.8  100   -6.8  0     0     1017.8   NA       0.0000   9999     0     0     0    
2019/07/11  06:21:01  BASE  0.44688  44   0.69384  39   -6.9  100   -6.9  0     0     1017.8   NA       0.0000   9999     0     0     0    
2019/07/11  06:22:00  BASE  0.64092  45   0.69384  39   -6.9  100   -6.9  0     0     1017.8   NA       0.0000   9999     0     0     0    
2019/07/11  06:23:00  BASE  0.588    46   0.69384  41   -7.0  100   -7.0  0     0     1017.8   NA       0.0000   9999     0     0     0    
2019/07/11  06:24:01  BASE  0.27048  46   0.69384  41   -7.1  100   -7.1  0     0     1017.8   NA       0.0000   9999     0     0     0    
2019/07/11  06:25:00  BASE  0        45   0.69384  41   -7.1  100   -7.1  0     0     1017.8   NA       0.0000   9999     0     0     0    
2019/07/11  06:26:00  BASE  0        47   0.69384  41   -7.1  100   -7.1  0     0     1017.8   NA       0.0000   9999     0     0     0    
2019/07/11  06:27:00  BASE  0        48   0.69384  41   -7.1  100   -7.1  0     0     1017.8   NA       0.0000   9999     0     0     0    
2019/07/11  06:28:00  BASE  0        49   0.69384  41   -7.0  100   -7.0  0     0     1017.8   NA       0.0000   9999     0     0     0    
2019/07/11  06:29:00  BASE  0.05292  54   0.69384  41   -7.0  100   -7.0  0     0     1017.8   NA       0.0000   9999     0     0     0    
2019/07/11  06:30:00  BASE  0.07644  53   0.69384  41   -7.0  100   -7.0  0     0     1017.8   NA       0.0000   9999     0     0     0    
2019/07/11  06:31:00  BASE  0.02352  48   0.69384  41   -7.0  100   -7.0  0     0     1017.8   NA       0.0000   9999     0     0     0    
2019/07/11  06:32:00  BASE  0        47   0.69384  41   -6.9  100   -6.9  0     0     1017.7   NA       0.0000   9999     0     0     0    
2019/07/11  06:33:00  BASE  0        46   0.60564  51   -6.9  100   -6.9  0     0     1017.7   NA       0.0000   9999     0     0     0    
2019/07/11  06:34:00  BASE  0        44   0.60564  51   -6.9  100   -6.9  0     0     1017.7   NA       0.0000   9999     0     0     0    
2019/07/11  06:35:00  BASE  0.09996  41   0.63504  38   -6.9  100   -6.9  0     0     1017.7   NA       0.0000   9999     0     0     0    
2019/07/11  06:36:00  BASE  0.25872  38   0.63504  37   -6.8  100   -6.8  0     0     1017.7   NA       0.0000   9999     0     0     0    
2019/07/11  06:37:00  BASE  0.2058   37   0.63504  37   -6.8  100   -6.8  0     0     1017.7   NA       0.0000   9999     0     0     0    
2019/07/11  06:38:00  BASE  0.09996  36   0.63504  37   -6.8  100   -6.8  0     0     1017.7   NA       0.0000   9999     0     0     0    
2019/07/11  06:39:00  BASE  0.05292  35   0.63504  37   -6.8  100   -6.8  0     0     1017.7   NA       0.0000   9999     0     0     0    
2019/07/11  06:40:00  BASE  0        37   0.63504  37   -6.9  100   -6.9  0     0     1017.7   NA       0.0000   9999     0     0     0    
2019/07/11  06:41:00  BASE  0        43   0.63504  37   -6.9  100   -6.9  0     0     1017.7   NA       0.0000   9999     0     0     0    
2019/07/11  06:42:00  BASE  0        46   0.63504  37   -6.9  100   -6.9  0     0     1017.7   NA       0.0000   9999     0     0     0    
2019/07/11  06:43:00  BASE  0        45   0.63504  37   -6.8  100   -6.8  0     0     1017.7   NA       0.0000   9999     0     0     0    
2019/07/11  06:44:01  BASE  0        44   0.63504  37   -6.8  100   -6.8  0     0     1017.7   NA       0.0000   9999     0     0     0    
2019/07/11  06:45:00  BASE  0        36   0.63504  37   -6.8  100   -6.8  0     0     1017.7   NA       0.0000   9999     0     0     0    
2019/07/11  06:46:01  BASE  0        25   0.60564  28   -6.8  100   -6.8  0     0     1017.7   NA       0.0000   9999     0     0     0    
2019/07/11  06:47:00  BASE  0        18   0.60564  28   -6.8  100   -6.8  0     0     1017.8   NA       0.0000   9999     0     0     0    
2019/07/11  06:48:00  BASE  0        20   0        M    -6.8  100   -6.8  0     0     1017.8   NA       0.0000   9999     0     0     0    
2019/07/11  06:49:01  BASE  0        25   0        M    -6.8  100   -6.8  0     0     1017.8   NA       0.0000   9999     0     0     0    
2019/07/11  06:50:01  BASE  0        29   0        M    -6.8  100   -6.8  0     0     1017.8   NA       0.0000   9999     0     0     0    
2019/07/11  06:51:00  BASE  0        30   0        M    -6.8  100   -6.8  0     0     1017.8   NA       0.0000   9999     0     0     0    
2019/07/11  06:52:00  BASE  0        22   0        M    -6.8  100   -6.8  0     0     1017.8   NA       0.0000   9999     0     0     0    
2019/07/11  06:53:00  BASE  0        4    0        M    -6.8  100   -6.8  0     0     1017.8   NA       0.0000   9999     0     0     0    
2019/07/11  06:54:00  BASE  0        357  0        M    -6.8  100   -6.8  0     0     1017.8   NA       0.0000   9999     0     0     0    
2019/07/11  06:55:00  BASE  0        7    0        M    -6.8  100   -6.8  0     0     1017.8   NA       0.0000   9999     0     0     0    
2019/07/11  06:56:00  BASE  0        16   0        M    -6.8  100   -6.8  0     0     1017.8   NA       0.0000   9999     0     0     0    
2019/07/11  06:57:00  BASE  0        19   0        M    -6.8  100   -6.8  0     0     1017.8   NA       0.0000   9999     0     0     0    
2019/07/11  06:58:00  BASE  0        23   0        M    -6.9  100   -6.9  0     0     1017.8   NA       0.0000   9999     0     0     0    
2019/07/11  06:59:00  BASE  0        27   0        M    -6.9  100   -6.9  0     0     1017.8   NA       0.0000   9999     0     0     0    
2019/07/11  07:00:00  BASE  0        27   0        M    -6.9  100   -6.9  0     0     1017.8   NA       0.0000   9999     0     0     0    
2019/07/11  07:01:00  BASE  0        31   0        M    -6.9  100   -6.9  0     0     1017.8   NA       0.0000   9999     0     0     0    
2019/07/11  07:02:00  BASE  0.05292  36   0.63504  38   -7.0  100   -7.0  0     0     1017.8   NA       0.0000   9999     0     0     0    
2019/07/11  07:03:00  BASE  0.07644  40   0.63504  38   -7.0  100   -7.0  0     0     1017.8   NA       0.0000   9999     0     0     0    
2019/07/11  07:04:00  BASE  0.2646   45   0.69384  47   -7.0  100   -7.0  0     0     1017.8   NA       0.0000   9999     0     0     0    
2019/07/11  07:05:00  BASE  0.58212  51   0.69384  53   -7.0  100   -7.0  0     0     1017.8   NA       0.0000   9999     0     0     0    
2019/07/11  07:06:00  BASE  0.67032  53   0.69384  55   -7.0  100   -7.0  0     0     1017.8   NA       0.0000   9999     0     0     0    
2019/07/11  07:07:00  BASE  0.6174   51   0.69384  51   -7.0  100   -7.0  0     0     1017.8   NA       0.0000   9999     0     0     0    
2019/07/11  07:08:00  BASE  0.42336  50   0.69384  51   -6.9  100   -6.9  0     0     1017.8   NA       0.0000   9999     0     0     0    
2019/07/11  07:09:00  BASE  0.15288  47   0.69384  51   -6.9  100   -6.9  0     0     1017.9   NA       0.0000   9999     0     0     0    
2019/07/11  07:10:00  BASE  0.22932  47   0.69384  51   -6.9  100   -6.9  0     0     1017.9   NA       0.0000   9999     0     0     0    
2019/07/11  07:11:00  BASE  0.40572  50   0.69384  51   -6.9  100   -6.9  0     0     1017.8   NA       0.0000   9999     0     0     0    
2019/07/11  07:12:00  BASE  0.46452  52   0.69384  51   -7.0  100   -7.0  0     0     1017.8   NA       0.0000   9999     0     0     0    
2019/07/11  07:13:00  BASE  0.33516  54   0.69384  51   -7.0  100   -7.0  0     0     1017.8   NA       0.0000   9999     0     0     0    
2019/07/11  07:14:00  BASE  0.12936  56   0.69384  51   -7.0  100   -7.0  0     0     1017.8   NA       0.0000   9999     0     0     0    
2019/07/11  07:15:00  BASE  0.05292  56   0.69384  51   -7.0  100   -7.0  0     0     1017.8   NA       0.0000   9999     0     0     0    
2019/07/11  07:16:00  BASE  0        54   0.69384  51   -7.0  100   -7.0  0     0     1017.8   NA       0.0000   9999     0     0     0    
2019/07/11  07:17:00  BASE  0        50   0.63504  58   -7.0  100   -7.0  0     0     1017.8   NA       0.0000   9999     0     0     0    
2019/07/11  07:18:00  BASE  0        46   0.63504  58   -7.0  100   -7.0  0     0     1017.8   NA       0.0000   9999     0     0     0    
2019/07/11  07:19:00  BASE  0        49   0.63504  58   -7.0  100   -7.0  0     0     1017.8   NA       0.0000   9999     0     0     0    
2019/07/11  07:20:00  BASE  0        56   0.63504  58   -7.0  100   -7.0  0     0     1017.8   NA       0.0000   9999     0     0     0    
2019/07/11  07:21:00  BASE  0        62   0.63504  58   -7.0  100   -7.0  0     0     1017.8   NA       0.0000   9999     0     0     0    
2019/07/11  07:22:00  BASE  0        66   0.63504  58   -6.9  100   -6.9  0     0     1017.9   NA       0.0000   9999     0     0     0    
2019/07/11  07:23:00  BASE  0        62   0.63504  58   -6.9  100   -6.9  0     0     1017.9   NA       0.0000   9999     0     0     0    
2019/07/11  07:24:00  BASE  0        53   0        M    -6.8  100   -6.8  0     0     1017.9   NA       0.0000   9999     0     0     0    
2019/07/11  07:25:00  BASE  0        32   0        M    -6.8  100   -6.8  0     0     1017.9   NA       0.0000   9999     0     0     0    
2019/07/11  07:26:00  BASE  0        12   0        M    -6.8  100   -6.8  0     0     1017.9   NA       0.0000   9999     0     0     0    
2019/07/11  07:27:00  BASE  0        349  0        M    -6.7  100   -6.7  0     0     1017.9   NA       0.0000   9999     0     0     0    
2019/07/11  07:28:00  BASE  0        339  0        M    -6.7  100   -6.7  0     0     1017.9   NA       0.0000   9999     0     0     0    
2019/07/11  07:29:00  BASE  0        354  0        M    -6.7  100   -6.7  0     0     1017.9   NA       0.0000   9999     0     0     0    
2019/07/11  07:30:00  BASE  0        358  0        M    -6.7  100   -6.7  0     0     1017.9   NA       0.0000   9999     0     0     0    
2019/07/11  07:31:00  BASE  0        354  0        M    -6.7  100   -6.7  0     0     1017.9   NA       0.0000   9999     0     0     0    
2019/07/11  07:32:00  BASE  0        352  0        M    -6.7  100   -6.7  0     0     1017.9   NA       0.0000   9999     0     0     0    
2019/07/11  07:33:00  BASE  0        354  0        M    -6.7  100   -6.7  0     0     1017.9   NA       0.0000   9999     0     0     0    
2019/07/11  07:34:00  BASE  0        360  0        M    -6.8  100   -6.8  0     0     1017.9   NA       0.0000   9999     0     0     0    
2019/07/11  07:35:00  BASE  0        7    0        M    -6.8  100   -6.8  0     0     1017.9   NA       0.0000   9999     0     0     0    
2019/07/11  07:36:00  BASE  0        8    0        M    -6.8  100   -6.8  0     0     1017.9   NA       0.0000   9999     0     0     0    
2019/07/11  07:37:00  BASE  0        7    0        M    -6.8  100   -6.8  0     0     1017.9   NA       0.0000   9999     0     0     0    
2019/07/11  07:38:00  BASE  0        11   0        M    -6.8  100   -6.8  0     0     1017.9   NA       0.0000   9999     0     0     0    
2019/07/11  07:39:00  BASE  0        21   0        M    -6.9  100   -6.9  0     0     1017.9   NA       0.0000   9999     0     0     0    
2019/07/11  07:40:00  BASE  0        31   0        M    -7.0  100   -7.0  0     0     1017.9   NA       0.0000   9999     0     0     0    
2019/07/11  07:41:00  BASE  0.02352  34   0.60564  29   -7.0  100   -7.0  0     0     1017.9   NA       0.0000   9999     0     0     0    
2019/07/11  07:42:00  BASE  0.02352  32   0.60564  29   -7.1  100   -7.1  0     0     1017.9   NA       0.0000   9999     0     0     0    
2019/07/11  07:43:00  BASE  0        35   0.60564  29   -7.1  100   -7.1  0     0     1017.9   NA       0.0000   9999     0     0     0    
2019/07/11  07:44:00  BASE  0.07644  37   0.63504  36   -7.1  100   -7.1  0     0     1017.9   NA       0.0000   9999     0     0     0    
2019/07/11  07:45:00  BASE  0.07644  33   0.63504  36   -7.1  100   -7.1  0     0     1018.0   NA       0.0000   9999     0     0     0    
2019/07/11  07:46:00  BASE  0        29   0.63504  36   -7.1  100   -7.1  0     0     1018.0   NA       0.0000   9999     0     0     0    
2019/07/11  07:47:00  BASE  0.02352  26   0.63504  36   -7.1  100   -7.1  0     0     1017.9   NA       0.0000   9999     0     0     0    
2019/07/11  07:48:00  BASE  0.02352  22   0.63504  36   -7.1  100   -7.1  0     0     1018.0   NA       0.0000   9999     0     0     0    
2019/07/11  07:49:00  BASE  0.0294   18   0.63504  21   -7.1  100   -7.1  0     0     1018.1   NA       0.0000   9999     0     0     0    
2019/07/11  07:50:00  BASE  0.10584  13   0.63504  360  -7.1  100   -7.1  0     0     1018.1   NA       0.0000   9999     0     0     0    
2019/07/11  07:51:00  BASE  0.10584  9    0.63504  360  -7.1  100   -7.1  0     0     1018.1   NA       0.0000   9999     0     0     0    
2019/07/11  07:52:00  BASE  0.22344  6    0.75852  360  -7.1  100   -7.1  0     0     1018.1   NA       0.0000   9999     0     0     0    
2019/07/11  07:53:01  BASE  0.19404  6    0.75852  360  -7.1  100   -7.1  0     0     1018.1   NA       0.0000   9999     0     0     0    
2019/07/11  07:54:01  BASE  0        12   0.75852  360  -7.1  100   -7.1  0     0     1018.1   NA       0.0000   9999     0     0     0    
2019/07/11  07:55:00  BASE  0.05292  19   0.75852  360  -7.1  100   -7.1  0     0     1018.1   NA       0.0000   9999     0     0     0    
2019/07/11  07:56:00  BASE  0.05292  22   0.75852  360  -7.1  100   -7.1  0     0     1018.1   NA       0.0000   9999     0     0     0    
2019/07/11  07:57:00  BASE  0        20   0.75852  360  -7.1  100   -7.1  0     0     1018.1   NA       0.0000   9999     0     0     0    
2019/07/11  07:58:01  BASE  0        20   0.75852  360  -7.1  100   -7.1  0     0     1018.1   NA       0.0000   9999     0     0     0    
2019/07/11  07:59:00  BASE  0        15   0.75852  360  -7.1  100   -7.1  0     0     1018.1   NA       0.0000   9999     0     0     0    
2019/07/11  08:00:01  BASE  0        16   0.75852  360  -7.1  100   -7.1  0     0     1018.1   NA       0.0000   9999     0     0     0    
2019/07/11  08:01:00  BASE  0        26   0.75852  360  -7.1  100   -7.1  0     0     1018.1   NA       0.0000   9999     0     0     0    
2019/07/11  08:02:00  BASE  0.10584  33   0.66444  42   -7.1  100   -7.1  0     0     1018.0   NA       0.0000   9999     0     0     0    
2019/07/11  08:03:00  BASE  0.15288  33   0.66444  42   -7.1  100   -7.1  0     0     1017.9   NA       0.0000   9999     0     0     0    
2019/07/11  08:04:00  BASE  0.18816  29   0.72324  14   -7.0  100   -7.0  0     0     1017.9   NA       0.0000   9999     0     0     0    
2019/07/11  08:05:00  BASE  0.4116   31   0.72324  14   -7.0  100   -7.0  0     0     1017.9   NA       0.0000   9999     0     0     0    
2019/07/11  08:06:00  BASE  0.5586   36   0.75852  35   -7.0  100   -7.0  0     0     1017.9   NA       0.0000   9999     0     0     0    
2019/07/11  08:07:00  BASE  0.65856  33   0.81732  28   -7.0  100   -7.0  0     0     1017.9   NA       0.0000   9999     0     0     0    
2019/07/11  08:08:00  BASE  0.77028  31   0.87612  28   -7.1  100   -7.1  0     0     1017.9   NA       0.0000   9999     0     0     0    
2019/07/11  08:09:00  BASE  0.77028  32   0.87612  28   -7.2  100   -7.2  0     0     1017.9   NA       0.0000   9999     0     0     0    
2019/07/11  08:10:00  BASE  0.74676  33   0.87612  28   -7.2  100   -7.2  0     0     1017.9   NA       0.0000   9999     0     0     0    
2019/07/11  08:11:05  BASE  0.71148  34   0.87612  28   -7.3  100   -7.3  0     0     1018.0   NA       0.0000   9999     0     0     0    
2019/07/11  08:12:00  BASE  0.7056   36   0.87612  28   -7.3  100   -7.3  0     0     1017.9   NA       0.0000   9999     0     0     0    
2019/07/11  08:13:00  BASE  0.7056   33   0.87612  28   -7.2  100   -7.2  0     0     1017.9   NA       0.0000   9999     0     0     0    
2019/07/11  08:14:00  BASE  0.67032  28   0.87612  28   -7.2  100   -7.2  0     0     1017.9   NA       0.0000   9999     0     0     0    
2019/07/11  08:15:00  BASE  0.66444  27   0.87612  28   -7.1  100   -7.1  0     0     1017.9   NA       0.0000   9999     0     0     0    
2019/07/11  08:16:00  BASE  0.68208  28   0.87612  28   -7.1  100   -7.1  0     0     1017.9   NA       0.0000   9999     0     0     0    
2019/07/11  08:17:00  BASE  0.68796  31   0.87612  28   -7.1  100   -7.1  0     0     1017.9   NA       0.0000   9999     0     0     0    
2019/07/11  08:18:00  BASE  0.69972  28   0.84672  37   -7.2  100   -7.2  0     0     1017.9   NA       0.0000   9999     0     0     0    
2019/07/11  08:19:00  BASE  0.68208  23   0.84672  37   -7.2  100   -7.2  0     0     1017.9   NA       0.0000   9999     0     0     0    
2019/07/11  08:20:00  BASE  0.69384  19   0.84672  17   -7.2  100   -7.2  0     0     1017.9   NA       0.0000   9999     0     0     0    
2019/07/11  08:21:00  BASE  0.72324  16   0.84672  17   -7.2  100   -7.2  0     0     1017.9   NA       0.0000   9999     0     0     0    
2019/07/11  08:22:00  BASE  0.8232   11   1.029    8    -7.2  100   -7.2  0     0     1017.9   NA       0.0000   9999     0     0     0    
2019/07/11  08:23:00  BASE  0.92316  15   1.0878   24   -7.2  100   -7.2  0     0     1017.8   NA       0.0000   9999     0     0     0    
2019/07/11  08:24:00  BASE  0.89964  25   1.0878   24   -7.1  100   -7.1  0     0     1017.8   NA       0.0000   9999     0     0     0    
2019/07/11  08:25:00  BASE  0.89964  28   1.1172   33   -7.1  100   -7.1  0     0     1017.8   NA       0.0000   9999     0     0     0    
2019/07/11  08:26:00  BASE  0.92904  25   1.1172   33   -7.1  100   -7.1  0     0     1017.8   NA       0.0000   9999     0     0     0    
2019/07/11  08:27:00  BASE  0.95256  24   1.1172   33   -7.0  100   -7.0  0     0     1017.8   NA       0.0000   9999     0     0     0    
2019/07/11  08:28:01  BASE  0.92316  20   1.1172   33   -6.9  100   -6.9  0     0     1017.8   NA       0.0000   9999     0     0     0    
2019/07/11  08:29:00  BASE  0.88788  24   1.1172   33   -6.8  100   -6.8  0     0     1017.8   NA       0.0000   9999     0     0     0    
2019/07/11  08:30:00  BASE  0.92904  42   1.1466   48   -6.8  100   -6.8  0     0     1017.8   NA       0.0000   9999     0     0     0    
2019/07/11  08:31:00  BASE  1.00548  51   1.29948  49   -6.8  100   -6.8  0     0     1017.8   NA       0.0000   9999     0     0     0    
2019/07/11  08:32:00  BASE  0.95256  49   1.29948  49   -6.8  100   -6.8  0     0     1017.8   NA       0.0000   9999     0     0     0    
2019/07/11  08:33:00  BASE  0.87024  49   1.29948  49   -6.8  100   -6.8  0     0     1017.8   NA       0.0000   9999     0     0     0    
2019/07/11  08:34:00  BASE  0.8526   50   1.29948  49   -6.8  100   -6.8  0     0     1017.8   NA       0.0000   9999     0     0     0    
2019/07/11  08:35:00  BASE  0.8232   49   1.29948  49   -6.7  100   -6.7  0     0     1017.8   NA       0.0000   9999     0     0     0    
2019/07/11  08:36:00  BASE  0.81144  49   1.29948  49   -6.6  100   -6.6  0     0     1017.8   NA       0.0000   9999     0     0     0    
2019/07/11  08:37:00  BASE  0.78204  47   1.29948  49   -6.5  100   -6.5  0     0     1017.8   NA       0.0000   9999     0     0     0    
2019/07/11  08:38:00  BASE  0.72912  42   1.29948  49   -6.5  100   -6.5  0     0     1017.8   NA       0.0000   9999     0     0     0    
2019/07/11  08:39:00  BASE  0.62916  47   1.29948  49   -6.4  100   -6.4  0     0     1017.8   NA       0.0000   9999     0     0     0    
2019/07/11  08:40:00  BASE  0.59388  52   1.29948  49   -6.3  100   -6.3  0     0     1017.8   NA       0.0000   9999     0     0     0    
2019/07/11  08:41:00  BASE  0.65268  54   1.029    44   -6.2  100   -6.2  0     0     1017.8   NA       0.0000   9999     0     0     0    
2019/07/11  08:42:00  BASE  0.71148  57   0.90552  42   -6.2  100   -6.2  0     0     1017.8   NA       0.0000   9999     0     0     0    
2019/07/11  08:43:00  BASE  0.57624  52   0.90552  42   -6.1  100   -6.1  0     0     1017.8   NA       0.0000   9999     0     0     0    
2019/07/11  08:44:00  BASE  0.27636  43   0.90552  42   -6.0  100   -6.0  0     0     1017.8   NA       0.0000   9999     0     0     0    
2019/07/11  08:45:00  BASE  0.07644  39   0.87612  56   -6.0  100   -6.0  0     0     1017.8   NA       0.0000   9999     0     0     0    
2019/07/11  08:46:00  BASE  0.07644  46   0.84672  57   -5.9  100   -5.9  0     0     1017.8   NA       0.0000   9999     0     0     0    
2019/07/11  08:47:00  BASE  0.10584  51   0.84672  57   -5.9  100   -5.9  0     0     1017.8   NA       0.0000   9999     0     0     0    
2019/07/11  08:48:00  BASE  0.0294   42   0.84672  57   -5.9  100   -5.9  0     0     1017.8   NA       0.0000   9999     0     0     0    
2019/07/11  08:49:00  BASE  0        33   0.84672  57   -5.9  100   -5.9  0     0     1017.8   NA       0.0000   9999     0     0     0    
2019/07/11  08:50:00  BASE  0        37   0.84672  57   -5.9  100   -5.9  0     0     1017.8   NA       0.0000   9999     0     0     0    
2019/07/11  08:51:00  BASE  0.02352  44   0.84672  57   -5.9  100   -5.9  0     0     1017.8   NA       0.0000   9999     0     0     0    
2019/07/11  08:52:00  BASE  0.02352  48   0.72324  55   -5.9  100   -5.9  0     0     1017.8   NA       0.0000   9999     0     0     0    
2019/07/11  08:53:00  BASE  0        52   0.66444  54   -5.9  100   -5.9  0     0     1017.8   NA       0.0000   9999     0     0     0    
2019/07/11  08:54:00  BASE  0        54   0.66444  54   -5.9  100   -5.9  0     0     1017.8   NA       0.0000   9999     0     0     0    
2019/07/11  08:55:00  BASE  0        50   0.66444  54   -5.9  100   -5.9  0     0     1017.8   NA       0.0000   9999     0     0     0    
2019/07/11  08:56:01  BASE  0        56   0.66444  54   -5.9  100   -5.9  0     0     1017.7   NA       0.0000   9999     0     0     0    
2019/07/11  08:57:00  BASE  0        68   0.60564  45   -5.9  100   -5.9  0     0     1017.7   NA       0.0000   9999     0     0     0    
2019/07/11  08:58:00  BASE  0        75   0.60564  45   -5.9  100   -5.9  0     0     1017.7   NA       0.0000   9999     0     0     0    
2019/07/11  08:59:00  BASE  0        81   0.60564  45   -5.9  100   -5.9  0     0     1017.7   NA       0.0000   9999     0     0     0    
2019/07/11  09:00:01  BASE  0        99   0.60564  45   -6.0  100   -6.0  0     0     1017.7   NA       0.0000   9999     0     0     0    
2019/07/11  09:01:00  BASE  0        120  0        M    -6.0  100   -6.0  0     0     1017.7   NA       0.0000   9999     0     0     0    
2019/07/11  09:02:00  BASE  0        133  0        M    -6.0  100   -6.0  0     0     1017.7   NA       0.0000   9999     0     0     0    
2019/07/11  09:03:00  BASE  0        139  0        M    -6.0  100   -6.0  0     0     1017.7   NA       0.0000   9999     0     0     0    
2019/07/11  09:04:00  BASE  0.07644  145  0.69384  147  -6.1  100   -6.1  0     0     1017.7   NA       0.0000   9999     0     0     0    
2019/07/11  09:05:00  BASE  0.13524  153  0.69384  147  -6.0  100   -6.0  0     0     1017.7   NA       0.0000   9999     0     0     0    
2019/07/11  09:06:00  BASE  0.2058   153  0.69384  147  -5.9  100   -5.9  0     0     1017.6   NA       0.0000   9999     0     0     0    
2019/07/11  09:07:00  BASE  0.441    156  0.75852  162  -5.9  100   -5.9  0     0     1017.7   NA       0.0000   9999     0     0     0    
2019/07/11  09:08:00  BASE  0.64092  161  0.75852  163  -5.9  100   -5.9  0     0     1017.7   NA       0.0000   9999     0     0     0    
2019/07/11  09:09:00  BASE  0.72324  161  0.84672  162  -6.0  100   -6.0  0     0     1017.7   NA       0.0000   9999     0     0     0    
2019/07/11  09:10:00  BASE  0.71148  161  0.84672  162  -6.1  100   -6.1  0     0     1017.7   NA       0.0000   9999     0     0     0    
2019/07/11  09:11:00  BASE  0.39396  165  0.84672  162  -6.1  100   -6.1  0     0     1017.7   NA       0.0000   9999     0     0     0    
2019/07/11  09:12:00  BASE  0.05292  170  0.84672  162  -6.2  100   -6.2  0     0     1017.7   NA       0.0000   9999     0     0     0    
2019/07/11  09:13:01  BASE  0        177  0.84672  162  -6.2  100   -6.2  0     0     1017.7   NA       0.0000   9999     0     0     0    
2019/07/11  09:14:00  BASE  0        184  0.84672  162  -6.2  100   -6.2  0     0     1017.6   NA       0.0000   9999     0     0     0    
2019/07/11  09:15:00  BASE  0        184  0.84672  162  -6.1  100   -6.1  0     0     1017.6   NA       0.0000   9999     0     0     0    
2019/07/11  09:16:00  BASE  0        183  0.84672  162  -6.1  100   -6.1  0     0     1017.6   NA       0.0000   9999     0     0     0    
2019/07/11  09:17:00  BASE  0        185  0.84672  162  -6.2  100   -6.2  0     0     1017.6   NA       0.0000   9999     0     0     0    
2019/07/11  09:18:00  BASE  0        190  0.84672  162  -6.2  100   -6.2  0     0     1017.6   NA       0.0000   9999     0     0     0    
2019/07/11  09:19:00  BASE  0        194  0.75852  156  -6.2  100   -6.2  0     0     1017.6   NA       0.0000   9999     0     0     0    
2019/07/11  09:20:00  BASE  0        203  0.66444  168  -6.2  100   -6.2  0     0     1017.6   NA       0.0000   9999     0     0     0    
2019/07/11  09:21:00  BASE  0        210  0        M    -6.2  100   -6.3  0     0     1017.6   NA       0.0000   9999     0     0     0    
2019/07/11  09:22:00  BASE  0        214  0        M    -6.3  100   -6.3  0     0     1017.6   NA       0.0000   9999     0     0     0    
2019/07/11  09:23:00  BASE  0        218  0        M    -6.3  100   -6.3  0     0     1017.6   NA       0.0000   9999     0     0     0    
2019/07/11  09:24:00  BASE  0        222  0        M    -6.3  100   -6.3  0     0     1017.5   NA       0.0000   9999     0     0     0    
2019/07/11  09:25:00  BASE  0        228  0        M    -6.2  100   -6.2  0     0     1017.5   NA       0.0000   9999     0     0     0    
2019/07/11  09:26:00  BASE  0        231  0        M    -6.2  100   -6.2  0     0     1017.5   NA       0.0000   9999     0     0     0    
2019/07/11  09:27:00  BASE  0        228  0        M    -6.2  100   -6.2  0     0     1017.5   NA       0.0000   9999     0     0     0    
2019/07/11  09:28:00  BASE  0        225  0        M    -6.2  100   -6.2  0     0     1017.6   NA       0.0000   9999     0     0     0    
2019/07/11  09:29:00  BASE  0        226  0        M    -6.2  100   -6.2  0     0     1017.6   NA       0.0000   9999     0     0     0    
2019/07/11  09:30:00  BASE  0        233  0        M    -6.2  100   -6.2  0     0     1017.6   NA       0.0000   9999     0     0     0    
2019/07/11  09:31:00  BASE  0        242  0        M    -6.2  100   -6.2  0     0     1017.6   NA       0.0000   9999     0     0     0    
2019/07/11  09:32:00  BASE  0        244  0        M    -6.1  100   -6.1  0     0     1017.6   NA       0.0000   9999     0     0     0    
2019/07/11  09:33:01  BASE  0        244  0        M    -6.0  100   -6.0  0     0     1017.6   NA       0.0000   9999     0     0     0    
2019/07/11  09:34:00  BASE  0        245  0        M    -5.9  100   -5.9  0     0     1017.6   NA       0.0000   9999     0     0     0    
2019/07/11  09:35:00  BASE  0        245  0        M    -5.9  100   -5.9  0     0     1017.5   NA       0.0000   9999     0     0     0    
2019/07/11  09:36:00  BASE  0        261  0        M    -5.8  100   -5.8  0     0     1017.5   NA       0.0000   9999     0     0     0    
2019/07/11  09:37:00  BASE  0        42   0        M    -5.9  100   -5.9  0     0     1017.5   NA       0.0000   9999     0     0     0    
2019/07/11  09:38:00  BASE  0        29   0        M    -6.0  100   -6.0  0     0     1017.5   NA       0.0000   9999     0     0     0    
2019/07/11  09:39:00  BASE  0        21   0        M    -6.1  100   -6.1  0     0     1017.5   NA       0.0000   9999     0     0     0    
2019/07/11  09:40:00  BASE  0        27   0        M    -6.2  100   -6.2  0     0     1017.5   NA       0.0000   9999     0     0     0    
2019/07/11  09:41:00  BASE  0        26   0        M    -6.3  100   -6.3  0     0     1017.5   NA       0.0000   9999     0     0     0    
2019/07/11  09:42:00  BASE  0        24   0        M    -6.4  100   -6.4  0     0     1017.5   NA       0.0000   9999     390   0     0    
2019/07/11  09:43:00  BASE  0        28   0        M    -6.4  100   -6.4  0     0     1017.5   NA       0.0000   9999     300   0     0    
2019/07/11  09:44:00  BASE  0        31   0        M    -6.4  100   -6.4  0     0     1017.4   NA       0.0000   9999     300   0     0    
2019/07/11  09:45:00  BASE  0        38   0        M    -6.4  100   -6.4  0     0     1017.3   NA       0.0000   9999     260   0     0    
2019/07/11  09:46:00  BASE  0.27048  43   0.72324  39   -6.4  100   -6.4  0     0     1017.3   NA       0.0000   9999     330   0     0    
2019/07/11  09:47:00  BASE  0.32928  40   0.72324  39   -6.5  100   -6.5  0     0     1017.3   NA       0.0000   9999     300   0     0    
2019/07/11  09:48:00  BASE  0.05292  41   0.72324  39   -6.5  100   -6.5  0     0     1017.3   NA       0.0000   9999     260   0     0    
2019/07/11  09:49:00  BASE  0        36   0.72324  39   -6.5  100   -6.5  0     0     1017.3   NA       0.0000   9999     200   0     0    
2019/07/11  09:50:00  BASE  0.05292  36   0.72324  39   -6.6  100   -6.6  0     0     1017.3   NA       0.0000   9999     260   0     0    
2019/07/11  09:51:00  BASE  0.09996  44   0.72324  39   -6.6  100   -6.6  0     0     1017.3   NA       0.0000   9999     360   0     0    
2019/07/11  09:52:00  BASE  0.05292  47   0.72324  39   -6.6  100   -6.6  0     0     1017.3   NA       0.0000   9999     300   0     0    
2019/07/11  09:53:00  BASE  0        52   0.72324  39   -6.6  100   -6.6  0     0     1017.3   NA       0.0000   9999     300   0     0    
2019/07/11  09:54:00  BASE  0        45   0.72324  39   -6.6  100   -6.6  0     0     1017.3   NA       0.0000   9999     260   0     0    
2019/07/11  09:55:00  BASE  0        29   0.72324  39   -6.5  100   -6.5  0     0     1017.3   NA       0.0000   9999     260   0     0    
2019/07/11  09:56:00  BASE  0        358  0.69384  33   -6.5  100   -6.5  0     0     1017.4   NA       0.0000   9999     230   0     0    
2019/07/11  09:57:00  BASE  0        329  0.63504  43   -6.4  100   -6.4  0     0     1017.4   NA       0.0000   9999     260   0     0    
2019/07/11  09:58:00  BASE  0        324  0.63504  43   -6.4  100   -6.4  0     0     1017.5   NA       0.0000   9999     260   0     0    
2019/07/11  09:59:00  BASE  0        340  0.63504  43   -6.4  100   -6.4  0     0     1017.4   NA       0.0000   9999     300   0     0    
2019/07/11  10:00:00  BASE  0        2    0.63504  43   -6.3  100   -6.3  0     0     1017.3   NA       0.0000   9999     260   0     0    
2019/07/11  10:01:00  BASE  0        5    0        M    -6.3  100   -6.3  0     0     1017.3   NA       0.0000   9999     230   0     0    
2019/07/11  10:02:00  BASE  0        1    0        M    -6.3  100   -6.3  0     0     1017.3   NA       0.0000   9999     230   0     0    
2019/07/11  10:03:00  BASE  0        12   0        M    -6.3  100   -6.3  0     0     1017.3   NA       0.0000   9999     230   0     0    
2019/07/11  10:04:00  BASE  0        31   0        M    -6.4  100   -6.4  0     0     1017.2   NA       0.0000   9999     230   0     0    
2019/07/11  10:05:00  BASE  0.02352  37   0.60564  43   -6.4  100   -6.4  0     0     1017.2   NA       0.0000   9999     260   0     0    
2019/07/11  10:06:00  BASE  0.02352  38   0.60564  43   -6.5  100   -6.5  0     0     1017.2   NA       0.0000   9999     230   0     0    
2019/07/11  10:07:00  BASE  0        32   0.60564  43   -6.5  100   -6.5  0     0     1017.2   NA       0.0000   9999     230   0     0    
2019/07/11  10:08:00  BASE  0        28   0.60564  43   -6.5  100   -6.5  0     0     1017.2   NA       0.0000   9999     230   0     0    
2019/07/11  10:09:00  BASE  0        26   0.60564  43   -6.5  100   -6.5  0     0     1017.2   NA       0.0000   9999     200   0     0    
2019/07/11  10:10:00  BASE  0        20   0.60564  43   -6.5  100   -6.5  0     0     1017.2   NA       0.0000   9999     260   0     0    
2019/07/11  10:11:00  BASE  0        17   0.60564  43   -6.4  100   -6.4  0     0     1017.2   NA       0.0000   9999     390   0     0    
2019/07/11  10:12:00  BASE  0        19   0.60564  43   -6.4  100   -6.4  0     0     1017.2   NA       0.0000   9999     260   0     0    
2019/07/11  10:13:00  BASE  0        24   0.60564  43   -6.4  100   -6.4  0     0     1017.2   NA       0.0000   9999     300   0     0    
2019/07/11  10:14:00  BASE  0        34   0.60564  43   -6.4  100   -6.4  0     0     1017.2   NA       0.0000   9999     300   0     0    
2019/07/11  10:15:00  BASE  0        39   0        M    -6.5  100   -6.5  0     0     1017.2   NA       0.0000   9999     230   0     0    
2019/07/11  10:16:00  BASE  0        36   0        M    -6.5  100   -6.5  0     0     1017.3   NA       0.0000   9999     260   0     0    
2019/07/11  10:17:00  BASE  0        35   0        M    -6.5  100   -6.5  0     0     1017.3   NA       0.0000   9999     300   0     0    
2019/07/11  10:18:00  BASE  0        38   0        M    -6.5  100   -6.5  0     0     1017.3   NA       0.0000   9999     390   0     0    
2019/07/11  10:19:00  BASE  0.05292  40   0.63504  44   -6.5  100   -6.5  0     0     1017.3   NA       0.0000   9999     260   0     0    
2019/07/11  10:20:00  BASE  0.07644  42   0.63504  44   -6.5  100   -6.5  0     0     1017.3   NA       0.0000   9999     300   0     0    
2019/07/11  10:21:00  BASE  0.0294   43   0.63504  44   -6.5  100   -6.5  0     0     1017.3   NA       0.0000   9999     330   0     0    
2019/07/11  10:22:00  BASE  0.05292  43   0.63504  44   -6.5  100   -6.5  0     0     1017.3   NA       0.0000   9999     390   0     0    
2019/07/11  10:23:00  BASE  0.07644  42   0.63504  44   -6.6  100   -6.6  0     0     1017.3   NA       0.0000   9999     230   0     0    
2019/07/11  10:24:00  BASE  0.05292  38   0.63504  28   -6.6  100   -6.6  0     0     1017.4   NA       0.0000   9999     330   0     0    
2019/07/11  10:25:00  BASE  0.0294   32   0.63504  28   -6.6  100   -6.6  0     0     1017.5   NA       0.0000   9999     260   0     0    
2019/07/11  10:26:00  BASE  0        29   0.63504  28   -6.6  100   -6.6  0     0     1017.5   NA       0.0000   9999     300   0     0    
2019/07/11  10:27:00  BASE  0.05292  32   0.69384  28   -6.6  100   -6.6  0     0     1017.4   NA       0.0000   9999     200   0     0    
2019/07/11  10:28:00  BASE  0.3822   41   0.75852  43   -6.6  100   -6.6  0     0     1017.3   NA       0.0000   9999     200   0     0    
2019/07/11  10:29:00  BASE  0.72324  44   0.90552  41   -6.7  100   -6.7  0     0     1017.3   NA       0.0000   9999     300   0     0    
2019/07/11  10:30:00  BASE  0.89964  42   1.0878   30   -6.7  100   -6.7  0     0     1017.3   NA       0.0000   9999     360   0     0    
2019/07/11  10:31:00  BASE  1.029    36   1.0878   41   -6.8  100   -6.8  0     0     1017.3   NA       0.0000   9999     260   0     0    
2019/07/11  10:32:00  BASE  1.1172   36   1.27008  40   -6.9  100   -6.9  0     0     1017.2   NA       0.0000   9999     230   0     0    
2019/07/11  10:33:00  BASE  1.15836  39   1.27008  40   -7.0  100   -7.0  0     0     1017.2   NA       0.0000   9999     200   0     0    
2019/07/11  10:34:00  BASE  1.12896  37   1.27008  40   -7.0  100   -7.0  0     0     1017.2   NA       0.0000   9999     200   0     0    
2019/07/11  10:35:00  BASE  1.1466   32   1.27008  40   -7.1  100   -7.1  0     0     1017.2   NA       0.0000   9999     200   0     0    
2019/07/11  10:36:00  BASE  1.13484  29   1.27008  40   -7.0  100   -7.0  0     0     1017.2   NA       0.0000   9999     200   0     0    
2019/07/11  10:37:00  BASE  1.06428  37   1.27008  40   -7.0  100   -7.0  0     0     1017.2   NA       0.0000   9999     160   0     0    
2019/07/11  10:38:00  BASE  0.91728  45   1.27008  40   -6.9  100   -6.9  0     0     1017.2   NA       0.0000   9999     200   0     0    
2019/07/11  10:39:00  BASE  0.91728  54   1.27008  40   -6.8  100   -6.8  0     0     1017.2   NA       0.0000   9999     160   0     0    
2019/07/11  10:40:00  BASE  0.92316  56   1.27008  40   -6.7  100   -6.7  0     0     1017.2   NA       0.0000   9999     160   0     0    
2019/07/11  10:41:00  BASE  0.8526   50   1.27008  40   -6.7  100   -6.7  0     0     1017.2   NA       0.0000   9999     200   0     0    
2019/07/11  10:42:00  BASE  0.882    51   1.24068  31   -6.7  100   -6.7  0     0     1017.2   NA       0.0000   9999     200   0     0    
2019/07/11  10:43:00  BASE  1.01724  53   1.24068  31   -6.7  100   -6.7  0     0     1017.2   NA       0.0000   9999     160   0     0    
2019/07/11  10:44:00  BASE  1.07604  52   1.21128  47   -6.7  100   -6.7  0     0     1017.2   NA       0.0000   9999     200   0     0    
2019/07/11  10:45:00  BASE  0.882    49   1.21128  47   -6.7  100   -6.7  0     0     1017.2   NA       0.0000   9999     160   0     0    
2019/07/11  10:46:00  BASE  0.75852  44   1.21128  47   -6.7  100   -6.7  0     0     1017.2   NA       0.0000   9999     160   0     0    
2019/07/11  10:47:00  BASE  0.588    42   1.21128  47   -6.7  100   -6.7  0     0     1017.2   NA       0.0000   9999     0     0     0    
2019/07/11  10:48:00  BASE  0.45864  35   1.21128  47   -6.8  100   -6.8  0     0     1017.2   NA       0.0000   9999     0     0     0    
2019/07/11  10:49:00  BASE  0.63504  25   1.21128  47   -6.8  100   -6.8  0     0     1017.2   NA       0.0000   9999     0     0     0    
2019/07/11  10:50:00  BASE  0.77028  23   1.21128  47   -6.8  100   -6.8  0     0     1017.2   NA       0.0000   8000     0     0     0    
2019/07/11  10:51:00  BASE  0.81144  25   1.21128  47   -6.8  100   -6.8  0     0     1017.2   NA       0.0000   8000     0     0     0    
2019/07/11  10:52:00  BASE  0.62328  32   1.21128  47   -6.8  100   -6.8  0     0     1017.2   NA       0.0000   9000     0     0     0    
2019/07/11  10:53:00  BASE  0.2646   35   1.21128  47   -6.7  100   -6.7  0     0     1017.2   NA       0.0000   6000     0     0     0    
2019/07/11  10:54:00  BASE  0.24696  29   0.93492  59   -6.7  100   -6.7  0     0     1017.2   NA       0.0000   BR       4500  0     0    
2019/07/11  10:55:00  BASE  0.45276  27   0.87612  29   -6.7  100   -6.7  0     0     1017.2   NA       0.0000   BR       4100  0     0    
2019/07/11  10:56:00  BASE  0.25872  36   0.87612  29   -6.7  100   -6.7  0     0     1017.2   NA       0.0000   BR       4100  0     0    
2019/07/11  10:57:00  BASE  0.2058   35   0.87612  29   -6.7  100   -6.7  0     0     1017.2   NA       0.0000   BR       4500  0     0    
2019/07/11  10:58:00  BASE  0.53508  25   0.87612  29   -6.7  100   -6.7  0     0     1017.2   NA       0.0000   BR       4300  0     0    
2019/07/11  10:59:00  BASE  0.51744  16   0.87612  29   -6.7  100   -6.7  0     0     1017.2   NA       0.0000   BR       4800  0     0    
2019/07/11  11:00:00  BASE  0.24696  12   0.87612  29   -6.7  100   -6.7  0     0     1017.3   NA       0.0000   BR       5000  0     0    
2019/07/11  11:01:00  BASE  0.0588   20   0.81732  27   -6.7  100   -6.7  0     0     1017.3   NA       0.0000   BR       4300  0     0    
2019/07/11  11:02:00  BASE  0.2646   22   0.81732  27   -6.6  100   -6.6  0     0     1017.3   NA       0.0000   BR       3200  0     0    
2019/07/11  11:03:00  BASE  0.62328  15   0.81732  7    -6.6  100   -6.6  0     0     1017.3   NA       0.0000   BR       3300  0     0    
2019/07/11  11:04:00  BASE  0.75264  8    0.93492  6    -6.5  100   -6.5  0     0     1017.3   NA       0.0000   BR       4000  0     0    
2019/07/11  11:05:00  BASE  0.71736  5    0.9702   3    -6.5  100   -6.5  0     0     1017.4   NA       0.0000   BR       5000  0     0    
2019/07/11  11:06:00  BASE  0.41748  19   0.9702   3    -6.5  100   -6.5  0     0     1017.4   NA       0.0000   BR       8000  0     0    
2019/07/11  11:07:00  BASE  0.09408  29   0.9702   3    -6.5  100   -6.5  0     0     1017.5   NA       0.0000   BR       9999  0     0    
2019/07/11  11:08:00  BASE  0.05292  30   0.9702   3    -6.6  100   -6.6  0     0     1017.5   NA       0.0000   BR       9999  0     0    
2019/07/11  11:09:00  BASE  0.15876  31   0.9702   3    -6.7  100   -6.7  0     0     1017.5   NA       0.0000   BR       9999  0     0    
2019/07/11  11:10:00  BASE  0.43512  29   0.9702   3    -6.7  100   -6.7  0     0     1017.4   NA       0.0000   BR       9999  0     0    
2019/07/11  11:11:00  BASE  0.68796  32   0.9702   3    -6.8  100   -6.8  0     0     1017.3   NA       0.0000   BR       5000  0     0    
2019/07/11  11:12:00  BASE  0.74088  44   0.9702   3    -6.7  100   -6.7  0     0     1017.3   NA       0.0000   BR       3400  0     0    
2019/07/11  11:13:00  BASE  0.882    48   1.18188  47   -6.7  100   -6.7  0     0     1017.3   NA       0.0000   BR       2800  0     0    
2019/07/11  11:14:00  BASE  0.98784  40   1.21128  35   -6.7  100   -6.7  0     0     1017.3   NA       0.0000   BR       3100  0     0    
2019/07/11  11:15:00  BASE  1.01724  39   1.21128  32   -6.8  100   -6.8  0     0     1017.3   NA       0.0000   BR       5000  0     0    
2019/07/11  11:16:00  BASE  1.03488  40   1.21128  32   -6.8  100   -6.8  0     0     1017.4   NA       0.0000   BR       9999  160   0    
2019/07/11  11:17:00  BASE  0.95844  36   1.21128  32   -6.8  100   -6.8  0     0     1017.5   NA       0.0000   BR       9999  160   0    
2019/07/11  11:18:00  BASE  0.89376  38   1.21128  32   -6.8  100   -6.8  0     0     1017.4   NA       0.0000   BR       9999  0     0    
2019/07/11  11:19:00  BASE  0.86436  41   1.21128  32   -6.8  100   -6.8  0     0     1017.4   NA       0.0000   BR       8000  0     0    
2019/07/11  11:20:00  BASE  0.88788  44   1.21128  32   -6.8  100   -6.8  0     0     1017.3   NA       0.0000   BR       8000  0     0    
2019/07/11  11:21:00  BASE  1.0584   48   1.42296  50   -6.7  100   -6.7  0     0     1017.3   NA       0.0000   BR       6000  0     0    
2019/07/11  11:22:00  BASE  1.36416  48   1.69344  47   -6.7  100   -6.7  0     0     1017.3   NA       0.0000   BR       3500  0     0    
2019/07/11  11:23:00  BASE  1.42296  47   1.69344  47   -6.7  100   -6.7  0     0     1017.3   NA       0.0000   BR       1900  0     0    
2019/07/11  11:24:00  BASE  1.37004  49   1.69344  45   -6.7  100   -6.7  0     0     1017.2   NA       0.0000   BR       1300  0     0    
2019/07/11  11:25:00  BASE  1.35828  52   1.69344  45   -6.8  100   -6.8  0     0     1017.2   NA       0.0000   BR       1600  0     0    
2019/07/11  11:26:00  BASE  1.2348   52   1.69344  45   -6.8  100   -6.8  0     0     1017.2   NA       0.0000   BR       1900  0     0    
2019/07/11  11:27:00  BASE  1.15248  46   1.69344  45   -6.8  100   -6.8  0     0     1017.2   NA       0.0000   BR       2300  0     0    
2019/07/11  11:28:00  BASE  1.029    35   1.69344  45   -6.8  100   -6.8  0     0     1017.2   NA       0.0000   BR       3000  0     0    
2019/07/11  11:29:00  BASE  0.93492  30   1.69344  45   -6.9  100   -6.9  0     0     1017.2   NA       0.0000   BR       3100  0     0    
2019/07/11  11:30:00  BASE  0.97608  30   1.69344  45   -6.9  100   -6.9  0     0     1017.2   NA       0.0000   BR       3200  0     0    
2019/07/11  11:31:00  BASE  1.04076  30   1.69344  45   -7.0  100   -7.0  0     0     1017.2   NA       0.0000   BR       5000  0     0    
2019/07/11  11:32:00  BASE  1.0878   32   1.69344  45   -7.0  100   -7.0  0     0     1017.2   NA       0.0000   BR       6000  0     0    
2019/07/11  11:33:00  BASE  1.15836  33   1.69344  45   -7.0  100   -7.0  0     0     1017.2   NA       0.0000   BR       5000  0     0    
2019/07/11  11:34:00  BASE  1.22892  33   1.35828  38   -6.9  100   -6.9  0     0     1017.2   NA       0.0000   BR       5000  0     0    
2019/07/11  11:35:00  BASE  1.25244  31   1.35828  38   -6.9  100   -6.9  0     0     1017.1   NA       0.0000   BR       4000  0     0    
2019/07/11  11:36:00  BASE  1.24656  29   1.35828  38   -6.8  100   -6.8  0     0     1017.1   NA       0.0000   BR       3300  0     0    
2019/07/11  11:37:00  BASE  1.21128  25   1.35828  38   -6.8  100   -6.8  0     0     1017.1   NA       0.0000   BR       3900  0     0    
2019/07/11  11:38:00  BASE  1.176    23   1.35828  38   -6.8  100   -6.8  0     0     1017.1   NA       0.0000   BR       7000  0     0    
2019/07/11  11:39:00  BASE  1.16424  25   1.35828  38   -6.8  100   -6.8  0     0     1017.1   NA       0.0000   BR       9999  0     0    
2019/07/11  11:40:00  BASE  1.10544  27   1.35828  38   -6.8  100   -6.8  0     0     1017.1   NA       0.0000   BR       9999  0     0    
2019/07/11  11:41:00  BASE  1.04076  29   1.35828  38   -6.8  100   -6.8  0     0     1017.1   NA       0.0000   BR       9999  0     0    
2019/07/11  11:42:00  BASE  0.92316  30   1.35828  38   -6.8  100   -6.8  0     0     1017.1   NA       0.0000   BR       9999  0     0    
2019/07/11  11:43:00  BASE  0.81144  32   1.35828  38   -6.8  100   -6.8  0     0     1017.1   NA       0.0000   BR       9999  0     0    
2019/07/11  11:44:00  BASE  0.80556  34   1.29948  20   -6.9  100   -6.9  0     0     1017.1   NA       0.0000   BR       9999  0     0    
2019/07/11  11:45:00  BASE  0.7938   29   1.29948  20   -6.9  100   -6.9  0     0     1017.1   NA       0.0000   BR       9999  0     0    
2019/07/11  11:46:00  BASE  0.71148  16   1.24068  22   -7.0  100   -7.0  0     0     1017.1   NA       0.0000   9999     0     0     0    
2019/07/11  11:47:00  BASE  0.54096  359  1.24068  22   -7.0  100   -7.0  0     0     1017.2   NA       0.0000   9999     0     0     0    
2019/07/11  11:48:00  BASE  0.28224  350  1.21128  22   -7.0  100   -7.0  0     0     1017.2   NA       0.0000   9999     0     0     0    
2019/07/11  11:49:00  BASE  0.12936  342  1.1172   28   -7.0  100   -7.0  0     0     1017.2   NA       0.0000   9999     0     0     0    
2019/07/11  11:50:00  BASE  0.05292  333  1.0878   23   -6.9  100   -6.9  0     0     1017.2   NA       0.0000   9999     0     0     0    
2019/07/11  11:51:00  BASE  0.02352  333  0.90552  27   -6.9  100   -6.9  0     0     1017.2   NA       0.0000   8000     0     0     0    
2019/07/11  11:52:00  BASE  0.09996  340  0.84672  31   -6.8  100   -6.8  0     0     1017.2   NA       0.0000   8000     0     0     0    
2019/07/11  11:53:00  BASE  0.18816  342  0.84672  31   -6.8  100   -6.8  0     0     1017.2   NA       0.0000   6000     0     0     0    
2019/07/11  11:54:00  BASE  0.16464  338  0.81732  27   -6.7  100   -6.7  0     0     1017.2   NA       0.0000   BR       4500  0     0    
2019/07/11  11:55:00  BASE  0.3234   335  0.78792  323  -6.7  100   -6.7  0     0     1017.2   NA       0.0000   BR       4000  0     0    
2019/07/11  11:56:00  BASE  0.42336  334  0.78792  323  -6.6  100   -6.6  0     0     1017.2   NA       0.0000   BR       3300  0     0    
2019/07/11  11:57:00  BASE  0.15876  334  0.78792  323  -6.6  100   -6.6  0     0     1016.6   NA       0.0000   BR       2800  0     0    
2019/07/11  11:58:00  BASE  0        337  0.78792  323  -6.6  100   -6.6  0     0     1017.2   NA       0.0000   BR       2600  0     0    
2019/07/11  11:59:00  BASE  0.24696  341  0.78792  323  -6.6  100   -6.6  0     0     1017.2   NA       0.0000   BR       2800  0     0    
2019/07/11  12:00:00  BASE  0.4116   347  0.78792  355  -6.6  100   -6.6  0     0     1017.2   NA       0.0000   BR       3200  0     0    
2019/07/11  12:01:00  BASE  0.44688  352  0.78792  355  -6.6  100   -6.6  0     0     1017.2   NA       0.0000   BR       3900  0     0    
2019/07/11  12:02:00  BASE  0.27636  358  0.78792  355  -6.6  100   -6.6  0     0     1017.2   NA       0.0000   BR       5000  0     0    
2019/07/11  12:03:00  BASE  0        5    0.78792  355  -6.6  100   -6.6  0     0     1017.2   NA       0.0000   BR       5000  0     0    
2019/07/11  12:04:00  BASE  0        359  0.78792  355  -6.7  100   -6.7  0     0     1017.2   NA       0.0000   BR       6000  0     0    
2019/07/11  12:05:00  BASE  0        359  0.78792  355  -6.7  100   -6.7  0     0     1017.2   NA       0.0000   BR       7000  0     0    
2019/07/11  12:06:00  BASE  0.02352  3    0.78792  355  -6.7  100   -6.7  0     0     1017.2   NA       0.0000   BR       9000  0     0    
2019/07/11  12:07:00  BASE  0.15288  0    0.78792  355  -6.7  100   -6.7  0     0     1017.2   NA       0.0000   BR       9999  0     0    
2019/07/11  12:08:01  BASE  0.15876  0    0.78792  355  -6.7  100   -6.7  0     0     1017.1   NA       0.0000   BR       9999  0     0    
2019/07/11  12:09:00  BASE  0.28812  356  0.81732  354  -6.7  100   -6.7  0     0     1017.1   NA       0.0000   BR       9999  0     0    
2019/07/11  12:10:00  BASE  0.36456  359  0.81732  354  -6.7  100   -6.7  0     0     1017.1   NA       0.0000   BR       9999  0     0    
2019/07/11  12:11:00  BASE  0.12936  7    0.81732  354  -6.7  100   -6.7  0     0     1017.1   NA       0.0000   BR       9999  0     0    
2019/07/11  12:12:00  BASE  0.07644  17   0.81732  354  -6.8  100   -6.8  0     0     1017.0   NA       0.0000   9999     0     0     0    
2019/07/11  12:13:00  BASE  0.05292  23   0.81732  354  -6.8  100   -6.8  0     0     1017.0   NA       0.0000   9999     0     0     0    
2019/07/11  12:14:00  BASE  0        15   0.81732  354  -6.9  100   -6.9  0     0     1017.0   NA       0.0000   9999     0     0     0    
2019/07/11  12:15:00  BASE  0        12   0.81732  354  -6.9  100   -6.9  0     0     1017.0   NA       0.0000   9999     0     0     0    
2019/07/11  12:16:00  BASE  0.05292  4    0.81732  354  -6.9  100   -6.9  0     0     1017.0   NA       0.0000   9999     0     0     0    
2019/07/11  12:17:00  BASE  0.05292  1    0.81732  354  -6.8  100   -6.8  0     0     1016.9   NA       0.0000   9999     0     0     0    
2019/07/11  12:18:00  BASE  0.05292  5    0.81732  354  -6.8  100   -6.8  0     0     1016.9   NA       0.0000   9999     0     0     0    
2019/07/11  12:19:00  BASE  0.05292  356  0.63504  344  -6.8  100   -6.8  0     0     1016.9   NA       0.0000   9999     0     0     0    
2019/07/11  12:20:00  BASE  0.21168  349  0.69384  343  -6.7  100   -6.7  0     0     1016.9   NA       0.0000   9999     0     0     0    
2019/07/11  12:21:00  BASE  0.4998   347  0.75852  354  -6.7  100   -6.7  0     0     1016.9   NA       0.0000   9999     0     0     0    
2019/07/11  12:22:00  BASE  0.48216  354  0.75852  354  -6.7  100   -6.7  0     0     1017.0   NA       0.0000   9999     0     0     0    
2019/07/11  12:23:00  BASE  0.18816  1    0.75852  354  -6.7  100   -6.7  0     0     1017.0   NA       0.0000   9999     0     0     0    
2019/07/11  12:24:00  BASE  0        354  0.75852  354  -6.7  100   -6.7  0     0     1017.0   NA       0.0000   9999     0     0     0    
2019/07/11  12:25:00  BASE  0        348  0.75852  354  -6.7  100   -6.7  0     0     1016.4   NA       0.0000   9999     0     0     0    
2019/07/11  12:26:00  BASE  0        354  0.75852  354  -6.7  100   -6.7  0     0     1017.0   NA       0.0000   9999     0     0     0    
2019/07/11  12:27:00  BASE  0        4    0.75852  354  -6.7  100   -6.7  0     0     1017.0   NA       0.0000   9999     0     0     0    
2019/07/11  12:28:00  BASE  0        359  0.75852  354  -6.7  100   -6.7  0     0     1017.0   NA       0.0000   9999     0     0     0    
2019/07/11  12:29:00  BASE  0        346  0.75852  354  -6.7  100   -6.7  0     0     1017.0   NA       0.0000   9999     0     0     0    
2019/07/11  12:30:00  BASE  0        339  0.75852  354  -6.7  100   -6.7  0     0     1017.0   NA       0.0000   9999     0     0     0    
2019/07/11  12:31:00  BASE  0        330  0.66444  2    -6.7  100   -6.7  0     0     1017.0   NA       0.0000   9999     0     0     0    
2019/07/11  12:32:00  BASE  0.05292  319  0.60564  313  -6.7  100   -6.7  0     0     1017.1   NA       0.0000   9999     0     0     0    
2019/07/11  12:33:00  BASE  0.05292  310  0.60564  313  -6.7  100   -6.7  0     0     1017.1   NA       0.0000   9999     0     0     0    
2019/07/11  12:34:00  BASE  0        310  0.60564  313  -6.7  100   -6.7  0     0     1017.1   NA       0.0000   9999     0     0     0    
2019/07/11  12:35:00  BASE  0        310  0.60564  313  -6.7  100   -6.7  0     0     1017.1   NA       0.0000   9999     0     0     0    
2019/07/11  12:36:00  BASE  0        303  0.60564  313  -6.7  100   -6.7  0     0     1017.1   NA       0.0000   9999     0     0     0    
2019/07/11  12:37:00  BASE  0        298  0.60564  313  -6.7  100   -6.7  0     0     1017.1   NA       0.0000   9999     0     0     0    
2019/07/11  12:38:00  BASE  0        295  0.60564  313  -6.7  100   -6.7  0     0     1017.1   NA       0.0000   9999     0     0     0    
2019/07/11  12:39:00  BASE  0        291  0.60564  313  -6.7  100   -6.7  0     0     1017.1   NA       0.0000   9999     0     0     0    
2019/07/11  12:40:00  BASE  0        289  0.60564  313  -6.7  100   -6.7  0     0     1017.1   NA       0.0000   9999     0     0     0    
2019/07/11  12:41:00  BASE  0        281  0.60564  313  -6.6  100   -6.6  0     0     1017.1   NA       0.0000   9999     0     0     0    
2019/07/11  12:42:00  BASE  0        262  0        M    -6.6  100   -6.6  0     0     1017.1   NA       0.0000   9999     0     0     0    
2019/07/11  12:43:00  BASE  0        262  0        M    -6.6  100   -6.6  0     0     1017.1   NA       0.0000   9999     0     0     0    
2019/07/11  12:44:00  BASE  0        277  0        M    -6.5  100   -6.5  0     0     1017.1   NA       0.0000   9999     0     0     0    
2019/07/11  12:45:00  BASE  0        272  0        M    -6.5  100   -6.5  0     0     1017.2   NA       0.0000   9999     300   0     0    
2019/07/11  12:46:00  BASE  0        259  0        M    -6.5  100   -6.5  0     0     1017.2   NA       0.0000   9999     330   0     0    
2019/07/11  12:47:00  BASE  0.05292  262  0.63504  263  -6.5  100   -6.5  0     0     1017.2   NA       0.0000   9999     330   0     0    
2019/07/11  12:48:00  BASE  0.07644  264  0.63504  263  -6.5  100   -6.5  0     0     1017.1   NA       0.0000   9999     200   0     0    
2019/07/11  12:49:00  BASE  0.02352  268  0.63504  263  -6.4  100   -6.4  0     0     1017.1   NA       0.0000   5000     0     0     0    
2019/07/11  12:50:00  BASE  0        279  0.63504  263  -6.4  100   -6.4  0     0     1017.1   NA       0.0000   BR       2700  0     0    
2019/07/11  12:51:00  BASE  0        292  0.63504  263  -6.3  100   -6.3  0     0     1017.1   NA       0.0000   BR       2100  0     0    
2019/07/11  12:52:00  BASE  0        345  0.63504  263  -6.3  100   -6.3  0     0     1017.1   NA       0.0000   BR       2900  0     0    
2019/07/11  12:53:00  BASE  0.22932  41   0.78792  55   -6.4  100   -6.4  0     0     1017.1   NA       0.0000   BR       9000  200   0    
2019/07/11  12:54:00  BASE  0.4116   48   0.81732  65   -6.5  100   -6.5  0     0     1017.1   NA       0.0000   BR       9999  0     0    
2019/07/11  12:55:00  BASE  0.51156  52   0.81732  65   -6.7  100   -6.7  0     0     1017.1   NA       0.0000   BR       9999  0     0    
2019/07/11  12:56:00  BASE  0.43512  53   0.81732  65   -6.8  100   -6.8  0     0     1017.1   NA       0.0000   BR       9999  0     0    
2019/07/11  12:57:00  BASE  0.15288  48   0.81732  65   -6.9  100   -6.9  0     0     1017.1   NA       0.0000   BR       9999  160   0    
2019/07/11  12:58:00  BASE  0.05292  43   0.81732  65   -6.9  100   -6.9  0     0     1017.1   NA       0.0000   BR       9999  0     0    
2019/07/11  12:59:00  BASE  0        42   0.81732  65   -6.8  100   -6.8  0     0     1017.2   NA       0.0000   BR       9999  160   0    
2019/07/11  13:00:00  BASE  0        43   0.81732  65   -6.8  100   -6.8  0     0     1017.2   NA       0.0000   BR       9999  160   0    
2019/07/11  13:01:00  BASE  0        30   0.81732  65   -6.7  100   -6.7  0     0     1017.2   NA       0.0000   9999     0     0     0    
2019/07/11  13:02:00  BASE  0        28   0.81732  65   -6.7  100   -6.7  0     0     1017.2   NA       0.0000   9999     0     0     0    
2019/07/11  13:03:01  BASE  0        13   0.81732  65   -6.7  100   -6.7  0     0     1017.2   NA       0.0000   9000     0     0     0    
2019/07/11  13:04:00  BASE  0.15876  346  0.75852  60   -6.6  100   -6.6  0     0     1017.2   NA       0.0000   6000     0     0     0    
2019/07/11  13:05:00  BASE  0.22344  334  0.75852  322  -6.6  100   -6.6  0     0     1017.2   NA       0.0000   6000     0     0     0    
2019/07/11  13:06:00  BASE  0.3822   326  0.81732  312  -6.6  100   -6.6  0     0     1017.2   NA       0.0000   BR       3800  0     0    
2019/07/11  13:07:00  BASE  0.55272  316  0.81732  312  -6.5  100   -6.5  0     0     1017.2   NA       0.0000   BR       2600  0     0    
2019/07/11  13:08:00  BASE  0.42924  309  0.81732  312  -6.4  100   -6.4  0     0     1017.2   NA       0.0000   BR       1300  0     0    
2019/07/11  13:09:00  BASE  0.36456  321  0.81732  185  -6.4  100   -6.4  0     0     1017.2   NA       0.0000   BR       1300  0     0    
2019/07/11  13:10:00  BASE  0.17052  345  0.81732  185  -6.3  100   -6.3  0     0     1017.2   NA       0.0000   BR       1600  0     0    
2019/07/11  13:11:00  BASE  0.15876  352  0.81732  185  -6.3  100   -6.3  0     0     1017.1   NA       0.0000   BR       2200  0     0    
2019/07/11  13:12:00  BASE  0.2058   353  0.81732  185  -6.4  100   -6.4  0     0     1017.1   NA       0.0000   BR       3700  0     0    
2019/07/11  13:13:00  BASE  0.294    10   0.81732  185  -6.5  100   -6.5  0     0     1017.0   NA       0.0000   BR       7000  0     0    
2019/07/11  13:14:00  BASE  0.65268  24   0.87612  28   -6.7  100   -6.7  0     0     1017.0   NA       0.0000   BR       9999  200   0    
2019/07/11  13:15:00  BASE  0.78204  23   0.87612  28   -6.8  100   -6.8  0     0     1017.0   NA       0.0000   BR       9999  200   0    
2019/07/11  13:16:00  BASE  0.80556  29   0.9996   40   -6.9  100   -6.9  1     0     1017.0   NA       0.0000   BR       9999  200   0    
2019/07/11  13:17:00  BASE  0.87024  39   0.9996   40   -7.0  100   -7.0  1     0     1017.0   NA       0.0000   BR       9999  0     0    
2019/07/11  13:18:00  BASE  0.86436  39   0.9996   40   -7.1  100   -7.1  1     0     1017.0   NA       0.0000   BR       9999  200   0    
2019/07/11  13:19:00  BASE  0.81144  39   0.9996   40   -7.1  100   -7.1  1     0     1017.1   NA       0.0000   BR       9999  200   0    
2019/07/11  13:20:00  BASE  0.74676  39   0.9996   40   -7.2  100   -7.2  1     0     1017.1   NA       0.0000   BR       9999  0     0    
2019/07/11  13:21:00  BASE  0.588    36   0.9996   40   -7.3  100   -7.3  1     0     1017.0   NA       0.0000   9999     200   0     0    
2019/07/11  13:22:00  BASE  0.588    39   0.9996   40   -7.3  100   -7.3  1     0     1017.0   NA       0.0000   9999     200   0     0    
2019/07/11  13:23:00  BASE  0.77028  45   0.9996   40   -7.2  100   -7.2  1     0     1017.1   NA       0.0000   9999     200   0     0    
2019/07/11  13:24:00  BASE  0.81144  46   0.9996   40   -7.2  100   -7.2  1     0     1017.1   NA       0.0000   9999     160   0     0    
2019/07/11  13:25:00  BASE  0.8526   48   0.9996   40   -7.1  100   -7.1  1     0     1017.1   NA       0.0000   9999     160   0     0    
2019/07/11  13:26:00  BASE  0.87024  50   0.9702   51   -7.1  100   -7.1  1     0     1017.1   NA       0.0000   9999     200   0     0    
2019/07/11  13:27:00  BASE  0.84672  49   0.9702   51   -7.0  100   -7.0  1     0     1017.1   NA       0.0000   9999     230   0     0    
2019/07/11  13:28:00  BASE  0.82908  47   0.9702   51   -7.1  100   -7.1  1     0     1017.0   NA       0.0000   9999     200   0     0    
2019/07/11  13:29:00  BASE  0.78792  43   0.9702   51   -7.1  100   -7.1  1     0     1017.0   NA       0.0000   9999     200   0     0    
2019/07/11  13:30:00  BASE  0.53508  44   0.9702   51   -7.1  100   -7.1  1     0     1017.0   NA       0.0000   9999     200   0     0    
2019/07/11  13:31:00  BASE  0.47628  53   0.9702   51   -7.2  100   -7.2  1     0     1017.0   NA       0.0000   9999     200   0     0    
2019/07/11  13:32:00  BASE  0.61152  48   0.9702   51   -7.2  100   -7.2  2     0     1017.0   NA       0.0000   9999     200   0     0    
2019/07/11  13:33:00  BASE  0.49392  44   0.9702   51   -7.1  100   -7.1  2     0     1017.0   NA       0.0000   7000     0     0     0    
2019/07/11  13:34:00  BASE  0.4998   52   0.9702   51   -7.1  100   -7.1  2     0     1017.0   NA       0.0000   8000     160   0     0    
2019/07/11  13:35:00  BASE  0.4116   46   0.9702   51   -7.0  100   -7.0  2     0     1017.0   NA       0.0000   9999     160   0     0    
2019/07/11  13:36:00  BASE  0.1176   34   0.93492  49   -7.0  100   -7.0  2     0     1017.0   NA       0.0000   9000     0     0     0    
2019/07/11  13:37:00  BASE  0        24   0.93492  49   -7.0  100   -7.0  2     0     1017.0   NA       0.0000   9999     0     0     0    
2019/07/11  13:38:00  BASE  0        18   0.84672  43   -7.0  100   -7.0  2     0     1017.0   NA       0.0000   9999     0     0     0    
2019/07/11  13:39:00  BASE  0        16   0.81732  52   -7.0  100   -7.0  2     0     1017.0   NA       0.0000   9999     0     0     0    
2019/07/11  13:40:00  BASE  0        19   0.81732  52   -7.0  100   -7.0  2     0     1017.0   NA       0.0000   9999     0     0     0    
2019/07/11  13:41:00  BASE  0        14   0.81732  52   -6.9  100   -6.9  2     0     1017.0   NA       0.0000   9999     0     0     0    
2019/07/11  13:42:00  BASE  0        2    0.81732  52   -6.9  100   -6.9  2     0     1017.0   NA       0.0000   9999     0     0     0    
2019/07/11  13:43:00  BASE  0        351  0.75852  55   -6.8  100   -6.8  3     0     1017.0   NA       0.0000   9999     0     0     0    
2019/07/11  13:44:00  BASE  0        340  0.69384  40   -6.8  100   -6.8  3     0     1016.5   NA       0.0000   9999     0     0     0    
2019/07/11  13:45:00  BASE  0        336  0        M    -6.8  100   -6.8  3     0     1017.0   NA       0.0000   9999     0     0     0    
2019/07/11  13:46:00  BASE  0        334  0        M    -6.7  100   -6.7  3     0     1017.0   NA       0.0000   7000     0     0     0    
2019/07/11  13:47:00  BASE  0        332  0        M    -6.7  100   -6.7  3     0     1017.0   NA       0.0000   6000     0     0     0    
2019/07/11  13:48:00  BASE  0        330  0        M    -6.7  100   -6.7  3     0     1017.1   NA       0.0000   BR       7000  0     0    
2019/07/11  13:49:00  BASE  0.12936  328  0.63504  326  -6.7  100   -6.7  3     0     1017.1   NA       0.0000   BR       3900  0     0    
2019/07/11  13:50:00  BASE  0.12936  330  0.63504  326  -6.7  100   -6.7  3     0     1017.1   NA       0.0000   BR       2900  0     0    
2019/07/11  13:51:00  BASE  0.0294   338  0.63504  340  -6.7  100   -6.7  3     0     1017.1   NA       0.0000   BR       3500  0     0    
2019/07/11  13:52:00  BASE  0.18228  338  0.69384  336  -6.6  100   -6.6  3     0     1017.1   NA       0.0000   BR       4700  0     0    
2019/07/11  13:53:00  BASE  0.21168  337  0.69384  336  -6.6  100   -6.6  3     0     1017.1   NA       0.0000   BR       5000  0     0    
2019/07/11  13:54:00  BASE  0.12936  339  0.69384  336  -6.6  100   -6.6  3     0     1017.1   NA       0.0000   BR       4200  0     0    
2019/07/11  13:55:00  BASE  0.2646   340  0.69384  336  -6.6  100   -6.6  3     0     1017.1   NA       0.0000   BR       4300  0     0    
2019/07/11  13:56:00  BASE  0.18228  338  0.69384  336  -6.7  100   -6.7  3     0     1017.1   NA       0.0000   BR       3900  0     0    
2019/07/11  13:57:00  BASE  0        333  0.69384  336  -6.7  100   -6.7  3     0     1017.1   NA       0.0000   BR       2300  0     0    
2019/07/11  13:58:00  BASE  0.21756  325  0.69384  313  -6.7  100   -6.7  4     0     1017.2   NA       0.0000   BR       1800  0     0    
2019/07/11  13:59:00  BASE  0.3528   331  0.75852  343  -6.7  100   -6.7  4     0     1017.2   NA       0.0000   BR       1900  0     0    
2019/07/11  14:00:00  BASE  0.5292   346  0.84672  360  -6.7  100   -6.7  4     0     1017.2   NA       0.0000   BR       2500  0     0    
2019/07/11  14:01:00  BASE  0.78792  349  0.87612  346  -6.6  100   -6.6  4     0     1017.2   NA       0.0000   BR       4000  0     0    
2019/07/11  14:02:00  BASE  0.74676  358  0.87612  346  -6.6  100   -6.6  4     0     1017.1   NA       0.0000   BR       5000  0     0    
2019/07/11  14:03:00  BASE  0.64092  14   0.87612  346  -6.6  100   -6.6  4     0     1017.1   NA       0.0000   BR       9999  0     0    
2019/07/11  14:04:00  BASE  0.6762   23   0.90552  23   -6.6  100   -6.6  4     0     1017.1   NA       0.0000   BR       9999  0     0    
2019/07/11  14:05:00  BASE  0.7938   27   0.90552  23   -6.7  100   -6.7  4     0     1017.1   NA       0.0000   BR       9999  0     0    
2019/07/11  14:06:00  BASE  0.81732  25   0.90552  23   -6.8  100   -6.8  4     0     1017.1   NA       0.0000   BR       9999  0     0    
2019/07/11  14:07:00  BASE  0.7938   24   0.90552  23   -6.8  100   -6.8  4     0     1017.1   NA       0.0000   BR       9999  0     0    
2019/07/11  14:08:00  BASE  0.60564  34   0.90552  23   -6.8  100   -6.8  5     0     1017.1   NA       0.0000   BR       9999  0     0    
2019/07/11  14:09:00  BASE  0.4704   40   0.90552  23   -6.8  100   -6.8  4     0     1017.2   NA       0.0000   BR       9999  0     0    
2019/07/11  14:10:00  BASE  0.5292   42   0.90552  23   -6.9  100   -6.9  5     0     1017.2   NA       0.0000   9999     160   0     0    
2019/07/11  14:11:00  BASE  0.67032  43   0.90552  23   -6.9  100   -6.9  5     0     1017.2   NA       0.0000   9999     160   0     0    
2019/07/11  14:12:00  BASE  0.7644   42   0.90552  23   -6.9  100   -6.9  5     0     1017.2   NA       0.0000   8000     0     0     0    
2019/07/11  14:13:00  BASE  0.77028  44   0.90552  23   -7.0  100   -7.0  5     0     1017.2   NA       0.0000   9000     0     0     0    
2019/07/11  14:14:00  BASE  0.77028  49   0.87612  18   -7.0  100   -7.0  5     0     1017.1   NA       0.0000   9999     0     0     0    
2019/07/11  14:15:00  BASE  0.75264  47   0.90552  42   -7.0  100   -7.0  5     0     1017.2   NA       0.0000   9999     160   0     0    
2019/07/11  14:16:00  BASE  0.75264  47   0.90552  42   -7.0  100   -7.0  5     0     1017.0   NA       0.0000   9000     0     0     0    
2019/07/11  14:17:00  BASE  0.75852  48   0.90552  42   -7.0  100   -7.0  5     0     1017.2   NA       0.0000   BR       5000  0     0    
2019/07/11  14:18:00  BASE  0.72912  42   0.90552  42   -6.9  100   -6.9  6     0     1017.2   NA       0.0000   BR       4200  0     0    
2019/07/11  14:19:00  BASE  0.69972  42   0.90552  42   -6.9  100   -6.9  6     0     1017.2   NA       0.0000   BR       6000  0     0    
2019/07/11  14:20:00  BASE  0.77616  46   0.9702   42   -6.9  100   -6.9  6     0     1017.2   NA       0.0000   BR       8000  160   0    
2019/07/11  14:21:00  BASE  0.77028  43   0.9702   42   -6.9  100   -6.9  6     0     1017.0   NA       0.0000   BR       9999  0     0    
2019/07/11  14:22:00  BASE  0.7644   38   0.9702   42   -7.0  100   -7.0  6     0     1017.2   NA       0.0000   BR       9999  160   0    
2019/07/11  14:23:00  BASE  0.83496  33   0.9702   42   -7.0  100   -7.0  6     0     1017.2   NA       0.0000   BR       9999  160   0    
2019/07/11  14:24:00  BASE  0.84672  28   0.9702   23   -7.0  100   -7.0  6     0     1017.2   NA       0.0000   BR       9999  0     0    
2019/07/11  14:25:00  BASE  0.82908  20   0.9702   23   -7.1  100   -7.1  6     0     1017.2   NA       0.0000   BR       9999  0     0    
2019/07/11  14:26:00  BASE  0.81144  17   0.9702   23   -7.1  100   -7.1  6     0     1017.2   NA       0.0000   BR       9999  160   0    
2019/07/11  14:27:00  BASE  0.81144  17   0.9702   23   -7.1  100   -7.1  6     0     1017.2   NA       0.0000   BR       9999  0     0    
2019/07/11  14:28:00  BASE  0.78204  15   0.9702   23   -7.2  100   -7.2  6     0     1017.2   NA       0.0000   9999     0     0     0    
2019/07/11  14:29:00  BASE  0.77028  16   0.9702   23   -7.2  100   -7.2  6     0     1017.2   NA       0.0000   9999     0     0     0    
2019/07/11  14:30:00  BASE  0.78792  15   0.9702   23   -7.2  100   -7.2  7     0     1017.2   NA       0.0000   9999     0     0     0    
2019/07/11  14:31:00  BASE  0.72324  12   0.9702   23   -7.2  100   -7.2  7     0     1017.2   NA       0.0000   7000     0     0     0    
2019/07/11  14:32:00  BASE  0.71148  14   0.9702   23   -7.2  100   -7.2  7     0     1017.2   NA       0.0000   5000     0     0     0    
2019/07/11  14:33:00  BASE  0.77616  14   0.9702   23   -7.2  100   -7.2  7     0     1017.2   NA       0.0000   9000     0     0     0    
2019/07/11  14:34:00  BASE  0.8232   15   0.90552  13   -7.1  100   -7.1  7     0     1017.2   NA       0.0000   9999     0     0     0    
2019/07/11  14:35:15  BASE  0.84084  14   0.90552  13   -7.1  100   -7.1  7     0     1017.2   NA       0.0000   9999     0     0     0    
2019/07/11  14:36:00  BASE  0.77616  8    0.90552  13   -7.1  100   -7.1  8     0     1017.2   NA       0.0000   BR       5000  0     0    
2019/07/11  14:37:00  BASE  0.71148  7    0.90552  13   -7.1  100   -7.1  8     0     1017.2   NA       0.0000   BR       2700  0     0    
2019/07/11  14:38:00  BASE  0.69384  8    0.90552  13   -7.0  100   -7.0  8     0     1017.2   NA       0.0000   BR       2000  0     0    
2019/07/11  14:39:00  BASE  0.68208  8    0.90552  13   -7.0  100   -7.0  8     0     1017.2   NA       0.0000   BR       2000  0     0    
2019/07/11  14:40:00  BASE  0.69972  10   0.90552  13   -6.9  100   -6.9  8     0     1017.2   NA       0.0000   BR       2000  0     0    
2019/07/11  14:41:00  BASE  0.72912  10   0.90552  13   -6.9  100   -6.9  8     0     1017.2   NA       0.0000   BR       1900  0     0    
2019/07/11  14:42:00  BASE  0.75852  6    0.90552  13   -6.9  100   -6.9  8     0     1017.2   NA       0.0000   BR       1800  0     0    
2019/07/11  14:43:00  BASE  0.78792  6    0.90552  13   -7.0  100   -7.0  8     0     1017.2   NA       0.0000   BR       1900  0     0    
2019/07/11  14:44:00  BASE  0.80556  9    0.90552  1    -7.0  100   -7.0  9     0     1017.2   NA       0.0000   BR       2100  0     0    
2019/07/11  14:45:00  BASE  0.80556  7    0.90552  1    -7.1  100   -7.1  9     0     1017.2   NA       0.0000   BR       2000  0     0    
2019/07/11  14:46:00  BASE  0.78792  2    0.90552  1    -7.1  100   -7.1  9     0     1017.2   NA       0.0000   BR       1800  0     0    
2019/07/11  14:47:00  BASE  0.78204  357  0.90552  1    -7.1  100   -7.1  9     0     1017.2   NA       0.0000   BR       1700  0     0    
2019/07/11  14:48:00  BASE  0.77028  351  0.90552  1    -7.0  100   -7.0  9     0     1017.2   NA       0.0000   BR       1700  0     0    
2019/07/11  14:49:00  BASE  0.78204  345  0.90552  1    -6.9  100   -6.9  9     0     1017.2   NA       0.0000   BR       1500  0     0    
2019/07/11  14:50:00  BASE  0.79968  337  0.90552  1    -6.9  100   -6.9  10    0     1017.2   NA       0.0000   BR       1400  0     0    
2019/07/11  14:51:00  BASE  0.85848  331  1.029    328  -6.8  100   -6.8  10    0     1017.2   NA       0.0000   BR       1400  0     0    
2019/07/11  14:52:00  BASE  0.92316  328  1.029    326  -6.8  100   -6.8  10    0     1017.2   NA       0.0000   BR       1400  0     0    
2019/07/11  14:53:00  BASE  0.95844  327  1.0584   327  -6.8  100   -6.8  10    0     1017.2   NA       0.0000   BR       1400  0     0    
2019/07/11  14:54:00  BASE  0.98784  325  1.0584   316  -6.8  100   -6.8  11    0     1017.2   NA       0.0000   BR       1200  0     0    
2019/07/11  14:55:00  BASE  0.95256  323  1.0584   316  -6.7  100   -6.7  11    0     1017.2   NA       0.0000   BR       1200  0     0    
2019/07/11  14:56:00  BASE  0.91728  324  1.0584   316  -6.7  100   -6.7  11    0     1017.1   NA       0.0000   BR       1200  0     0    
2019/07/11  14:57:00  BASE  0.92904  324  1.0584   316  -6.7  100   -6.7  12    0     1017.2   NA       0.0000   BR       1100  0     0    
2019/07/11  14:58:00  BASE  0.99372  322  1.1466   319  -6.7  100   -6.7  12    0     1017.2   NA       0.0000   BR       1400  0     0    
2019/07/11  14:59:00  BASE  1.029    326  1.1466   319  -6.7  100   -6.7  12    0     1017.2   NA       0.0000   BR       1800  0     0    
2019/07/11  15:00:00  BASE  1.00548  327  1.1466   319  -6.7  100   -6.7  13    0     1017.2   NA       0.0000   BR       1400  0     0    
2019/07/11  15:01:00  BASE  1.00548  328  1.1466   319  -6.6  100   -6.6  13    0     1017.2   NA       0.0000   BR       1500  0     0    
2019/07/11  15:02:00  BASE  0.99372  334  1.1466   319  -6.6  100   -6.6  13    0     1017.2   NA       0.0000   BR       1500  0     0    
2019/07/11  15:03:00  BASE  0.9702   335  1.1466   319  -6.6  100   -6.6  13    0     1017.2   NA       0.0000   BR       1400  0     0    
2019/07/11  15:04:00  BASE  0.92316  333  1.1466   319  -6.6  100   -6.6  14    0     1017.2   NA       0.0000   BR       1300  0     0    
2019/07/11  15:05:00  BASE  0.882    332  1.1466   319  -6.6  100   -6.6  15    0     1017.2   NA       0.0000   BR       1300  0     0    
2019/07/11  15:06:00  BASE  0.89376  335  1.1466   319  -6.6  100   -6.6  15    0     1017.2   NA       0.0000   BR       1200  0     0    
2019/07/11  15:07:00  BASE  0.92316  343  1.1466   319  -6.6  100   -6.6  15    0     1017.2   NA       0.0000   BR       1400  0     0    
2019/07/11  15:08:00  BASE  0.97608  348  1.1172   322  -6.5  100   -6.5  16    0     1017.2   NA       0.0000   BR       1900  0     0    
2019/07/11  15:09:00  BASE  0.98784  350  1.0878   350  -6.5  100   -6.5  16    0     1017.2   NA       0.0000   BR       2700  0     0    
2019/07/11  15:10:00  BASE  0.95844  352  1.0878   350  -6.5  100   -6.5  16    0     1017.2   NA       0.0000   BR       3900  0     0    
2019/07/11  15:11:00  BASE  0.88788  358  1.0878   350  -6.5  100   -6.5  17    0     1017.2   NA       0.0000   BR       6000  0     0    
2019/07/11  15:12:00  BASE  0.8526   4    1.0878   350  -6.6  100   -6.6  17    0     1017.2   NA       0.0000   BR       9999  0     0    
2019/07/11  15:13:00  BASE  0.84672  3    1.0878   350  -6.7  100   -6.7  17    0     1017.2   NA       0.0000   BR       9999  0     0    
2019/07/11  15:14:00  BASE  0.7938   4    1.0878   350  -6.8  100   -6.8  18    0     1017.2   NA       0.0000   BR       9999  0     0    
2019/07/11  15:15:00  BASE  0.75852  0    1.0878   350  -6.9  100   -6.9  18    0     1017.2   NA       0.0000   BR       9999  0     0    
2019/07/11  15:16:00  BASE  0.77028  358  1.0878   350  -6.9  100   -6.9  18    0     1017.2   NA       0.0000   BR       9999  0     0    
2019/07/11  15:17:00  BASE  0.79968  359  1.0584   360  -7.0  100   -7.0  18    0     1017.2   NA       0.0000   BR       9999  160   0    
2019/07/11  15:18:00  BASE  0.8232   1    1.0584   360  -7.0  100   -7.0  18    0     1017.2   NA       0.0000   BR       9999  0     0    
2019/07/11  15:19:00  BASE  0.77616  12   1.0584   360  -6.9  100   -6.9  18    0     1017.1   NA       0.0000   9999     0     0     0    
2019/07/11  15:20:00  BASE  0.74088  21   0.93492  2    -6.9  100   -6.9  18    0     1017.2   NA       0.0000   9999     0     0     0    
2019/07/11  15:21:00  BASE  0.78204  24   0.93492  2    -7.0  100   -7.0  18    0     1017.2   NA       0.0000   9999     0     0     0    
2019/07/11  15:22:00  BASE  0.81144  27   0.93492  2    -7.0  100   -7.0  17    0     1017.2   NA       0.0000   9999     0     0     0    
2019/07/11  15:23:01  BASE  0.8232   28   0.93492  2    -7.0  100   -7.0  17    0     1017.2   NA       0.0000   9999     0     0     0    
2019/07/11  15:24:00  BASE  0.8232   27   0.93492  2    -7.0  100   -7.0  17    0     1017.2   NA       0.0000   9999     0     0     0    
2019/07/11  15:25:00  BASE  0.77028  24   0.93492  2    -7.1  100   -7.1  16    0     1017.2   NA       0.0000   9999     0     0     0    
2019/07/11  15:26:00  BASE  0.74088  14   0.93492  2    -7.1  100   -7.1  16    0     1017.3   NA       0.0000   9999     0     0     0    
2019/07/11  15:27:00  BASE  0.65268  11   0.90552  28   -7.1  100   -7.1  16    0     1017.3   NA       0.0000   9999     0     0     0    
2019/07/11  15:28:00  BASE  0.27636  15   0.90552  28   -7.1  100   -7.1  15    0     1017.3   NA       0.0000   9999     0     0     0    
2019/07/11  15:29:00  BASE  0        6    0.90552  28   -7.0  100   -7.0  15    0     1017.3   NA       0.0000   9999     0     0     0    
2019/07/11  15:30:00  BASE  0        345  0.90552  28   -7.0  100   -7.0  15    0     1017.4   NA       0.0000   9999     0     0     0    
2019/07/11  15:31:00  BASE  0        338  0.87612  6    -7.0  100   -7.0  15    0     1017.3   NA       0.0000   9999     0     0     0    
2019/07/11  15:32:00  BASE  0        346  0.87612  6    -7.0  100   -7.0  14    0     1017.3   NA       0.0000   9999     0     0     0    
2019/07/11  15:33:00  BASE  0        345  0.87612  6    -6.9  100   -6.9  14    0     1017.3   NA       0.0000   9999     0     0     0    
2019/07/11  15:34:00  BASE  0.17052  346  0.87612  6    -6.9  100   -6.9  15    0     1017.4   NA       0.0000   9999     0     0     0    
2019/07/11  15:35:00  BASE  0.30576  345  0.87612  6    -6.9  100   -6.9  16    0     1017.5   NA       0.0000   9999     0     0     0    
2019/07/11  15:36:00  BASE  0.27048  343  0.81732  354  -6.9  100   -6.9  16    0     1017.5   NA       0.0000   9999     360   0     0    
2019/07/11  15:37:00  BASE  0.14112  345  0.81732  354  -6.9  100   -6.9  17    0     1017.5   NA       0.0000   9999     390   0     0    
2019/07/11  15:38:00  BASE  0.11172  345  0.81732  354  -6.9  100   -6.9  15    0     1017.6   NA       0.0000   9999     0     0     0    
2019/07/11  15:39:00  BASE  0.22344  348  0.81732  354  -6.9  100   -6.9  14    0     1017.6   NA       0.0000   9999     0     0     0    
2019/07/11  15:40:00  BASE  0.45276  351  0.84672  343  -6.9  100   -6.9  13    0     1017.6   NA       0.0000   9999     0     0     0    
2019/07/11  15:41:00  BASE  0.71736  349  0.87612  1    -6.9  100   -6.9  13    0     1017.6   NA       0.0000   9999     0     0     0    
2019/07/11  15:42:00  BASE  0.7938   354  0.9702   353  -6.9  100   -6.9  13    0     1017.6   NA       0.0000   9999     0     0     0    
2019/07/11  15:43:00  BASE  0.84084  359  0.9702   353  -6.9  100   -6.9  13    0     1017.6   NA       0.0000   9999     0     0     0    
2019/07/11  15:44:00  BASE  0.78204  11   0.9702   353  -6.9  100   -6.9  14    0     1017.6   NA       0.0000   9999     0     0     0    
2019/07/11  15:45:00  BASE  0.79968  18   0.9702   353  -7.0  100   -7.0  16    0     1017.6   NA       0.0000   9999     520   0     0    
2019/07/11  15:46:00  BASE  0.89964  14   0.9702   19   -7.0  100   -7.0  18    0     1017.6   NA       0.0000   9999     490   0     0    
2019/07/11  15:47:00  BASE  0.99372  15   1.1466   14   -7.1  100   -7.1  20    0     1017.6   NA       0.0000   9999     390   0     0    
2019/07/11  15:48:00  BASE  1.09956  16   1.1466   13   -7.1  100   -7.1  21    0     1017.6   NA       0.0000   9999     330   0     0    
2019/07/11  15:49:00  BASE  1.1172   18   1.18188  22   -7.1  100   -7.1  21    0     1017.6   NA       0.0000   9999     260   0     0    
2019/07/11  15:50:00  BASE  1.12896  17   1.18188  22   -7.2  100   -7.2  25    0     1017.6   NA       0.0000   9999     300   0     0    
2019/07/11  15:51:00  BASE  1.07604  17   1.18188  22   -7.2  100   -7.2  28    0     1017.6   NA       0.0000   9999     330   0     0    
2019/07/11  15:52:00  BASE  0.98196  20   1.18188  22   -7.2  100   -7.2  36    0     1017.6   NA       0.0000   9999     330   0     0    
2019/07/11  15:53:00  BASE  0.9114   23   1.18188  22   -7.1  100   -7.1  32    0     1017.6   NA       0.0000   9999     300   0     0    
2019/07/11  15:54:00  BASE  0.8526   27   1.18188  22   -7.1  100   -7.1  32    0     1017.5   NA       0.0000   9999     230   0     0    
2019/07/11  15:55:00  BASE  0.8232   27   1.18188  22   -7.0  100   -7.0  31    0     1017.5   NA       0.0000   9999     300   0     0    
2019/07/11  15:56:00  BASE  0.81144  25   1.18188  22   -7.0  100   -7.0  28    0     1017.6   NA       0.0000   9999     300   0     0    
2019/07/11  15:57:00  BASE  0.81732  24   1.18188  22   -7.0  100   -7.0  30    0     1017.6   NA       0.0000   9999     260   0     0    
2019/07/11  15:58:00  BASE  0.81144  24   1.18188  22   -7.0  100   -7.0  30    0     1017.6   NA       0.0000   9999     300   0     0    
2019/07/11  15:59:00  BASE  0.74088  24   1.1466   12   -7.1  100   -7.1  29    0     1017.6   NA       0.0000   9999     230   0     0    
2019/07/11  16:00:00  BASE  0.72324  24   1.0878   20   -7.1  100   -7.1  26    0     1017.6   NA       0.0000   9999     260   0     0    
2019/07/11  16:01:00  BASE  0.81144  20   1.029    26   -7.0  100   -7.0  28    0     1017.5   NA       0.0000   9999     360   0     0    
2019/07/11  16:02:00  BASE  0.81732  15   0.9702   9    -7.0  100   -7.0  26    0     1017.6   NA       0.0000   9999     300   0     0    
2019/07/11  16:03:00  BASE  0.7644   15   0.9702   9    -6.9  100   -6.9  23    0     1017.7   NA       0.0000   9999     300   0     0    
2019/07/11  16:04:00  BASE  0.77616  14   0.9702   15   -6.9  100   -6.9  21    0     1017.7   NA       0.0000   9999     330   0     0    
2019/07/11  16:05:00  BASE  0.80556  9    0.9702   15   -6.8  100   -6.8  19    0     1017.7   NA       0.0000   9999     360   0     0    
2019/07/11  16:06:00  BASE  0.85848  3    0.9702   15   -6.8  100   -6.8  17    0     1017.5   NA       0.0000   9999     360   0     0    
2019/07/11  16:07:00  BASE  0.90552  360  0.9702   355  -6.7  100   -6.7  15    0     1017.7   NA       0.0000   9999     330   0     0    
2019/07/11  16:08:00  BASE  0.92904  3    1.029    1    -6.7  100   -6.7  14    0     1017.6   NA       0.0000   9999     330   0     0    
2019/07/11  16:09:00  BASE  0.89376  2    1.029    1    -6.6  100   -6.6  13    0     1017.6   NA       0.0000   9999     300   0     0    
2019/07/11  16:10:00  BASE  0.80556  3    1.029    1    -6.5  100   -6.5  12    0     1017.6   NA       0.0000   9999     330   0     0    
2019/07/11  16:11:00  BASE  0.81732  5    1.029    1    -6.4  100   -6.4  12    0     1017.6   NA       0.0000   9999     390   0     0    
2019/07/11  16:12:00  BASE  0.882    6    1.029    1    -6.3  100   -6.3  11    0     1017.6   NA       0.0000   9999     390   0     0    
2019/07/11  16:13:00  BASE  0.92904  9    1.0878   7    -6.3  100   -6.3  12    0     1017.6   NA       0.0000   9999     430   0     0    
2019/07/11  16:14:00  BASE  0.9996   12   1.0878   16   -6.4  100   -6.4  12    0     1017.6   NA       0.0000   9999     360   0     0    
2019/07/11  16:15:00  BASE  1.05252  13   1.1172   10   -6.4  100   -6.4  13    0     1017.6   NA       0.0000   9999     330   0     0    
2019/07/11  16:16:00  BASE  1.0878   13   1.21128  14   -6.5  100   -6.5  13    0     1017.6   NA       0.0000   9999     430   0     0    
2019/07/11  16:17:00  BASE  1.12308  15   1.21128  15   -6.6  100   -6.6  14    0     1017.6   NA       0.0000   9999     390   0     0    
2019/07/11  16:18:00  BASE  1.14072  13   1.21128  4    -6.6  100   -6.6  14    0     1017.6   NA       0.0000   9999     330   0     0    
2019/07/11  16:19:00  BASE  1.08192  13   1.21128  4    -6.6  100   -6.6  14    0     1017.5   NA       0.0000   9999     260   0     0    
2019/07/11  16:20:00  BASE  1.0584   14   1.21128  4    -6.6  100   -6.6  15    0     1017.5   NA       0.0000   9999     230   0     0    
2019/07/11  16:21:00  BASE  1.09956  15   1.21128  13   -6.6  100   -6.6  16    0     1017.5   NA       0.0000   9999     260   0     0    
2019/07/11  16:22:00  BASE  1.1172   17   1.21128  8    -6.5  100   -6.5  17    0     1017.5   NA       0.0000   9999     260   0     0    
2019/07/11  16:23:00  BASE  1.14072  17   1.21128  12   -6.5  100   -6.5  17    0     1017.5   NA       0.0000   9999     260   0     0    
2019/07/11  16:24:00  BASE  1.16424  18   1.21128  14   -6.5  100   -6.5  17    0     1017.5   NA       0.0000   9999     230   0     0    
2019/07/11  16:25:00  BASE  1.16424  17   1.24068  16   -6.5  100   -6.5  21    0     1017.5   NA       0.0000   9999     200   0     0    
2019/07/11  16:26:00  BASE  1.12896  14   1.24068  16   -6.5  100   -6.5  23    0     1017.5   NA       0.0000   9999     230   0     0    
2019/07/11  16:27:00  BASE  1.12308  13   1.24068  16   -6.6  100   -6.6  23    0     1017.5   NA       0.0000   9999     230   0     0    
2019/07/11  16:28:00  BASE  1.11132  12   1.24068  16   -6.6  100   -6.6  24    0     1017.5   NA       0.0000   9999     230   0     0    
2019/07/11  16:29:00  BASE  1.01724  9    1.24068  16   -6.6  100   -6.6  27    0     1017.5   NA       0.0000   9999     230   0     0    
2019/07/11  16:30:00  BASE  0.88788  8    1.24068  16   -6.6  100   -6.6  32    0     1017.5   NA       0.0000   9999     160   0     0    
2019/07/11  16:31:00  BASE  0.8232   7    1.24068  16   -6.6  100   -6.6  34    0     1017.5   NA       0.0000   9999     0     0     0    
2019/07/11  16:32:00  BASE  0.84672  6    1.24068  16   -6.6  100   -6.6  32    0     1017.5   NA       0.0000   9999     0     0     0    
2019/07/11  16:33:00  BASE  0.83496  5    1.24068  16   -6.6  100   -6.6  31    0     1017.4   NA       0.0000   9999     200   0     0    
2019/07/11  16:34:00  BASE  0.78792  4    1.24068  16   -6.6  100   -6.6  31    0     1017.4   NA       0.0000   9999     230   0     0    
2019/07/11  16:35:00  BASE  0.72324  8    1.21128  10   -6.6  100   -6.6  32    0     1017.5   NA       0.0000   9999     300   0     0    
2019/07/11  16:36:00  BASE  0.61152  7    1.21128  10   -6.5  100   -6.5  33    0     1017.5   NA       0.0000   9999     260   0     0    
2019/07/11  16:37:00  BASE  0.441    2    1.1466   15   -6.5  100   -6.5  34    0     1017.5   NA       0.0000   9999     260   0     0    
2019/07/11  16:38:00  BASE  0.42336  2    1.029    8    -6.5  100   -6.5  33    0     1017.5   NA       0.0000   9999     300   0     0    
2019/07/11  16:39:00  BASE  0.5292   1    0.9702   10   -6.5  100   -6.5  30    0     1017.5   NA       0.0000   9999     300   0     0    
2019/07/11  16:40:00  BASE  0.62328  357  0.9702   10   -6.5  100   -6.5  29    0     1017.4   NA       0.0000   9999     330   0     0    
2019/07/11  16:41:00  BASE  0.77028  350  0.9702   10   -6.5  100   -6.5  29    0     1017.3   NA       0.0000   9999     0     0     0    
2019/07/11  16:42:00  BASE  0.84672  347  0.93492  345  -6.5  100   -6.5  29    0     1017.3   NA       0.0000   9999     0     0     0    
2019/07/11  16:43:00  BASE  0.8232   353  0.93492  345  -6.5  100   -6.5  30    0     1017.3   NA       0.0000   9999     0     0     0    
2019/07/11  16:44:00  BASE  0.77028  355  0.93492  345  -6.5  100   -6.5  29    0     1017.3   NA       0.0000   9999     0     0     0    
2019/07/11  16:45:00  BASE  0.77028  347  0.93492  345  -6.5  100   -6.5  29    0     1017.3   NA       0.0000   9999     0     0     0    
2019/07/11  16:46:00  BASE  0.79968  339  0.93492  345  -6.5  100   -6.5  28    0     1017.3   NA       0.0000   9999     0     0     0    
2019/07/11  16:47:00  BASE  0.882    339  1.029    339  -6.4  100   -6.4  29    0     1017.3   NA       0.0000   9999     0     0     0    
2019/07/11  16:48:00  BASE  0.91728  340  1.029    339  -6.4  100   -6.4  29    0     1017.3   NA       0.0000   9999     0     0     0    
2019/07/11  16:49:00  BASE  0.85848  333  1.029    339  -6.4  100   -6.4  29    0     1017.3   NA       0.0000   9999     0     0     0    
2019/07/11  16:50:00  BASE  0.81144  333  1.029    339  -6.5  100   -6.5  29    0     1017.3   NA       0.0000   9999     0     0     0    
2019/07/11  16:51:00  BASE  0.7644   341  1.029    339  -6.5  100   -6.5  30    0     1017.3   NA       0.0000   9999     0     0     0    
2019/07/11  16:52:00  BASE  0.72912  349  1.029    339  -6.6  100   -6.6  31    0     1017.3   NA       0.0000   9999     0     0     0    
2019/07/11  16:53:00  BASE  0.72324  351  1.029    339  -6.8  100   -6.8  31    0     1017.3   NA       0.0000   9999     0     0     0    
2019/07/11  16:54:00  BASE  0.69972  348  1.029    339  -6.8  100   -6.8  32    0     1017.3   NA       0.0000   9999     0     0     0    
2019/07/11  16:55:00  BASE  0.44688  343  1.029    339  -6.9  100   -6.9  32    0     1017.3   NA       0.0000   9999     0     0     0    
2019/07/11  16:56:00  BASE  0.33516  344  1.029    339  -6.8  100   -6.8  33    0     1017.3   NA       0.0000   9999     0     0     0    
2019/07/11  16:57:00  BASE  0.3528   352  0.9702   339  -6.8  100   -6.8  33    0     1017.3   NA       0.0000   9999     0     0     0    
2019/07/11  16:58:00  BASE  0.2058   3    0.93492  325  -6.7  100   -6.7  33    0     1017.3   NA       0.0000   9999     0     0     0    
2019/07/11  16:59:00  BASE  0.09996  13   0.81732  348  -6.6  100   -6.6  33    0     1017.3   NA       0.0000   9999     0     0     0    
2019/07/11  17:00:00  BASE  0.37044  24   0.81732  348  -6.6  100   -6.6  33    0     1017.3   NA       0.0000   9999     0     0     0    
2019/07/11  17:01:00  BASE  0.72324  29   0.81732  34   -6.6  100   -6.6  33    0     1017.3   NA       0.0000   9999     0     0     0    
2019/07/11  17:02:00  BASE  0.74676  29   0.81732  27   -6.7  100   -6.7  33    0     1017.3   NA       0.0000   9999     0     0     0    
2019/07/11  17:03:00  BASE  0.735    35   0.81732  27   -6.7  100   -6.7  34    0     1017.2   NA       0.0000   9999     0     0     0    
2019/07/11  17:04:00  BASE  0.71736  44   0.81732  27   -6.7  100   -6.7  34    0     1017.3   NA       0.0000   9999     0     0     0    
2019/07/11  17:05:00  BASE  0.69972  48   0.81732  27   -6.8  100   -6.8  34    0     1017.3   NA       0.0000   9999     0     0     0    
2019/07/11  17:06:00  BASE  0.588    39   0.81732  27   -6.7  100   -6.7  33    0     1017.3   NA       0.0000   9999     0     0     0    
2019/07/11  17:07:00  BASE  0.4998   28   0.81732  27   -6.7  100   -6.7  33    0     1017.3   NA       0.0000   9999     0     0     0    
2019/07/11  17:08:00  BASE  0.2646   26   0.81732  27   -6.8  100   -6.8  33    0     1017.3   NA       0.0000   9999     0     0     0    
2019/07/11  17:09:00  BASE  0        30   0.81732  27   -6.8  100   -6.8  33    0     1017.3   NA       0.0000   9999     0     0     0    
2019/07/11  17:10:00  BASE  0        37   0.81732  27   -6.8  100   -6.8  33    0     1017.3   NA       0.0000   9999     0     0     0    
2019/07/11  17:11:00  BASE  0        30   0.81732  27   -6.8  100   -6.8  33    0     1017.3   NA       0.0000   9999     0     0     0    
2019/07/11  17:12:00  BASE  0        10   0.78792  50   -6.8  100   -6.8  33    0     1017.3   NA       0.0000   9999     0     0     0    
2019/07/11  17:13:00  BASE  0        351  0.75852  46   -6.8  100   -6.8  32    0     1017.3   NA       0.0000   9999     0     0     0    
2019/07/11  17:14:00  BASE  0        346  0.75852  46   -6.8  100   -6.8  31    0     1017.3   NA       0.0000   9999     0     0     0    
2019/07/11  17:15:00  BASE  0        347  0.69384  35   -6.8  100   -6.8  31    0     1017.3   NA       0.0000   9999     0     0     0    
2019/07/11  17:16:00  BASE  0        335  0.66444  20   -6.8  100   -6.8  31    0     1017.3   NA       0.0000   9999     0     0     0    
2019/07/11  17:17:00  BASE  0        330  0        M    -6.8  100   -6.8  30    0     1017.3   NA       0.0000   9999     0     0     0    
2019/07/11  17:18:00  BASE  0        340  0        M    -6.8  100   -6.8  26    0     1017.3   NA       0.0000   9999     0     0     0    
2019/07/11  17:19:00  BASE  0        354  0        M    -6.8  100   -6.8  26    0     1017.3   NA       0.0000   9999     0     0     0    
2019/07/11  17:20:00  BASE  0        22   0        M    -6.8  100   -6.8  22    0     1017.3   NA       0.0000   9999     0     0     0    
2019/07/11  17:21:00  BASE  0        42   0        M    -6.9  100   -6.9  21    0     1017.3   NA       0.0000   9999     0     0     0    
2019/07/11  17:22:00  BASE  0        43   0        M    -6.9  100   -6.9  20    0     1017.3   NA       0.0000   9999     0     0     0    
2019/07/11  17:23:00  BASE  0        45   0        M    -6.9  100   -6.9  21    0     1017.2   NA       0.0000   9999     0     0     0    
2019/07/11  17:24:00  BASE  0        50   0        M    -6.8  100   -6.8  22    0     1017.2   NA       0.0000   9999     0     0     0    
2019/07/11  17:25:00  BASE  0        41   0        M    -6.7  100   -6.7  21    0     1017.2   NA       0.0000   9999     0     0     0    
2019/07/11  17:26:00  BASE  0        22   0        M    -6.6  100   -6.6  21    0     1017.2   NA       0.0000   9999     0     0     0    
2019/07/11  17:27:00  BASE  0        357  0        M    -6.5  100   -6.5  20    0     1017.0   NA       0.0000   9999     0     0     0    
2019/07/11  17:28:00  BASE  0        339  0        M    -6.5  100   -6.5  17    0     1017.2   NA       0.0000   9999     0     0     0    
2019/07/11  17:29:00  BASE  0        332  0        M    -6.5  100   -6.5  15    0     1017.2   NA       0.0000   9999     0     0     0    
2019/07/11  17:30:00  BASE  0        349  0        M    -6.5  100   -6.5  14    0     1017.2   NA       0.0000   9999     0     0     0    
2019/07/11  17:31:00  BASE  0        18   0        M    -6.5  100   -6.5  14    0     1017.2   NA       0.0000   9999     0     0     0    
2019/07/11  17:32:00  BASE  0        29   0        M    -6.5  100   -6.5  14    0     1017.2   NA       0.0000   9999     0     0     0    
2019/07/11  17:33:00  BASE  0.05292  37   0.63504  39   -6.5  100   -6.5  12    0     1017.2   NA       0.0000   9999     0     0     0    
2019/07/11  17:34:00  BASE  0.18228  38   0.66444  38   -6.6  100   -6.6  11    0     1017.2   NA       0.0000   9999     0     0     0    
2019/07/11  17:35:00  BASE  0.12936  37   0.66444  38   -6.6  100   -6.6  11    0     1017.2   NA       0.0000   9999     0     0     0    
2019/07/11  17:36:00  BASE  0        31   0.66444  38   -6.7  100   -6.7  11    0     1017.2   NA       0.0000   9999     0     0     0    
2019/07/11  17:37:00  BASE  0        12   0.66444  38   -6.7  100   -6.7  10    0     1017.2   NA       0.0000   9999     0     0     0    
2019/07/11  17:38:00  BASE  0        4    0.66444  38   -6.7  100   -6.7  10    0     1017.2   NA       0.0000   9999     0     0     0    
2019/07/11  17:39:00  BASE  0        18   0.66444  38   -6.7  100   -6.7  9     0     1017.2   NA       0.0000   9999     0     0     0    
2019/07/11  17:40:00  BASE  0        36   0.66444  38   -6.8  100   -6.8  9     0     1017.2   NA       0.0000   9999     0     0     0    
2019/07/11  17:41:00  BASE  0.05292  39   0.66444  38   -6.8  100   -6.8  9     0     1017.2   NA       0.0000   9999     0     0     0    
2019/07/11  17:42:00  BASE  0.07644  34   0.66444  38   -6.8  100   -6.8  9     0     1017.2   NA       0.0000   9999     0     0     0    
2019/07/11  17:43:00  BASE  0.02352  27   0.66444  38   -6.9  100   -6.9  9     0     1017.2   NA       0.0000   9999     0     0     0    
2019/07/11  17:44:00  BASE  0        20   0.63504  32   -6.9  100   -6.9  9     0     1017.2   NA       0.0000   9999     0     0     0    
2019/07/11  17:45:00  BASE  0        18   0.63504  32   -6.9  100   -6.9  9     0     1017.2   NA       0.0000   9999     0     0     0    
2019/07/11  17:46:00  BASE  0        23   0.63504  32   -7.0  100   -7.0  8     0     1017.2   NA       0.0000   9999     0     0     0    
2019/07/11  17:47:00  BASE  0        24   0.63504  32   -7.0  100   -7.0  8     0     1017.2   NA       0.0000   9999     0     0     0    
2019/07/11  17:48:00  BASE  0        15   0.63504  32   -7.0  100   -7.0  8     0     1017.2   NA       0.0000   9999     0     0     0    
2019/07/11  17:49:00  BASE  0        10   0.63504  32   -7.0  100   -7.0  8     0     1017.2   NA       0.0000   9999     0     0     0    
2019/07/11  17:50:00  BASE  0        14   0.63504  32   -7.0  100   -7.0  8     0     1017.2   NA       0.0000   9999     0     0     0    
2019/07/11  17:51:00  BASE  0        9    0.60564  31   -7.0  100   -7.0  8     0     1017.2   NA       0.0000   9999     0     0     0    
2019/07/11  17:52:00  BASE  0        360  0        M    -7.0  100   -7.0  9     0     1017.2   NA       0.0000   9999     12370 0     0    
2019/07/11  17:53:00  BASE  0        355  0        M    -7.0  100   -7.0  8     0     1017.2   NA       0.0000   9999     12340 0     0    
2019/07/11  17:54:00  BASE  0        344  0        M    -7.0  100   -7.0  8     0     1017.2   NA       0.0000   9999     12270 0     0    
2019/07/11  17:55:00  BASE  0        335  0        M    -7.0  100   -7.0  9     0     1017.2   NA       0.0000   9999     12210 0     0    
2019/07/11  17:56:00  BASE  0        336  0        M    -7.0  100   -7.0  8     0     1017.2   NA       0.0000   9999     12140 0     0    
2019/07/11  17:57:00  BASE  0        337  0        M    -7.0  100   -7.0  8     0     1017.2   NA       0.0000   9999     12110 0     0    
2019/07/11  17:58:00  BASE  0        334  0        M    -7.0  100   -7.0  8     0     1017.2   NA       0.0000   9999     12140 0     0    
2019/07/11  17:59:00  BASE  0        331  0        M    -6.9  100   -6.9  8     0     1017.2   NA       0.0000   9999     12170 0     0    
2019/07/11  18:00:00  BASE  0.02352  330  0.60564  319  -6.9  100   -6.9  8     0     1017.2   NA       0.0000   9999     12140 0     0    
2019/07/11  18:01:00  BASE  0.15288  323  0.63504  317  -6.9  100   -6.9  8     0     1017.2   NA       0.0000   9999     0     0     0    
2019/07/11  18:02:00  BASE  0.31752  321  0.72324  323  -6.8  100   -6.8  8     0     1017.2   NA       0.0000   9999     0     0     0    
2019/07/11  18:03:00  BASE  0.18816  328  0.72324  323  -6.8  100   -6.8  8     0     1017.2   NA       0.0000   9999     0     0     0    
2019/07/11  18:04:00  BASE  0        344  0.72324  323  -6.8  100   -6.8  7     0     1017.2   NA       0.0000   9999     0     0     0    
2019/07/11  18:05:00  BASE  0        5    0.72324  323  -6.8  100   -6.8  7     0     1017.2   NA       0.0000   9999     0     0     0    
2019/07/11  18:06:00  BASE  0        18   0.72324  323  -6.8  100   -6.8  7     0     1017.2   NA       0.0000   9999     0     0     0    
2019/07/11  18:07:00  BASE  0        26   0.72324  323  -6.9  100   -6.9  7     0     1017.2   NA       0.0000   9999     0     0     0    
2019/07/11  18:08:00  BASE  0        21   0.72324  323  -6.9  100   -6.9  7     0     1017.2   NA       0.0000   9999     0     0     0    
2019/07/11  18:09:00  BASE  0        356  0.72324  323  -6.8  100   -6.8  7     0     1017.2   NA       0.0000   9999     0     0     0    
2019/07/11  18:10:00  BASE  0        342  0.72324  323  -6.8  100   -6.8  7     0     1017.2   NA       0.0000   9999     0     0     0    
2019/07/11  18:11:00  BASE  0        338  0.72324  323  -6.7  100   -6.7  7     0     1017.1   NA       0.0000   9999     0     0     0    
2019/07/11  18:12:00  BASE  0        325  0        M    -6.6  100   -6.6  7     0     1017.2   NA       0.0000   9999     0     0     0    
2019/07/11  18:13:00  BASE  0        318  0        M    -6.6  100   -6.6  7     0     1017.2   NA       0.0000   9999     0     0     0    
2019/07/11  18:14:00  BASE  0        313  0        M    -6.6  100   -6.6  7     0     1017.2   NA       0.0000   9999     0     0     0    
2019/07/11  18:15:00  BASE  0        326  0        M    -6.6  100   -6.6  6     0     1017.2   NA       0.0000   9999     0     0     0    
2019/07/11  18:16:00  BASE  0        336  0        M    -6.6  100   -6.6  6     0     1017.2   NA       0.0000   9999     0     0     0    
2019/07/11  18:17:00  BASE  0        339  0        M    -6.6  100   -6.6  6     0     1017.3   NA       0.0000   9999     0     0     0    
2019/07/11  18:18:00  BASE  0        355  0        M    -6.6  100   -6.6  6     0     1017.3   NA       0.0000   9999     0     0     0    
2019/07/11  18:19:00  BASE  0        2    0        M    -6.7  100   -6.7  6     0     1017.4   NA       0.0000   9999     0     0     0    
2019/07/11  18:20:00  BASE  0        11   0        M    -6.7  100   -6.7  6     0     1017.5   NA       0.0000   9999     0     0     0    
2019/07/11  18:21:00  BASE  0        8    0        M    -6.7  100   -6.7  6     0     1017.5   NA       0.0000   9999     0     0     0    
2019/07/11  18:22:00  BASE  0        352  0        M    -6.7  100   -6.7  6     0     1017.5   NA       0.0000   9999     0     0     0    
2019/07/11  18:23:00  BASE  0        4    0        M    -6.6  100   -6.6  6     0     1017.5   NA       0.0000   9999     0     0     0    
2019/07/11  18:24:00  BASE  0        19   0        M    -6.5  100   -6.5  6     0     1017.5   NA       0.0000   9999     0     0     0    
2019/07/11  18:25:00  BASE  0        20   0        M    -6.5  100   -6.5  6     0     1017.5   NA       0.0000   9999     0     0     0    
2019/07/11  18:26:00  BASE  0        10   0        M    -6.4  100   -6.4  5     0     1017.5   NA       0.0000   9999     0     0     0    
2019/07/11  18:27:00  BASE  0        14   0        M    -6.4  100   -6.4  5     0     1017.5   NA       0.0000   9999     0     0     0    
2019/07/11  18:28:00  BASE  0        16   0        M    -6.4  100   -6.4  5     0     1017.5   NA       0.0000   9999     0     0     0    
2019/07/11  18:29:00  BASE  0        15   0        M    -6.4  100   -6.4  5     0     1017.5   NA       0.0000   9999     0     0     0    
2019/07/11  18:30:00  BASE  0        15   0        M    -6.3  100   -6.3  5     0     1017.5   NA       0.0000   9999     0     0     0    
2019/07/11  18:31:00  BASE  0        15   0        M    -6.3  100   -6.3  5     0     1017.5   NA       0.0000   9999     0     0     0    
2019/07/11  18:32:00  BASE  0        30   0        M    -6.3  100   -6.3  5     0     1017.5   NA       0.0000   9999     0     0     0    
2019/07/11  18:33:00  BASE  0.02352  35   0.60564  40   -6.3  100   -6.3  5     0     1017.6   NA       0.0000   9999     0     0     0    
2019/07/11  18:34:00  BASE  0.14112  29   0.72324  32   -6.3  100   -6.3  5     0     1017.6   NA       0.0000   9999     0     0     0    
2019/07/11  18:35:00  BASE  0.25284  30   0.72324  27   -6.3  100   -6.3  4     0     1017.5   NA       0.0000   9999     0     0     0    
2019/07/11  18:36:00  BASE  0.25284  40   0.72324  27   -6.4  100   -6.4  4     0     1017.3   NA       0.0000   9999     11390 0     0    
2019/07/11  18:37:00  BASE  0.13524  46   0.72324  27   -6.4  100   -6.4  4     0     1017.6   NA       0.0000   9999     390   0     0    
2019/07/11  18:38:00  BASE  0.02352  34   0.72324  27   -6.4  100   -6.4  4     0     1017.7   NA       0.0000   9999     360   0     0    
2019/07/11  18:39:00  BASE  0        2    0.72324  27   -6.3  100   -6.3  4     0     1017.7   NA       0.0000   9999     360   0     0    
2019/07/11  18:40:00  BASE  0        352  0.72324  27   -6.2  100   -6.2  4     0     1017.7   NA       0.0000   9999     330   0     0    
2019/07/11  18:41:00  BASE  0        359  0.72324  27   -6.1  100   -6.1  4     0     1017.7   NA       0.0000   9999     0     0     0    
2019/07/11  18:42:00  BASE  0        1    0.72324  27   -6.1  100   -6.1  4     0     1017.7   NA       0.0000   9999     0     0     0    
2019/07/11  18:43:00  BASE  0        5    0.72324  27   -6.1  100   -6.1  4     0     1017.7   NA       0.0000   9999     0     0     0    
2019/07/11  18:44:00  BASE  0        14   0.72324  27   -6.1  100   -6.1  3     0     1017.7   NA       0.0000   9999     0     0     0    
2019/07/11  18:45:00  BASE  0        12   0.69384  46   -6.2  100   -6.2  3     0     1017.6   NA       0.0000   9999     0     0     0    
2019/07/11  18:46:00  BASE  0.09996  18   0.63504  25   -6.3  100   -6.3  3     0     1017.1   NA       0.0000   9999     0     0     0    
2019/07/11  18:47:00  BASE  0.37044  32   0.78792  37   -6.4  100   -6.4  3     0     1017.6   NA       0.0000   9999     0     0     0    
2019/07/11  18:48:00  BASE  0.71148  38   0.9996   42   -6.5  100   -6.5  3     0     1017.6   NA       0.0000   9999     0     0     0    
2019/07/11  18:49:00  BASE  0.89964  43   0.9996   42   -6.7  100   -6.7  4     0     1017.6   NA       0.0000   9999     0     0     0    
2019/07/11  18:50:00  BASE  0.87612  40   0.9996   42   -6.8  100   -6.8  4     0     1017.6   NA       0.0000   9999     0     0     0    
2019/07/11  18:51:00  BASE  0.80556  36   0.9996   42   -6.9  100   -6.9  4     0     1017.6   NA       0.0000   9999     0     0     0    
2019/07/11  18:52:00  BASE  0.7938   33   0.9996   42   -7.0  100   -7.0  4     0     1017.7   NA       0.0000   9999     0     0     0    
2019/07/11  18:53:00  BASE  0.8526   32   0.9996   42   -7.0  100   -7.0  4     0     1017.7   NA       0.0000   9999     0     0     0    
2019/07/11  18:54:00  BASE  0.91728  33   0.9996   32   -7.0  100   -7.0  3     0     1017.7   NA       0.0000   9999     0     0     0    
2019/07/11  18:55:00  BASE  0.92316  34   0.9996   32   -7.1  100   -7.1  3     0     1017.7   NA       0.0000   9999     0     0     0    
2019/07/11  18:56:00  BASE  0.89376  38   0.9996   32   -7.1  100   -7.1  3     0     1017.7   NA       0.0000   9999     0     0     0    
2019/07/11  18:57:00  BASE  0.87612  44   0.9996   32   -7.1  100   -7.1  3     0     1017.7   NA       0.0000   9999     0     0     0    
2019/07/11  18:58:01  BASE  0.89964  43   0.9996   35   -7.0  100   -7.0  3     0     1017.7   NA       0.0000   9999     0     0     0    
2019/07/11  18:59:00  BASE  0.9114   42   1.029    44   -6.9  100   -6.9  2     0     1017.7   NA       0.0000   9999     0     0     0    
2019/07/11  19:00:00  BASE  0.81144  44   1.029    44   -6.8  100   -6.8  2     0     1017.7   NA       0.0000   9999     0     0     0    
2019/07/11  19:01:00  BASE  0.8232   43   1.029    43   -6.8  100   -6.8  2     0     1017.7   NA       0.0000   9999     0     0     0    
2019/07/11  19:02:00  BASE  0.9408   39   1.0878   35   -6.8  100   -6.8  2     0     1017.6   NA       0.0000   9999     10300 0     0    
2019/07/11  19:03:00  BASE  0.95256  38   1.0878   35   -6.8  100   -6.8  2     0     1017.6   NA       0.0000   9999     10200 0     0    
2019/07/11  19:04:00  BASE  0.97608  42   1.1172   48   -6.8  100   -6.8  2     0     1017.6   NA       0.0000   9999     10170 0     0    
2019/07/11  19:05:00  BASE  1.04076  46   1.1466   45   -6.8  100   -6.8  2     0     1017.6   NA       0.0000   9999     10010 0     0    
2019/07/11  19:06:00  BASE  1.03488  46   1.21128  46   -6.8  100   -6.8  2     0     1017.6   NA       0.0000   9999     9910  0     0    
2019/07/11  19:07:00  BASE  1.01724  42   1.21128  46   -6.8  100   -6.8  1     0     1017.6   NA       0.0000   9999     10340 0     0    
2019/07/11  19:08:00  BASE  0.97608  33   1.21128  46   -6.8  100   -6.8  1     0     1017.6   NA       0.0000   9999     0     0     0    
2019/07/11  19:09:00  BASE  0.91728  25   1.21128  46   -6.8  100   -6.8  1     0     1017.7   NA       0.0000   9999     0     0     0    
2019/07/11  19:10:00  BASE  0.64092  28   1.21128  46   -6.7  100   -6.7  1     0     1017.7   NA       0.0000   9999     0     0     0    
2019/07/11  19:11:00  BASE  0.33516  25   1.21128  46   -6.6  100   -6.6  1     0     1017.7   NA       0.0000   9999     0     0     0    
2019/07/11  19:12:00  BASE  0.147    20   1.21128  46   -6.5  100   -6.5  1     0     1017.7   NA       0.0000   9999     0     0     0    
2019/07/11  19:13:00  BASE  0.22344  21   1.21128  46   -6.3  100   -6.3  1     0     1017.6   NA       0.0000   9999     0     0     0    
2019/07/11  19:14:00  BASE  0.45276  17   1.21128  46   -6.2  100   -6.2  1     0     1017.7   NA       0.0000   9999     0     0     0    
2019/07/11  19:15:00  BASE  0.22932  17   1.21128  46   -6.2  100   -6.2  1     0     1017.7   NA       0.0000   9999     0     0     0    
2019/07/11  19:16:00  BASE  0        24   1.0878   39   -6.2  100   -6.2  1     0     1017.7   NA       0.0000   9999     0     0     0    
2019/07/11  19:17:00  BASE  0        16   0.9996   24   -6.1  100   -6.1  1     0     1017.7   NA       0.0000   9999     0     0     0    
2019/07/11  19:18:00  BASE  0        9    0.9996   24   -6.1  100   -6.1  1     0     1017.6   NA       0.0000   9999     0     0     0    
2019/07/11  19:19:00  BASE  0        15   0.81732  15   -6.1  100   -6.1  1     0     1017.4   NA       0.0000   9999     0     0     0    
2019/07/11  19:20:00  BASE  0        13   0.75852  16   -6.1  100   -6.1  0     0     1017.7   NA       0.0000   9999     0     0     0    
2019/07/11  19:21:00  BASE  0        357  0.75852  16   -6.1  100   -6.1  0     0     1017.8   NA       0.0000   9999     0     0     0    
2019/07/11  19:22:00  BASE  0        341  0.75852  16   -6.0  100   -6.0  0     0     1017.8   NA       0.0000   9999     0     0     0    
2019/07/11  19:23:00  BASE  0.12936  328  0.75852  16   -5.9  100   -5.9  0     0     1017.8   NA       0.0000   9999     0     0     0    
2019/07/11  19:24:00  BASE  0.45864  316  0.75852  306  -5.8  100   -5.8  0     0     1017.8   NA       0.0000   9999     15360 0     0    
2019/07/11  19:25:00  BASE  0.61152  309  0.75852  304  -5.8  100   -5.8  0     0     1017.8   NA       0.0000   9999     0     0     0    
2019/07/11  19:26:00  BASE  0.58212  311  0.78792  308  -5.7  100   -5.7  0     0     1017.7   NA       0.0000   9999     15290 0     0    
2019/07/11  19:27:00  BASE  0.61152  317  0.78792  308  -5.7  100   -5.7  0     0     1017.7   NA       0.0000   9999     15260 0     0    
2019/07/11  19:28:00  BASE  0.68208  316  0.78792  308  -5.7  100   -5.7  0     0     1017.7   NA       0.0000   9999     15290 0     0    
2019/07/11  19:29:00  BASE  0.7056   313  0.78792  308  -5.6  100   -5.6  0     0     1017.8   NA       0.0000   9999     15290 0     0    
2019/07/11  19:30:00  BASE  0.68796  318  0.78792  308  -5.6  100   -5.6  0     0     1017.8   NA       0.0000   9999     15220 0     0    
2019/07/11  19:31:00  BASE  0.68796  324  0.78792  321  -5.6  100   -5.6  0     0     1017.8   NA       0.0000   9999     15360 0     0    
2019/07/11  19:32:00  BASE  0.69972  331  0.78792  338  -5.6  100   -5.6  0     0     1017.7   NA       0.0000   9999     9350  15290 0    
2019/07/11  19:33:00  BASE  0.71736  338  0.84672  334  -5.6  100   -5.6  0     0     1017.7   NA       0.0000   9999     9290  0     0    
2019/07/11  19:34:00  BASE  0.47628  2    0.84672  334  -5.7  100   -5.7  0     0     1017.8   NA       0.0000   9999     9220  15360 0    
2019/07/11  19:35:00  BASE  0.44688  27   0.84672  334  -5.8  100   -5.8  0     0     1017.8   NA       0.0000   9999     9250  15360 0    
2019/07/11  19:36:00  BASE  0.4116   23   0.84672  334  -5.8  100   -5.8  0     0     1017.8   NA       0.0000   9999     11750 15360 0    
2019/07/11  19:37:00  BASE  0.07644  19   0.84672  334  -5.9  100   -5.9  0     0     1017.8   NA       0.0000   9999     11580 15320 0    
2019/07/11  19:38:00  BASE  0        24   0.84672  334  -6.0  100   -6.0  0     0     1017.8   NA       0.0000   9999     11650 0     0    
2019/07/11  19:39:00  BASE  0        25   0.84672  334  -6.0  100   -6.0  0     0     1017.8   NA       0.0000   9999     11780 0     0    
2019/07/11  19:40:00  BASE  0        14   0.84672  334  -6.0  100   -6.0  0     0     1017.8   NA       0.0000   9999     11680 0     0    
2019/07/11  19:41:00  BASE  0        10   0.84672  334  -5.9  100   -5.9  0     0     1017.8   NA       0.0000   9999     11910 15360 0    
2019/07/11  19:42:00  BASE  0        22   0.84672  334  -5.9  100   -5.9  0     0     1017.8   NA       0.0000   9999     11750 0     0    
2019/07/11  19:43:00  BASE  0        31   0.75852  29   -5.9  100   -5.9  0     0     1017.8   NA       0.0000   9999     11780 0     0    
2019/07/11  19:44:00  BASE  0        36   0.72324  29   -5.9  100   -5.9  0     0     1017.8   NA       0.0000   9999     11910 15130 0    
2019/07/11  19:45:00  BASE  0        32   0.63504  3    -5.9  100   -5.9  0     0     1017.8   NA       0.0000   9999     10270 11910 14900
2019/07/11  19:46:00  BASE  0        32   0        M    -5.9  100   -5.9  0     0     1017.8   NA       0.0000   9999     10200 11810 0    
2019/07/11  19:47:00  BASE  0.02352  42   0.60564  31   -5.9  100   -5.9  0     0     1017.8   NA       0.0000   9999     11650 0     0    
2019/07/11  19:48:00  BASE  0.10584  36   0.66444  24   -5.8  100   -5.8  0     0     1017.8   NA       0.0000   9999     10270 11680 0    
2019/07/11  19:49:00  BASE  0.2646   15   0.81732  15   -5.8  100   -5.8  0     0     1017.8   NA       0.0000   9999     11520 0     0    
2019/07/11  19:50:00  BASE  0.18228  351  0.81732  15   -5.8  100   -5.8  0     0     1017.8   NA       0.0000   9999     11550 0     0    
2019/07/11  19:51:00  BASE  0        349  0.81732  15   -5.7  100   -5.7  0     0     1017.8   NA       0.0000   9999     10270 11650 0    
2019/07/11  19:52:00  BASE  0.0294   354  0.81732  15   -5.7  100   -5.7  0     0     1017.7   NA       0.0000   9999     11650 0     0    
2019/07/11  19:53:00  BASE  0.0294   356  0.81732  15   -5.7  100   -5.7  0     0     1017.8   NA       0.0000   9999     11580 0     0    
2019/07/11  19:54:00  BASE  0        2    0.81732  15   -5.7  100   -5.7  0     0     1017.8   NA       0.0000   9999     11480 0     0    
2019/07/11  19:55:00  BASE  0        342  0.81732  15   -5.8  100   -5.8  0     0     1017.8   NA       0.0000   9999     11390 0     0    
2019/07/11  19:56:00  BASE  0        330  0.81732  15   -5.8  100   -5.8  0     0     1017.8   NA       0.0000   9999     11390 0     0    
2019/07/11  19:57:00  BASE  0        338  0.81732  15   -5.8  100   -5.8  0     0     1017.8   NA       0.0000   9999     11350 0     0    
2019/07/11  19:58:00  BASE  0        340  0.81732  15   -5.8  100   -5.8  0     0     1017.8   NA       0.0000   9999     11390 0     0    
2019/07/11  19:59:00  BASE  0        339  0.63504  340  -5.7  100   -5.7  0     0     1017.8   NA       0.0000   9999     11420 0     0    
2019/07/11  20:00:00  BASE  0        331  0.63504  340  -5.6  100   -5.6  0     0     1017.8   NA       0.0000   9999     11420 14670 0    
2019/07/11  20:01:00  BASE  0        324  0.63504  340  -5.6  100   -5.6  0     0     1017.8   NA       0.0000   9999     11480 14730 0    
2019/07/11  20:02:00  BASE  0        320  0        M    -5.5  100   -5.5  0     0     1017.8   NA       0.0000   9999     9810  11420 0    
2019/07/11  20:03:00  BASE  0        317  0        M    -5.5  100   -5.5  0     0     1017.8   NA       0.0000   9999     11450 14800 0    
2019/07/11  20:04:00  BASE  0        325  0        M    -5.5  100   -5.5  0     0     1017.8   NA       0.0000   9999     11450 0     0    
2019/07/11  20:05:00  BASE  0        334  0        M    -5.5  100   -5.5  0     0     1017.9   NA       0.0000   9999     11420 0     0    
2019/07/11  20:06:00  BASE  0        349  0        M    -5.5  100   -5.5  0     0     1017.9   NA       0.0000   9999     9840  11350 0    
2019/07/11  20:07:00  BASE  0.15288  14   0.63504  32   -5.5  100   -5.5  0     0     1017.9   NA       0.0000   9999     11320 14670 0    
2019/07/11  20:08:00  BASE  0.4998   27   0.72324  32   -5.6  100   -5.6  0     0     1017.8   NA       0.0000   9999     11220 0     0    
2019/07/11  20:09:00  BASE  0.48804  32   0.72324  32   -5.7  100   -5.7  0     0     1017.8   NA       0.0000   9999     11190 0     0    
2019/07/11  20:10:00  BASE  0.14112  40   0.72324  32   -5.7  100   -5.7  0     0     1017.9   NA       0.0000   9999     11160 0     0    
2019/07/11  20:11:00  BASE  0.02352  52   0.72324  32   -5.8  100   -5.8  0     0     1017.9   NA       0.0000   9999     11160 0     0    
2019/07/11  20:12:00  BASE  0.4116   45   0.81732  35   -5.8  100   -5.8  0     0     1017.8   NA       0.0000   9999     11160 0     0    
2019/07/11  20:13:00  BASE  0.79968  27   0.9702   23   -5.7  100   -5.7  0     0     1017.9   NA       0.0000   9999     11220 14570 0    
2019/07/11  20:14:00  BASE  0.8232   25   0.9702   23   -5.7  100   -5.7  0     0     1017.9   NA       0.0000   9999     11120 14600 0    
2019/07/11  20:15:00  BASE  0.78792  28   0.9702   23   -5.7  100   -5.7  0     0     1017.9   NA       0.0000   9999     8660  11120 0    
2019/07/11  20:16:00  BASE  0.7056   31   0.9702   23   -5.7  100   -5.7  0     0     1017.9   NA       0.0000   9999     8660  11090 0    
2019/07/11  20:17:00  BASE  0.68208  39   0.9702   23   -5.7  100   -5.7  0     0     1017.9   NA       0.0000   9999     8630  11120 0    
2019/07/11  20:18:00  BASE  0.71736  42   0.9702   23   -5.7  100   -5.7  0     0     1017.9   NA       0.0000   9999     8660  11320 0    
2019/07/11  20:19:00  BASE  0.72912  38   0.9702   23   -5.8  100   -5.8  0     0     1017.9   NA       0.0000   9999     8630  11350 0    
2019/07/11  20:20:00  BASE  0.72324  31   0.9702   23   -5.8  100   -5.8  0     0     1017.9   NA       0.0000   9999     8690  11290 0    
2019/07/11  20:21:00  BASE  0.68796  27   0.9702   23   -5.8  100   -5.8  0     0     1017.9   NA       0.0000   9999     8690  0     0    
2019/07/11  20:22:00  BASE  0.5292   28   0.9702   23   -5.8  100   -5.8  0     0     1017.9   NA       0.0000   9999     0     0     0    
2019/07/11  20:23:00  BASE  0.51744  30   0.93492  31   -5.7  100   -5.7  0     0     1017.9   NA       0.0000   9999     0     0     0    
2019/07/11  20:24:00  BASE  0.57624  35   0.84672  24   -5.7  100   -5.7  0     0     1017.9   NA       0.0000   9999     0     0     0    
2019/07/11  20:25:00  BASE  0.34692  34   0.84672  24   -5.7  100   -5.7  0     0     1017.9   NA       0.0000   9999     0     0     0    
2019/07/11  20:26:00  BASE  0.19992  30   0.84672  24   -5.8  100   -5.8  0     0     1017.9   NA       0.0000   9999     0     0     0    
2019/07/11  20:27:00  BASE  0.31752  27   0.84672  24   -5.8  100   -5.8  0     0     1017.9   NA       0.0000   9999     0     0     0    
2019/07/11  20:28:00  BASE  0.37632  16   0.84672  24   -5.8  100   -5.8  0     0     1017.9   NA       0.0000   9999     0     0     0    
2019/07/11  20:29:00  BASE  0.28812  0    0.84672  24   -5.8  100   -5.8  0     0     1017.9   NA       0.0000   9999     0     0     0    
2019/07/11  20:30:00  BASE  0.32928  356  0.72324  353  -5.8  100   -5.8  0     0     1017.9   NA       0.0000   9999     0     0     0    
2019/07/11  20:31:00  BASE  0.61152  353  0.81732  353  -5.7  100   -5.7  0     0     1017.9   NA       0.0000   9999     0     0     0    
2019/07/11  20:32:00  BASE  0.78204  348  0.81732  352  -5.7  100   -5.7  0     0     1017.9   NA       0.0000   9999     0     0     0    
2019/07/11  20:33:00  BASE  0.75852  349  0.81732  352  -5.6  100   -5.6  0     0     1017.9   NA       0.0000   9999     0     0     0    
2019/07/11  20:34:00  BASE  0.69972  356  0.81732  352  -5.6  100   -5.6  0     0     1017.9   NA       0.0000   9999     0     0     0    
2019/07/11  20:35:00  BASE  0.69972  0    0.81732  352  -5.6  100   -5.6  0     0     1017.9   NA       0.0000   9999     0     0     0    
2019/07/11  20:36:00  BASE  0.72912  4    0.81732  352  -5.6  100   -5.6  0     0     1018.0   NA       0.0000   9999     11060 0     0    
2019/07/11  20:37:00  BASE  0.735    15   0.81732  352  -5.6  100   -5.6  0     0     1018.0   NA       0.0000   9999     10340 0     0    
2019/07/11  20:38:00  BASE  0.6468   22   0.81732  352  -5.6  100   -5.6  0     0     1018.0   NA       0.0000   9999     11250 0     0    
2019/07/11  20:39:00  BASE  0.33516  23   0.81732  352  -5.7  100   -5.7  0     0     1018.1   NA       0.0000   9999     10830 0     0    
2019/07/11  20:40:00  BASE  0.24696  21   0.81732  352  -5.7  100   -5.7  0     0     1018.1   NA       0.0000   9999     11320 0     0    
2019/07/11  20:41:00  BASE  0.5586   18   0.81732  19   -5.7  100   -5.7  0     0     1018.1   NA       0.0000   9999     10370 0     0    
2019/07/11  20:42:00  BASE  0.7644   18   0.87612  24   -5.6  100   -5.6  0     0     1018.1   NA       0.0000   9999     10200 0     0    
2019/07/11  20:43:00  BASE  0.81732  22   0.87612  26   -5.6  100   -5.6  0     0     1018.1   NA       0.0000   9999     10140 0     0    
2019/07/11  20:44:00  BASE  0.84672  31   0.90552  44   -5.7  100   -5.7  0     0     1018.1   NA       0.0000   9999     9970  10830 0    
2019/07/11  20:45:00  BASE  0.85848  41   0.90552  41   -5.7  100   -5.7  0     0     1018.1   NA       0.0000   9999     9290  10110 0    
2019/07/11  20:46:00  BASE  0.68208  47   0.90552  41   -5.8  100   -5.8  0     0     1018.1   NA       0.0000   9999     8890  10010 0    
2019/07/11  20:47:00  BASE  0.61152  48   0.90552  41   -5.8  100   -5.8  0     0     1018.1   NA       0.0000   9999     8920  0     0    
2019/07/11  20:48:00  BASE  0.63504  53   0.90552  41   -5.8  100   -5.8  0     0     1018.1   NA       0.0000   9999     9060  0     0    
2019/07/11  20:49:00  BASE  0.32928  61   0.90552  41   -5.7  100   -5.7  0     0     1018.1   NA       0.0000   9999     8830  9810  0    
2019/07/11  20:50:00  BASE  0.27048  62   0.90552  41   -5.7  100   -5.7  0     0     1018.2   NA       0.0000   9999     8920  0     0    
2019/07/11  20:51:00  BASE  0.24108  58   0.90552  41   -5.6  100   -5.6  0     0     1018.2   NA       0.0000   9999     9780  10370 0    
2019/07/11  20:52:00  BASE  0.3528   58   0.90552  41   -5.5  100   -5.5  0     0     1018.1   NA       0.0000   9999     11390 0     0    
2019/07/11  20:53:00  BASE  0.5292   55   0.90552  41   -5.5  100   -5.5  0     0     1018.1   NA       0.0000   9999     10530 0     0    
2019/07/11  20:54:00  BASE  0.42924  55   0.90552  41   -5.4  100   -5.4  0     0     1018.1   NA       0.0000   9999     10700 0     0    
2019/07/11  20:55:00  BASE  0.37632  55   0.81732  58   -5.4  100   -5.4  0     0     1018.1   NA       0.0000   9999     0     0     0    
2019/07/11  20:56:00  BASE  0.22344  41   0.81732  58   -5.4  100   -5.4  0     0     1018.1   NA       0.0000   9999     0     0     0    
2019/07/11  20:57:00  BASE  0.30576  37   0.81732  58   -5.4  100   -5.4  0     0     1018.1   NA       0.0000   9999     0     0     0    
2019/07/11  20:58:00  BASE  0.55272  43   0.81732  58   -5.3  100   -5.3  0     0     1018.1   NA       0.0000   9999     0     0     0    
2019/07/11  20:59:00  BASE  0.45864  38   0.81732  58   -5.4  100   -5.4  0     0     1018.1   NA       0.0000   9999     0     0     0    
2019/07/11  21:00:00  BASE  0.3528   32   0.81732  58   -5.3  100   -5.3  0     0     1018.1   NA       0.0000   9999     0     0     0    
2019/07/11  21:01:00  BASE  0.56448  37   0.81732  46   -5.3  100   -5.3  0     0     1018.1   NA       0.0000   9999     0     0     0    
2019/07/11  21:02:00  BASE  0.75852  45   0.93492  47   -5.3  100   -5.3  0     0     1018.1   NA       0.0000   9999     0     0     0    
2019/07/11  21:03:00  BASE  0.81732  51   0.93492  47   -5.3  100   -5.3  0     0     1018.1   NA       0.0000   9999     0     0     0    
2019/07/11  21:04:00  BASE  0.8232   56   0.93492  47   -5.2  100   -5.3  0     0     1018.1   NA       0.0000   9999     0     0     0    
2019/07/11  21:05:00  BASE  0.78204  52   0.93492  47   -5.3  100   -5.3  0     0     1018.1   NA       0.0000   9999     0     0     0    
2019/07/11  21:06:00  BASE  0.74676  49   0.93492  47   -5.2  100   -5.2  0     0     1018.1   NA       0.0000   9999     0     0     0    
2019/07/11  21:07:00  BASE  0.74676  51   0.93492  47   -5.2  100   -5.2  0     0     1018.2   NA       0.0000   9999     0     0     0    
2019/07/11  21:08:00  BASE  0.69972  54   0.93492  47   -5.2  100   -5.2  0     0     1018.2   NA       0.0000   9999     0     0     0    
2019/07/11  21:09:00  BASE  0.38808  55   0.93492  47   -5.1  100   -5.1  0     0     1018.2   NA       0.0000   9999     0     0     0    
2019/07/11  21:10:00  BASE  0.10584  47   0.93492  47   -5.1  100   -5.1  0     0     1018.2   NA       0.0000   9999     0     0     0    
2019/07/11  21:11:00  BASE  0.12936  34   0.93492  47   -5.0  100   -5.0  0     0     1018.2   NA       0.0000   9999     7840  0     0    
2019/07/11  21:12:00  BASE  0.07644  26   0.90552  56   -5.0  100   -5.0  0     0     1018.2   NA       0.0000   9999     8330  0     0    
2019/07/11  21:13:00  BASE  0.11172  27   0.90552  56   -5.0  100   -5.0  0     0     1018.1   NA       0.0000   9999     8070  0     0    
2019/07/11  21:14:00  BASE  0.46452  27   0.84672  58   -5.0  100   -5.0  0     0     1018.1   NA       0.0000   9999     7580  0     0    
2019/07/11  21:15:00  BASE  0.60564  25   0.84672  58   -5.0  100   -5.0  0     0     1018.1   NA       0.0000   9999     0     0     0    
2019/07/11  21:16:00  BASE  0.25284  25   0.75852  24   -5.0  100   -5.0  0     0     1018.1   NA       0.0000   9999     0     0     0    
2019/07/11  21:17:00  BASE  0        24   0.75852  24   -4.9  100   -4.9  0     0     1018.1   NA       0.0000   9999     0     0     0    
2019/07/11  21:18:00  BASE  0        19   0.75852  24   -4.8  100   -4.8  0     0     1018.1   NA       0.0000   9999     9550  0     0    
2019/07/11  21:19:00  BASE  0        355  0.75852  24   -4.8  100   -4.8  0     0     1018.1   NA       0.0000   9999     9650  0     0    
2019/07/11  21:20:00  BASE  0        329  0.75852  24   -4.7  100   -4.7  0     0     1018.1   NA       0.0000   9999     9320  0     0    
2019/07/11  21:21:00  BASE  0.02352  323  0.75852  24   -4.6  100   -4.6  0     0     1018.1   NA       0.0000   9999     9220  0     0    
2019/07/11  21:22:00  BASE  0.28812  331  0.75852  24   -4.6  100   -4.6  0     0     1018.1   NA       0.0000   9999     8760  0     0    
2019/07/11  21:23:00  BASE  0.31752  346  0.75852  24   -4.6  100   -4.6  0     0     1018.1   NA       0.0000   9999     7020  0     0    
2019/07/11  21:24:00  BASE  0.05292  354  0.69384  335  -4.5  100   -4.5  0     0     1018.1   NA       0.0000   9999     7120  0     0    
2019/07/11  21:25:00  BASE  0        5    0.69384  335  -4.6  100   -4.6  0     0     1018.1   NA       0.0000   9999     9320  0     0    
2019/07/11  21:26:00  BASE  0        20   0.69384  335  -4.6  100   -4.6  0     0     1018.1   NA       0.0000   9999     8920  0     0    
2019/07/11  21:27:00  BASE  0        360  0.69384  335  -4.6  100   -4.6  0     0     1018.1   NA       0.0000   9999     8560  0     0    
2019/07/11  21:28:00  BASE  0        320  0.69384  335  -4.6  100   -4.6  0     0     1018.1   NA       0.0000   9999     9190  0     0    
2019/07/11  21:29:00  BASE  0        323  0.69384  335  -4.7  100   -4.7  0     0     1018.1   NA       0.0000   9999     9420  0     0    
2019/07/11  21:30:00  BASE  0        1    0.69384  335  -4.7  100   -4.7  0     0     1018.1   NA       0.0000   9999     7970  0     0    
2019/07/11  21:31:00  BASE  0        20   0.69384  335  -4.7  100   -4.7  0     0     1018.1   NA       0.0000   9999     8070  0     0    
2019/07/11  21:32:00  BASE  0        12   0.63504  347  -4.7  100   -4.7  0     0     1018.1   NA       0.0000   9999     10630 0     0    
2019/07/11  21:33:00  BASE  0        357  0        M    -4.7  100   -4.7  0     0     1018.1   NA       0.0000   9999     10960 0     0    
2019/07/11  21:34:00  BASE  0        350  0        M    -4.7  100   -4.7  0     0     1018.1   NA       0.0000   9999     6630  7840  0    
2019/07/11  21:35:00  BASE  0        2    0        M    -4.7  100   -4.7  0     0     1018.1   NA       0.0000   9999     6500  7910  0    
2019/07/11  21:36:00  BASE  0        25   0        M    -4.7  100   -4.7  0     0     1018.1   NA       0.0000   9999     6500  0     0    
2019/07/11  21:37:00  BASE  0        25   0        M    -4.7  100   -4.7  0     0     1018.1   NA       0.0000   9999     6460  0     0    
2019/07/11  21:38:00  BASE  0        353  0        M    -4.7  100   -4.7  0     0     1018.1   NA       0.0000   9999     6460  0     0    
2019/07/11  21:39:00  BASE  0        327  0        M    -4.7  100   -4.7  0     0     1018.1   NA       0.0000   9999     8170  0     0    
2019/07/11  21:40:00  BASE  0        322  0        M    -4.6  100   -4.6  0     0     1018.1   NA       0.0000   9999     10370 0     0    
2019/07/11  21:41:00  BASE  0        335  0        M    -4.6  100   -4.6  0     0     1018.0   NA       0.0000   9999     10300 0     0    
2019/07/11  21:42:00  BASE  0        360  0        M    -4.5  100   -4.5  0     0     1018.1   NA       0.0000   9999     9680  0     0    
2019/07/11  21:43:00  BASE  0        10   0        M    -4.5  100   -4.5  0     0     1018.0   NA       0.0000   9999     6140  8920  0    
2019/07/11  21:44:00  BASE  0.07644  7    0.63504  1    -4.6  100   -4.6  0     0     1017.9   NA       0.0000   9999     6630  8920  0    
2019/07/11  21:45:00  BASE  0.10584  6    0.63504  1    -4.6  100   -4.6  0     0     1017.9   NA       0.0000   9999     8500  9650  0    
2019/07/11  21:46:00  BASE  0.02352  18   0.63504  1    -4.7  100   -4.7  0     0     1018.0   NA       0.0000   9999     8430  0     0    
2019/07/11  21:47:00  BASE  0        25   0.63504  1    -4.7  100   -4.7  0     0     1018.1   NA       0.0000   9999     8460  10240 0    
2019/07/11  21:48:00  BASE  0        15   0.63504  1    -4.6  100   -4.6  0     0     1018.0   NA       0.0000   9999     8100  0     0    
2019/07/11  21:49:00  BASE  0.30576  17   0.78792  21   -4.5  100   -4.5  0     0     1017.9   NA       0.0000   9999     8140  0     0    
2019/07/11  21:50:00  BASE  0.71736  25   0.87612  25   -4.5  100   -4.5  0     0     1017.9   NA       0.0000   9999     5940  0     0    
2019/07/11  21:51:00  BASE  0.55272  16   0.87612  25   -4.5  100   -4.5  0     0     1018.0   NA       0.0000   9999     5380  0     0    
2019/07/11  21:52:00  BASE  0.14112  357  0.87612  25   -4.5  100   -4.5  0     0     1018.1   NA       0.0000   9999     5380  0     0    
2019/07/11  21:53:00  BASE  0.1764   352  0.87612  25   -4.6  100   -4.6  0     0     1018.1   NA       0.0000   9999     5410  0     0    
2019/07/11  21:54:00  BASE  0.25872  14   0.87612  25   -4.6  100   -4.6  0     0     1018.1   NA       0.0000   9999     5380  7350  0    
2019/07/11  21:55:00  BASE  0.07644  42   0.87612  25   -4.7  100   -4.7  0     0     1018.0   NA       0.0000   9999     5320  7120  0    
2019/07/11  21:56:00  BASE  0        54   0.87612  25   -4.6  100   -4.6  0     0     1018.0   NA       0.0000   9999     5250  5810  8460 
2019/07/11  21:57:00  BASE  0        44   0.87612  25   -4.5  100   -4.5  0     0     1018.1   NA       0.0000   9999     5180  5870  6400 
2019/07/11  21:58:00  BASE  0        27   0.87612  25   -4.3  100   -4.3  0     0     1018.1   NA       0.0000   9999     5180  6400  8530 
2019/07/11  21:59:00  BASE  0        29   0.87612  25   -4.1  100   -4.1  0     0     1018.1   NA       0.0000   9999     5150  8170  0    
2019/07/11  22:00:00  BASE  0        35   0.78792  24   -3.8  99    -4.0  0     0     1018.1   NA       0.0000   9999     5120  8240  9810 
2019/07/11  22:01:00  BASE  0        32   0.63504  41   -3.7  97    -4.0  0     0     1018.1   NA       0.0000   9999     5020  8600  9350 
2019/07/11  22:02:00  BASE  0        39   0.63504  41   -3.6  95    -4.3  0     0     1018.1   NA       0.0000   9999     4950  7910  9350 
2019/07/11  22:03:00  BASE  0        242  0.63504  41   -3.7  93    -4.7  0     0     1018.1   NA       0.0000   9999     4950  0     0    
2019/07/11  22:04:00  BASE  0        252  0        M    -3.9  91    -5.1  0     0     1018.1   NA       0.0000   9999     8010  9190  0    
2019/07/11  22:05:00  BASE  0        267  0        M    -4.0  89    -5.5  0     0     1018.1   NA       0.0000   9999     5480  0     0    
2019/07/11  22:06:00  BASE  0        269  0        M    -4.1  89    -5.7  0     0     1018.1   NA       0.0000   9999     5410  7970  9120 
2019/07/11  22:07:00  BASE  0.15876  234  0.63504  184  -4.2  89    -5.7  0     0     1018.1   NA       0.0000   9999     5320  9220  0    
2019/07/11  22:08:00  BASE  0.37044  194  0.63504  184  -4.3  90    -5.7  0     0     1018.1   NA       0.0000   9999     5910  8010  9320 
2019/07/11  22:09:00  BASE  0.2058   167  0.63504  184  -4.4  90    -5.7  0     0     1018.1   NA       0.0000   9999     5180  7640  9150 
2019/07/11  22:10:00  BASE  0        139  0.63504  184  -4.4  91    -5.7  0     0     1018.1   NA       0.0000   9999     5090  7120  9220 
2019/07/11  22:11:00  BASE  0        113  0.63504  184  -4.4  92    -5.6  0     0     1018.1   NA       0.0000   9999     4920  5910  7120 
2019/07/11  22:12:00  BASE  0        139  0.63504  184  -4.4  93    -5.4  0     0     1018.1   NA       0.0000   9999     4660  6330  7970 
2019/07/11  22:13:00  BASE  0.05292  222  0.63504  184  -4.3  94    -5.1  0     0     1018.1   NA       0.0000   9999     4760  6300  8170 
2019/07/11  22:14:00  BASE  0.05292  272  0.63504  184  -4.1  94    -4.9  0     0     1018.1   NA       0.0000   9999     4430  6270  7870 
2019/07/11  22:15:00  BASE  0        286  0.63504  184  -4.0  94    -4.9  0     0     1018.1   NA       0.0000   9999     4300  6200  8960 
2019/07/11  22:16:00  BASE  0        284  0.63504  184  -3.9  93    -4.8  0     0     1018.1   NA       0.0000   9999     4230  5740  8070 
2019/07/11  22:17:00  BASE  0.16464  289  0.72324  282  -3.9  93    -4.9  0     0     1018.1   NA       0.0000   9999     4170  6170  9320 
2019/07/11  22:18:00  BASE  0.24108  296  0.72324  282  -4.0  92    -5.1  0     0     1018.1   NA       0.0000   9999     4100  5680  6590 
2019/07/11  22:19:00  BASE  0.07644  297  0.72324  282  -4.1  92    -5.2  0     0     1018.2   NA       0.0000   9999     4070  6140  0    
2019/07/11  22:20:00  BASE  0        280  0.72324  282  -4.1  92    -5.3  0     0     1018.2   NA       0.0000   9999     4070  6200  0    
2019/07/11  22:21:00  BASE  0        267  0.72324  282  -4.2  92    -5.3  0     0     1018.2   NA       0.0000   9999     4100  5710  8010 
2019/07/11  22:22:00  BASE  0        273  0.72324  282  -4.3  93    -5.3  0     0     1018.2   NA       0.0000   9999     4100  7910  0    
2019/07/11  22:23:00  BASE  0        277  0.72324  282  -4.3  94    -5.2  0     0     1018.2   NA       0.0000   9999     4000  5640  0    
2019/07/11  22:24:00  BASE  0        270  0.72324  282  -4.3  94    -5.1  0     0     1018.2   NA       0.0000   9999     3870  0     0    
2019/07/11  22:25:00  BASE  0        269  0.72324  282  -4.3  95    -4.9  0     0     1018.2   NA       0.0000   9999     3810  0     0    
2019/07/11  22:26:00  BASE  0        273  0.72324  282  -4.2  96    -4.8  0     0     1018.2   NA       0.0000   9999     3770  0     0    
2019/07/11  22:27:00  BASE  0        275  0.69384  297  -4.2  96    -4.7  0     0     1018.2   NA       0.0000   9999     3740  0     0    
2019/07/11  22:28:00  BASE  0        290  0        M    -4.2  97    -4.6  0     0     1018.2   NA       0.0000   9999     3710  0     0    
2019/07/11  22:29:00  BASE  0        315  0        M    -4.2  97    -4.5  0     0     1018.2   NA       0.0000   9999     3540  0     0    
2019/07/11  22:30:00  BASE  0        345  0        M    -4.2  98    -4.5  0     0     1018.2   NA       0.0000   9999     3310  0     0    
2019/07/11  22:31:00  BASE  0.0294   20   0.63504  54   -4.3  98    -4.6  0     0     1018.2   NA       0.0000   9999     3180  5640  0    
2019/07/11  22:32:00  BASE  0.45276  48   1.029    54   -4.3  98    -4.6  0     0     1018.2   NA       0.0000   9999     3080  0     0    
2019/07/11  22:33:00  BASE  0.8526   51   1.029    44   -4.4  98    -4.7  0     0     1018.2   NA       0.0000   9999     2890  0     0    
2019/07/11  22:34:00  BASE  0.48804  46   1.029    44   -4.5  98    -4.8  0     0     1018.2   NA       0.0000   9999     9940  0     0    
2019/07/11  22:35:00  BASE  0.22344  47   1.029    44   -4.6  98    -4.8  0     0     1018.2   NA       0.0000   9999     2920  0     0    
2019/07/11  22:36:00  BASE  0.6762   44   1.0878   39   -4.6  98    -4.8  0     0     1018.2   NA       0.0000   9999     2890  0     0    
2019/07/11  22:37:00  BASE  1.01724  39   1.1466   40   -4.5  98    -4.8  0     0     1018.2   NA       0.0000   9999     2790  0     0    
2019/07/11  22:38:00  BASE  0.56448  40   1.1466   40   -4.5  98    -4.8  0     0     1018.2   NA       0.0000   9999     2790  0     0    
2019/07/11  22:39:00  BASE  0.0588   42   1.1466   40   -4.6  98    -4.8  0     0     1018.3   NA       0.0000   9999     2790  0     0    
2019/07/11  22:40:00  BASE  0.18228  40   1.1466   40   -4.5  98    -4.8  0     0     1018.2   NA       0.0000   9999     2660  0     0    
2019/07/11  22:41:00  BASE  0.81144  40   1.29948  47   -4.5  98    -4.8  0     0     1018.1   NA       0.0000   9999     2590  0     0    
2019/07/11  22:42:00  BASE  1.12896  48   1.29948  47   -4.6  98    -4.9  0     0     1018.2   NA       0.0000   9999     2590  4330  0    
2019/07/11  22:43:00  BASE  0.81144  61   1.29948  47   -4.6  97    -4.9  0     0     1018.2   NA       0.0000   9999     2690  0     0    
2019/07/11  22:44:00  BASE  0.34104  65   1.29948  47   -4.6  97    -5.0  0     0     1018.3   NA       0.0000   9999     2720  0     0    
2019/07/11  22:45:00  BASE  0.0294   53   1.29948  47   -4.6  97    -5.0  0     0     1018.3   NA       0.0000   9999     2690  3770  0    
2019/07/11  22:46:00  BASE  0.21756  22   1.29948  47   -4.6  97    -5.0  0     0     1018.2   NA       0.0000   9999     2620  3770  0    
2019/07/11  22:47:00  BASE  0.68208  3    1.29948  47   -4.5  98    -4.9  0     0     1018.2   NA       0.0000   9999     2460  3540  0    
2019/07/11  22:48:00  BASE  0.94668  9    1.29948  47   -4.4  98    -4.8  0     0     1018.2   NA       0.0000   9999     2530  3450  5680 
2019/07/11  22:49:00  BASE  0.65856  5    1.29948  47   -4.4  97    -4.7  0     0     1018.2   NA       0.0000   9999     2660  5640  0    
2019/07/11  22:50:00  BASE  0.18228  5    1.29948  47   -4.3  97    -4.7  0     0     1018.2   NA       0.0000   9999     2590  5680  0    
2019/07/11  22:51:00  BASE  0.10584  356  1.1466   16   -4.3  96    -4.8  0     0     1018.2   NA       0.0000   9999     2490  3510  0    
2019/07/11  22:52:00  BASE  0.4704   345  1.1466   16   -4.3  96    -4.9  0     0     1018.2   NA       0.0000   9999     2530  5640  0    
2019/07/11  22:53:00  BASE  0.65268  338  1.1466   16   -4.3  95    -4.9  0     0     1018.2   NA       0.0000   9999     2490  3770  0    
2019/07/11  22:54:00  BASE  0.28812  316  1.1466   16   -4.2  95    -4.9  0     0     1018.2   NA       0.0000   9999     2490  0     0    
2019/07/11  22:55:00  BASE  0        287  1.1466   16   -4.3  95    -5.0  0     0     1018.2   NA       0.0000   9999     2430  0     0    
2019/07/11  22:56:00  BASE  0        284  1.1466   16   -4.3  94    -5.0  0     0     1018.2   NA       0.0000   9999     2300  0     0    
2019/07/11  22:57:00  BASE  0.0294   304  1.1466   16   -4.3  94    -5.0  0     0     1018.2   NA       0.0000   9999     2230  0     0    
2019/07/11  22:58:00  BASE  0.18228  308  0.84672  351  -4.2  94    -5.0  0     0     1018.2   NA       0.0000   9999     2230  0     0    
2019/07/11  22:59:00  BASE  0.15288  303  0.81732  348  -4.2  94    -5.0  0     0     1018.2   NA       0.0000   9999     2230  3180  0    
2019/07/11  23:00:00  BASE  0.05292  306  0.81732  348  -4.1  95    -4.9  0     0     1018.2   NA       0.0000   9999     2360  3150  0    
2019/07/11  23:01:00  BASE  0.09996  313  0.81732  348  -4.1  95    -4.8  0     0     1018.2   NA       0.0000   9999     2300  3940  0    
2019/07/11  23:02:00  BASE  0.2646   320  0.78792  332  -4.0  95    -4.7  0     0     1018.2   NA       0.0000   9999     2260  3020  0    
2019/07/11  23:03:00  BASE  0.50568  327  0.69384  332  -4.0  96    -4.6  0     0     1018.2   NA       0.0000   9999     1770  3020  0    
2019/07/11  23:04:00  BASE  0.41748  330  0.69384  332  -4.0  96    -4.5  0     0     1018.2   NA       0.0000   9999     1670  3810  0    
2019/07/11  23:05:00  BASE  0.1176   314  0.69384  332  -4.0  97    -4.4  0     0     1018.2   NA       0.0000   9999     1740  3770  0    
2019/07/11  23:06:00  BASE  0.21168  298  0.69384  332  -3.9  97    -4.4  0     0     1018.2   NA       0.0000   9999     1710  3740  0    
2019/07/11  23:07:00  BASE  0.588    306  0.81732  322  -3.9  97    -4.3  0     0     1018.2   NA       0.0000   9999     1640  3710  0    
2019/07/11  23:08:00  BASE  0.78792  323  0.87612  329  -3.9  97    -4.3  0     0     1018.2   NA       0.0000   9999     1540  3810  0    
2019/07/11  23:09:00  BASE  0.78204  336  0.87612  329  -3.9  98    -4.3  0     0     1018.2   NA       0.0000   9999     1440  0     0    
2019/07/11  23:10:00  BASE  0.48216  352  0.87612  329  -3.9  98    -4.2  0     0     1018.2   NA       0.0000   9999     1480  0     0    
2019/07/11  23:11:00  BASE  0.11172  355  0.87612  329  -3.9  98    -4.2  0     0     1018.2   NA       0.0000   9999     1510  3940  0    
2019/07/11  23:12:00  BASE  0        346  0.87612  329  -3.9  99    -4.1  0     0     1018.2   NA       0.0000   9999     1640  3840  0    
2019/07/11  23:13:00  BASE  0.10584  334  0.87612  329  -3.9  99    -4.0  0     0     1018.2   NA       0.0000   9999     1710  3840  0    
2019/07/11  23:14:00  BASE  0.15876  319  0.87612  329  -3.9  99    -4.0  0     0     1018.2   NA       0.0000   9999     1710  3770  0    
2019/07/11  23:15:00  BASE  0.15876  310  0.87612  329  -3.8  99    -4.0  0     0     1018.2   NA       0.0000   9999     1740  3740  0    
2019/07/11  23:16:00  BASE  0.18228  313  0.87612  329  -3.8  99    -4.0  0     0     1018.2   NA       0.0000   9999     1900  3840  0    
2019/07/11  23:17:00  BASE  0.07644  321  0.87612  329  -3.8  99    -3.9  0     0     1018.2   NA       0.0000   9999     2300  3770  4230 
2019/07/11  23:18:00  BASE  0        309  0.81732  336  -3.8  99    -3.9  0     0     1018.2   NA       0.0000   9999     3740  4230  0    
2019/07/11  23:19:00  BASE  0.07644  275  0.69384  355  -3.9  100   -3.9  0     0     1018.2   NA       0.0000   9999     3770  0     0    
2019/07/11  23:20:00  BASE  0.18228  255  0.66444  264  -3.9  100   -3.9  0     0     1018.2   NA       0.0000   9999     3740  0     0    
2019/07/11  23:21:00  BASE  0.28812  255  0.66444  264  -3.9  100   -3.9  0     0     1018.2   NA       0.0000   9999     4170  0     0    
2019/07/11  23:22:00  BASE  0.18228  259  0.66444  264  -3.8  100   -3.8  0     0     1018.2   NA       0.0000   9999     4230  0     0    
2019/07/11  23:23:00  BASE  0        258  0.66444  264  -3.8  100   -3.8  0     0     1018.2   NA       0.0000   9999     4070  0     0    
2019/07/11  23:24:00  BASE  0.13524  262  0.69384  276  -3.8  100   -3.8  0     0     1018.2   NA       0.0000   9999     3840  0     0    
2019/07/11  23:25:00  BASE  0.46452  275  0.72324  276  -3.8  100   -3.8  0     0     1018.2   NA       0.0000   9999     3670  0     0    
2019/07/11  23:26:00  BASE  0.74088  288  0.9996   297  -3.8  100   -3.8  0     0     1018.2   NA       0.0000   9999     3670  0     0    
2019/07/11  23:27:00  BASE  0.89376  296  1.1466   291  -3.8  100   -3.8  0     0     1018.2   NA       0.0000   9999     3610  0     0    
2019/07/11  23:28:00  BASE  0.9702   296  1.1466   291  -3.8  100   -3.8  0     0     1018.2   NA       0.0000   9999     3640  0     0    
2019/07/11  23:29:00  BASE  0.89964  297  1.1466   291  -3.9  100   -3.9  0     0     1018.2   NA       0.0000   9999     3250  3770  0    
2019/07/11  23:30:00  BASE  0.84084  298  1.1466   291  -3.9  100   -3.9  0     0     1018.3   NA       0.0000   9999     3250  3740  0    
2019/07/11  23:31:00  BASE  0.91728  294  1.1466   291  -3.9  100   -3.9  0     0     1018.3   NA       0.0000   9999     3180  0     0    
2019/07/11  23:32:00  BASE  1.03488  291  1.18188  292  -3.9  100   -3.9  0     0     1018.3   NA       0.0000   9999     3180  0     0    
2019/07/11  23:33:00  BASE  1.0878   290  1.18188  292  -3.8  100   -3.8  0     0     1018.2   NA       0.0000   9999     3150  0     0    
2019/07/11  23:34:00  BASE  1.10544  290  1.18188  290  -3.8  100   -3.8  0     0     1018.2   NA       0.0000   9999     3080  0     0    
2019/07/11  23:35:00  BASE  1.07604  290  1.18188  290  -3.8  100   -3.8  0     0     1018.2   NA       0.0000   9999     3120  0     0    
2019/07/11  23:36:00  BASE  0.98196  289  1.18188  290  -3.8  100   -3.8  0     0     1018.2   NA       0.0000   9999     3120  3740  0    
2019/07/11  23:37:00  BASE  0.94668  289  1.18188  290  -3.8  100   -3.8  0     0     1018.2   NA       0.0000   9999     3150  3710  0    
2019/07/11  23:38:00  BASE  0.9408   284  1.18188  290  -3.8  100   -3.8  0     0     1018.2   NA       0.0000   9999     3080  3670  11320
2019/07/11  23:39:00  BASE  0.89376  276  1.18188  290  -3.8  100   -3.8  0     0     1018.2   NA       0.0000   9999     3640  0     0    
2019/07/11  23:40:00  BASE  0.82908  280  1.18188  290  -3.8  100   -3.8  0     0     1018.2   NA       0.0000   9999     3610  11520 0    
2019/07/11  23:41:00  BASE  0.97608  288  1.21128  294  -3.8  100   -3.8  0     0     1018.2   NA       0.0000   9999     3640  11450 0    
2019/07/11  23:42:00  BASE  1.21128  292  1.35828  290  -3.8  100   -3.8  0     0     1018.2   NA       0.0000   9999     3580  0     0    
2019/07/11  23:43:00  BASE  1.30536  293  1.45236  294  -3.8  100   -3.8  0     0     1018.2   NA       0.0000   9999     3510  0     0    
2019/07/11  23:44:00  BASE  1.39944  294  1.63464  302  -3.8  100   -3.8  0     0     1018.2   NA       0.0000   9999     3020  3540  0    
2019/07/11  23:45:00  BASE  1.45824  297  1.75224  296  -3.8  100   -3.8  0     0     1018.2   NA       0.0000   9999     3410  0     0    
2019/07/11  23:46:00  BASE  1.28772  301  1.75224  296  -3.8  100   -3.8  0     0     1018.2   NA       0.0000   9999     3450  0     0    
2019/07/11  23:47:00  BASE  1.09956  307  1.75224  296  -3.8  100   -3.8  0     0     1018.2   NA       0.0000   9999     3410  0     0    
2019/07/11  23:48:00  BASE  1.04664  319  1.75224  296  -3.8  100   -3.8  0     0     1018.2   NA       0.0000   9999     3410  0     0    
2019/07/11  23:49:00  BASE  0.94668  342  1.75224  296  -3.8  100   -3.8  0     0     1018.2   NA       0.0000   9999     3410  0     0    
2019/07/11  23:50:00  BASE  0.81732  16   1.75224  296  -3.9  100   -3.9  0     0     1018.2   NA       0.0000   9999     3380  0     0    
2019/07/11  23:51:00  BASE  0.46452  42   1.75224  296  -4.0  100   -4.0  0     0     1018.2   NA       0.0000   9999     1900  3380  0    
2019/07/11  23:52:00  BASE  0.294    51   1.75224  296  -4.1  100   -4.1  0     0     1018.2   NA       0.0000   9999     3350  0     0    
2019/07/11  23:53:00  BASE  0.64092  51   1.75224  296  -4.2  100   -4.2  0     0     1018.2   NA       0.0000   9999     3350  0     0    
2019/07/11  23:54:00  BASE  0.84084  41   1.75224  296  -4.2  100   -4.2  0     0     1018.3   NA       0.0000   9999     3220  0     0    
2019/07/11  23:55:00  BASE  0.78204  22   1.24068  303  -4.2  100   -4.2  0     0     1018.3   NA       0.0000   9999     3150  0     0    
2019/07/11  23:56:00  BASE  0.8526   5    1.1466   321  -4.2  100   -4.2  0     0     1018.3   NA       0.0000   9999     1940  3120  0    
2019/07/11  23:57:00  BASE  0.8232   3    1.1466   321  -4.1  100   -4.1  0     0     1018.3   NA       0.0000   9999     1900  3120  0    
2019/07/11  23:58:00  BASE  0.34104  17   1.0878   1    -4.0  100   -4.1  0     0     1018.3   NA       0.0000   9999     1900  3150  0    
2019/07/11  23:59:00  BASE  0.0882   29   1.0878   1    -4.0  100   -4.0  0     0     1018.3   NA       0.0000   9999     1900  3180  0